Time,TemperatureF,DewpointF,PressureIn,WindDirection,WindDirectionDegrees,WindSpeedMPH,WindSpeedGustMPH,Humidity,HourlyPrecipIn,Conditions,Clouds,dailyrainin,SoftwareType,DateUTC
2013-08-25 00:00:00,78.6,61.6,30.12,SE,145,4.0,4.0,56,0.00,,---,0.00,VWS V14.01,2013-08-25 05:00:00,
2013-08-25 00:01:00,78.6,61.6,30.12,ENE,58,0.0,4.0,56,0.00,,---,0.00,VWS V14.01,2013-08-25 05:01:00,
2013-08-25 00:02:00,78.6,61.6,30.12,South,186,0.0,0.0,56,0.00,,---,0.00,VWS V14.01,2013-08-25 05:02:00,
2013-08-25 00:03:00,78.6,61.6,30.12,SW,232,0.0,2.7,56,0.00,,---,0.00,VWS V14.01,2013-08-25 05:03:00,
2013-08-25 00:04:00,78.6,61.6,30.09,SW,232,0.0,0.0,56,0.00,,---,0.00,VWS V14.01,2013-08-25 05:04:00,
2013-08-25 00:05:00,78.6,61.6,30.09,SW,214,0.0,0.0,56,0.00,,---,0.00,VWS V14.01,2013-08-25 05:05:00,
2013-08-25 00:06:00,78.6,61.6,30.09,NNW,335,0.0,2.7,56,0.00,,---,0.00,VWS V14.01,2013-08-25 05:06:00,
2013-08-25 00:07:00,78.6,61.6,30.09,WSW,257,3.1,3.1,56,0.00,,---,0.00,VWS V14.01,2013-08-25 05:07:00,
2013-08-25 00:08:00,78.6,61.6,30.09,SW,221,0.0,4.9,56,0.00,,---,0.00,VWS V14.01,2013-08-25 05:08:00,
2013-08-25 00:09:00,78.6,62.1,30.09,WSW,246,0.0,0.0,57,0.00,,---,0.00,VWS V14.01,2013-08-25 05:09:00,
2013-08-25 00:10:00,78.6,62.1,30.09,WSW,249,0.0,3.6,57,0.00,,---,0.00,VWS V14.01,2013-08-25 05:10:00,
2013-08-25 00:11:00,78.6,61.6,30.09,SW,235,0.0,0.0,56,0.00,,---,0.00,VWS V14.01,2013-08-25 05:11:00,
2013-08-25 00:12:00,78.4,62.0,30.09,SSW,192,0.0,0.0,57,0.00,,---,0.00,VWS V14.01,2013-08-25 05:12:00,
2013-08-25 00:13:00,78.4,62.0,30.09,SSW,210,0.0,0.0,57,0.00,,---,0.00,VWS V14.01,2013-08-25 05:13:00,
2013-08-25 00:14:00,78.4,62.0,30.09,WSW,251,0.0,2.7,57,0.00,,---,0.00,VWS V14.01,2013-08-25 05:14:00,
2013-08-25 00:15:00,78.4,62.0,30.09,WNW,284,0.0,0.0,57,0.00,,---,0.00,VWS V14.01,2013-08-25 05:15:00,
2013-08-25 00:16:00,78.4,62.0,30.09,SSW,193,2.2,2.7,57,0.00,,---,0.00,VWS V14.01,2013-08-25 05:16:00,
2013-08-25 00:17:00,78.4,62.0,30.09,South,179,3.1,3.1,57,0.00,,---,0.00,VWS V14.01,2013-08-25 05:17:00,
2013-08-25 00:18:00,78.4,62.0,30.09,South,173,0.0,3.1,57,0.00,,---,0.00,VWS V14.01,2013-08-25 05:18:00,
2013-08-25 00:19:00,78.3,61.8,30.09,WSW,237,3.6,3.6,57,0.00,,---,0.00,VWS V14.01,2013-08-25 05:19:00,
2013-08-25 00:20:00,78.3,61.8,30.09,SW,231,0.0,4.0,57,0.00,,---,0.00,VWS V14.01,2013-08-25 05:20:00,
2013-08-25 00:21:00,78.3,61.8,30.09,SW,232,0.0,0.0,57,0.00,,---,0.00,VWS V14.01,2013-08-25 05:21:00,
2013-08-25 00:22:00,78.3,61.8,30.09,SSW,211,0.0,2.2,57,0.00,,---,0.00,VWS V14.01,2013-08-25 05:22:00,
2013-08-25 00:23:00,78.4,62.0,30.09,SW,234,0.0,2.2,57,0.00,,---,0.00,VWS V14.01,2013-08-25 05:23:00,
2013-08-25 00:24:00,78.4,62.0,30.09,SSW,193,0.0,0.0,57,0.00,,---,0.00,VWS V14.01,2013-08-25 05:24:00,
2013-08-25 00:25:00,78.3,61.8,30.09,SE,142,0.0,0.0,57,0.00,,---,0.00,VWS V14.01,2013-08-25 05:25:00,
2013-08-25 00:26:00,78.3,61.8,30.09,SSE,159,0.0,0.0,57,0.00,,---,0.00,VWS V14.01,2013-08-25 05:26:00,
2013-08-25 00:27:00,78.3,61.8,30.09,SSE,159,0.0,0.0,57,0.00,,---,0.00,VWS V14.01,2013-08-25 05:27:00,
2013-08-25 00:28:00,78.3,61.8,30.09,SSE,159,0.0,0.0,57,0.00,,---,0.00,VWS V14.01,2013-08-25 05:28:00,
2013-08-25 00:29:00,78.3,61.8,30.09,SSE,159,0.0,0.0,57,0.00,,---,0.00,VWS V14.01,2013-08-25 05:29:00,
2013-08-25 00:32:00,78.3,61.8,30.09,SSE,159,0.0,0.0,57,0.00,,---,0.00,VWS V14.01,2013-08-25 05:32:00,
2013-08-25 00:34:00,78.3,62.3,30.09,West,276,0.0,0.0,58,0.00,,---,0.00,VWS V14.01,2013-08-25 05:34:00,
2013-08-25 00:35:00,78.3,62.3,30.09,West,276,0.0,0.0,58,0.00,,---,0.00,VWS V14.01,2013-08-25 05:35:00,
2013-08-25 00:36:00,78.3,62.3,30.09,West,276,0.0,0.0,58,0.00,,---,0.00,VWS V14.01,2013-08-25 05:36:00,
2013-08-25 00:37:00,78.3,62.3,30.09,West,276,0.0,0.0,58,0.00,,---,0.00,VWS V14.01,2013-08-25 05:37:00,
2013-08-25 00:38:00,78.3,62.3,30.09,West,276,0.0,0.0,58,0.00,,---,0.00,VWS V14.01,2013-08-25 05:38:00,
2013-08-25 00:39:00,78.3,62.3,30.09,West,276,0.0,0.0,58,0.00,,---,0.00,VWS V14.01,2013-08-25 05:39:00,
2013-08-25 00:40:00,78.3,62.3,30.09,West,276,0.0,0.0,58,0.00,,---,0.00,VWS V14.01,2013-08-25 05:40:00,
2013-08-25 00:41:00,78.3,62.3,30.09,West,276,0.0,0.0,58,0.00,,---,0.00,VWS V14.01,2013-08-25 05:41:00,
2013-08-25 00:42:00,78.3,62.3,30.09,West,276,0.0,0.0,58,0.00,,---,0.00,VWS V14.01,2013-08-25 05:42:00,
2013-08-25 00:43:00,78.3,62.3,30.09,West,276,0.0,0.0,58,0.00,,---,0.00,VWS V14.01,2013-08-25 05:43:00,
2013-08-25 00:44:00,78.1,62.1,30.09,West,276,0.0,0.0,58,0.00,,---,0.00,VWS V14.01,2013-08-25 05:44:00,
2013-08-25 00:45:00,78.1,62.1,30.09,West,276,0.0,0.0,58,0.00,,---,0.00,VWS V14.01,2013-08-25 05:45:00,
2013-08-25 00:46:00,78.1,62.1,30.09,West,276,0.0,0.0,58,0.00,,---,0.00,VWS V14.01,2013-08-25 05:46:00,
2013-08-25 00:47:00,78.1,62.1,30.09,West,276,0.0,0.0,58,0.00,,---,0.00,VWS V14.01,2013-08-25 05:47:00,
2013-08-25 00:48:00,78.1,62.1,30.09,West,276,0.0,0.0,58,0.00,,---,0.00,VWS V14.01,2013-08-25 05:48:00,
2013-08-25 00:49:00,78.1,62.1,30.09,West,276,0.0,0.0,58,0.00,,---,0.00,VWS V14.01,2013-08-25 05:49:00,
2013-08-25 00:50:00,78.1,62.1,30.09,West,276,0.0,0.0,58,0.00,,---,0.00,VWS V14.01,2013-08-25 05:50:00,
2013-08-25 00:51:00,78.1,62.1,30.09,West,276,0.0,0.0,58,0.00,,---,0.00,VWS V14.01,2013-08-25 05:51:00,
2013-08-25 00:52:00,78.1,62.6,30.09,West,276,0.0,0.0,59,0.00,,---,0.00,VWS V14.01,2013-08-25 05:52:00,
2013-08-25 00:53:00,78.1,62.1,30.09,West,276,0.0,0.0,58,0.00,,---,0.00,VWS V14.01,2013-08-25 05:53:00,
2013-08-25 00:54:00,78.1,62.1,30.09,West,276,0.0,0.0,58,0.00,,---,0.00,VWS V14.01,2013-08-25 05:54:00,
2013-08-25 00:55:00,78.1,62.6,30.09,West,276,0.0,0.0,59,0.00,,---,0.00,VWS V14.01,2013-08-25 05:55:00,
2013-08-25 00:56:00,78.1,62.6,30.09,West,276,0.0,0.0,59,0.00,,---,0.00,VWS V14.01,2013-08-25 05:56:00,
2013-08-25 00:57:00,78.1,62.6,30.09,West,276,0.0,0.0,59,0.00,,---,0.00,VWS V14.01,2013-08-25 05:57:00,
2013-08-25 00:58:00,78.1,62.6,30.09,West,276,0.0,0.0,59,0.00,,---,0.00,VWS V14.01,2013-08-25 05:58:00,
2013-08-25 00:59:00,77.9,62.0,30.09,West,276,0.0,0.0,58,0.00,,---,0.00,VWS V14.01,2013-08-25 05:59:00,
2013-08-25 01:00:00,77.9,62.4,30.09,West,276,0.0,0.0,59,0.00,,---,0.00,VWS V14.01,2013-08-25 06:00:00,
2013-08-25 01:01:00,77.9,62.4,30.09,West,276,0.0,0.0,59,0.00,,---,0.00,VWS V14.01,2013-08-25 06:01:00,
2013-08-25 01:02:00,77.9,62.4,30.09,West,276,0.0,0.0,59,0.00,,---,0.00,VWS V14.01,2013-08-25 06:02:00,
2013-08-25 01:03:00,77.9,62.4,30.09,West,276,0.0,0.0,59,0.00,,---,0.00,VWS V14.01,2013-08-25 06:03:00,
2013-08-25 01:04:00,77.9,62.4,30.09,West,276,0.0,0.0,59,0.00,,---,0.00,VWS V14.01,2013-08-25 06:04:00,
2013-08-25 01:05:00,77.9,62.4,30.12,West,276,0.0,0.0,59,0.00,,---,0.00,VWS V14.01,2013-08-25 06:05:00,
2013-08-25 01:06:00,78.1,62.6,30.12,West,276,0.0,0.0,59,0.00,,---,0.00,VWS V14.01,2013-08-25 06:06:00,
2013-08-25 01:07:00,78.1,62.6,30.12,West,276,0.0,0.0,59,0.00,,---,0.00,VWS V14.01,2013-08-25 06:07:00,
2013-08-25 01:08:00,78.1,62.6,30.12,West,276,0.0,0.0,59,0.00,,---,0.00,VWS V14.01,2013-08-25 06:08:00,
2013-08-25 01:09:00,78.1,62.6,30.12,West,276,0.0,0.0,59,0.00,,---,0.00,VWS V14.01,2013-08-25 06:09:00,
2013-08-25 01:10:00,78.1,62.6,30.12,West,276,0.0,0.0,59,0.00,,---,0.00,VWS V14.01,2013-08-25 06:10:00,
2013-08-25 01:11:00,78.1,62.6,30.12,West,276,0.0,0.0,59,0.00,,---,0.00,VWS V14.01,2013-08-25 06:11:00,
2013-08-25 01:12:00,78.1,62.6,30.12,West,276,0.0,0.0,59,0.00,,---,0.00,VWS V14.01,2013-08-25 06:12:00,
2013-08-25 01:13:00,78.1,62.6,30.12,NNW,333,0.0,0.0,59,0.00,,---,0.00,VWS V14.01,2013-08-25 06:13:00,
2013-08-25 01:14:00,78.1,62.6,30.12,NNW,333,0.0,0.0,59,0.00,,---,0.00,VWS V14.01,2013-08-25 06:14:00,
2013-08-25 01:15:00,78.1,62.6,30.12,NNW,333,0.0,0.0,59,0.00,,---,0.00,VWS V14.01,2013-08-25 06:15:00,
2013-08-25 01:16:00,78.1,62.6,30.12,NNW,333,0.0,0.0,59,0.00,,---,0.00,VWS V14.01,2013-08-25 06:16:00,
2013-08-25 01:17:00,78.1,62.6,30.12,NNW,333,0.0,0.0,59,0.00,,---,0.00,VWS V14.01,2013-08-25 06:17:00,
2013-08-25 01:18:00,78.1,62.6,30.12,NNW,333,0.0,0.0,59,0.00,,---,0.00,VWS V14.01,2013-08-25 06:18:00,
2013-08-25 01:19:00,78.1,62.6,30.12,NNW,333,0.0,0.0,59,0.00,,---,0.00,VWS V14.01,2013-08-25 06:19:00,
2013-08-25 01:20:00,78.1,62.6,30.09,NNW,333,0.0,0.0,59,0.00,,---,0.00,VWS V14.01,2013-08-25 06:20:00,
2013-08-25 01:21:00,78.1,62.6,30.09,NNW,333,0.0,0.0,59,0.00,,---,0.00,VWS V14.01,2013-08-25 06:21:00,
2013-08-25 01:22:00,77.9,62.4,30.09,NNW,333,0.0,0.0,59,0.00,,---,0.00,VWS V14.01,2013-08-25 06:22:00,
2013-08-25 01:24:00,77.9,62.4,30.09,NNW,333,0.0,0.0,59,0.00,,---,0.00,VWS V14.01,2013-08-25 06:24:00,
2013-08-25 01:25:00,77.9,62.4,30.09,NNW,333,0.0,0.0,59,0.00,,---,0.00,VWS V14.01,2013-08-25 06:25:00,
2013-08-25 01:26:00,77.9,62.4,30.09,NNW,333,0.0,0.0,59,0.00,,---,0.00,VWS V14.01,2013-08-25 06:26:00,
2013-08-25 01:27:00,77.9,62.4,30.09,NNW,333,0.0,0.0,59,0.00,,---,0.00,VWS V14.01,2013-08-25 06:27:00,
2013-08-25 01:28:00,77.9,62.9,30.09,WNW,291,0.0,0.0,60,0.00,,---,0.00,VWS V14.01,2013-08-25 06:28:00,
2013-08-25 01:29:00,77.9,62.9,30.09,NE,46,0.0,0.0,60,0.00,,---,0.00,VWS V14.01,2013-08-25 06:29:00,
2013-08-25 01:31:00,77.9,62.9,30.09,NE,46,0.0,0.0,60,0.00,,---,0.00,VWS V14.01,2013-08-25 06:31:00,
2013-08-25 01:32:00,77.9,62.9,30.09,NE,46,0.0,0.0,60,0.00,,---,0.00,VWS V14.01,2013-08-25 06:32:00,
2013-08-25 01:33:00,77.9,62.9,30.09,North,353,0.0,0.0,60,0.00,,---,0.00,VWS V14.01,2013-08-25 06:33:00,
2013-08-25 01:34:00,77.9,62.9,30.09,North,353,0.0,0.0,60,0.00,,---,0.00,VWS V14.01,2013-08-25 06:34:00,
2013-08-25 01:35:00,77.9,62.9,30.09,WNW,295,0.0,0.0,60,0.00,,---,0.00,VWS V14.01,2013-08-25 06:35:00,
2013-08-25 01:36:00,77.9,62.9,30.09,WNW,295,0.0,0.0,60,0.00,,---,0.00,VWS V14.01,2013-08-25 06:36:00,
2013-08-25 01:37:00,77.7,62.7,30.09,West,259,0.0,0.0,60,0.00,,---,0.00,VWS V14.01,2013-08-25 06:37:00,
2013-08-25 01:38:00,77.7,62.7,30.09,West,259,0.0,0.0,60,0.00,,---,0.00,VWS V14.01,2013-08-25 06:38:00,
2013-08-25 01:39:00,77.7,62.7,30.09,West,261,0.0,0.0,60,0.00,,---,0.00,VWS V14.01,2013-08-25 06:39:00,
2013-08-25 01:40:00,77.7,62.7,30.09,West,261,0.0,0.0,60,0.00,,---,0.00,VWS V14.01,2013-08-25 06:40:00,
2013-08-25 01:41:00,77.7,62.7,30.09,West,261,0.0,0.0,60,0.00,,---,0.00,VWS V14.01,2013-08-25 06:41:00,
2013-08-25 01:42:00,77.7,63.2,30.09,West,261,0.0,0.0,61,0.00,,---,0.00,VWS V14.01,2013-08-25 06:42:00,
2013-08-25 01:43:00,77.7,63.2,30.09,West,260,0.0,0.0,61,0.00,,---,0.00,VWS V14.01,2013-08-25 06:43:00,
2013-08-25 01:44:00,77.7,63.2,30.09,West,260,0.0,0.0,61,0.00,,---,0.00,VWS V14.01,2013-08-25 06:44:00,
2013-08-25 01:45:00,77.7,63.2,30.09,West,260,0.0,0.0,61,0.00,,---,0.00,VWS V14.01,2013-08-25 06:45:00,
2013-08-25 01:46:00,77.7,63.2,30.09,West,260,0.0,0.0,61,0.00,,---,0.00,VWS V14.01,2013-08-25 06:46:00,
2013-08-25 01:47:00,77.7,63.2,30.09,West,260,0.0,0.0,61,0.00,,---,0.00,VWS V14.01,2013-08-25 06:47:00,
2013-08-25 01:48:00,77.7,63.2,30.09,West,260,0.0,0.0,61,0.00,,---,0.00,VWS V14.01,2013-08-25 06:48:00,
2013-08-25 01:49:00,77.7,63.2,30.09,West,260,0.0,0.0,61,0.00,,---,0.00,VWS V14.01,2013-08-25 06:49:00,
2013-08-25 01:50:00,77.7,63.2,30.09,West,260,0.0,0.0,61,0.00,,---,0.00,VWS V14.01,2013-08-25 06:50:00,
2013-08-25 01:51:00,77.5,63.0,30.09,West,260,0.0,0.0,61,0.00,,---,0.00,VWS V14.01,2013-08-25 06:51:00,
2013-08-25 01:52:00,77.5,63.0,30.09,West,260,0.0,0.0,61,0.00,,---,0.00,VWS V14.01,2013-08-25 06:52:00,
2013-08-25 01:53:00,77.5,63.0,30.09,West,260,0.0,0.0,61,0.00,,---,0.00,VWS V14.01,2013-08-25 06:53:00,
2013-08-25 01:54:00,77.5,63.0,30.09,West,260,0.0,0.0,61,0.00,,---,0.00,VWS V14.01,2013-08-25 06:54:00,
2013-08-25 01:55:00,77.5,63.0,30.09,West,260,0.0,0.0,61,0.00,,---,0.00,VWS V14.01,2013-08-25 06:55:00,
2013-08-25 01:56:00,77.5,63.0,30.09,West,260,0.0,0.0,61,0.00,,---,0.00,VWS V14.01,2013-08-25 06:56:00,
2013-08-25 01:57:00,77.5,63.0,30.09,West,260,0.0,0.0,61,0.00,,---,0.00,VWS V14.01,2013-08-25 06:57:00,
2013-08-25 01:58:00,77.5,63.0,30.09,West,260,0.0,0.0,61,0.00,,---,0.00,VWS V14.01,2013-08-25 06:58:00,
2013-08-25 01:59:00,77.5,63.0,30.09,West,260,0.0,0.0,61,0.00,,---,0.00,VWS V14.01,2013-08-25 06:59:00,
2013-08-25 02:00:00,77.5,63.0,30.09,West,260,0.0,0.0,61,0.00,,---,0.00,VWS V14.01,2013-08-25 07:00:00,
2013-08-25 02:01:00,77.5,63.0,30.09,West,260,0.0,0.0,61,0.00,,---,0.00,VWS V14.01,2013-08-25 07:01:00,
2013-08-25 02:02:00,77.5,63.0,30.09,West,260,0.0,0.0,61,0.00,,---,0.00,VWS V14.01,2013-08-25 07:02:00,
2013-08-25 02:03:00,77.5,63.0,30.09,West,260,0.0,0.0,61,0.00,,---,0.00,VWS V14.01,2013-08-25 07:03:00,
2013-08-25 02:04:00,77.5,63.5,30.09,West,260,0.0,0.0,62,0.00,,---,0.00,VWS V14.01,2013-08-25 07:04:00,
2013-08-25 02:05:00,77.5,63.5,30.09,West,260,0.0,0.0,62,0.00,,---,0.00,VWS V14.01,2013-08-25 07:05:00,
2013-08-25 02:06:00,77.5,63.0,30.09,West,260,0.0,0.0,61,0.00,,---,0.00,VWS V14.01,2013-08-25 07:06:00,
2013-08-25 02:07:00,77.5,63.0,30.09,West,260,0.0,0.0,61,0.00,,---,0.00,VWS V14.01,2013-08-25 07:07:00,
2013-08-25 02:08:00,77.4,62.9,30.09,West,260,0.0,0.0,61,0.00,,---,0.00,VWS V14.01,2013-08-25 07:08:00,
2013-08-25 02:09:00,77.4,62.9,30.09,West,260,0.0,0.0,61,0.00,,---,0.00,VWS V14.01,2013-08-25 07:09:00,
2013-08-25 02:10:00,77.4,62.9,30.09,West,260,0.0,0.0,61,0.00,,---,0.00,VWS V14.01,2013-08-25 07:10:00,
2013-08-25 02:11:00,77.4,62.9,30.09,West,260,0.0,0.0,61,0.00,,---,0.00,VWS V14.01,2013-08-25 07:11:00,
2013-08-25 02:12:00,77.4,62.9,30.09,West,260,0.0,0.0,61,0.00,,---,0.00,VWS V14.01,2013-08-25 07:12:00,
2013-08-25 02:13:00,77.4,63.3,30.09,West,260,0.0,0.0,62,0.00,,---,0.00,VWS V14.01,2013-08-25 07:13:00,
2013-08-25 02:14:00,77.4,63.3,30.09,West,260,0.0,0.0,62,0.00,,---,0.00,VWS V14.01,2013-08-25 07:14:00,
2013-08-25 02:15:00,77.4,63.3,30.09,West,260,0.0,0.0,62,0.00,,---,0.00,VWS V14.01,2013-08-25 07:15:00,
2013-08-25 02:16:00,77.4,63.3,30.09,West,260,0.0,0.0,62,0.00,,---,0.00,VWS V14.01,2013-08-25 07:16:00,
2013-08-25 02:17:00,77.4,63.3,30.09,West,260,0.0,0.0,62,0.00,,---,0.00,VWS V14.01,2013-08-25 07:17:00,
2013-08-25 02:18:00,77.2,63.2,30.09,West,260,0.0,0.0,62,0.00,,---,0.00,VWS V14.01,2013-08-25 07:18:00,
2013-08-25 02:19:00,77.2,63.2,30.09,West,260,0.0,0.0,62,0.00,,---,0.00,VWS V14.01,2013-08-25 07:19:00,
2013-08-25 02:20:00,77.2,63.2,30.09,West,260,0.0,0.0,62,0.00,,---,0.00,VWS V14.01,2013-08-25 07:20:00,
2013-08-25 02:21:00,77.2,63.2,30.09,West,260,0.0,0.0,62,0.00,,---,0.00,VWS V14.01,2013-08-25 07:21:00,
2013-08-25 02:22:00,77.2,63.2,30.09,West,260,0.0,0.0,62,0.00,,---,0.00,VWS V14.01,2013-08-25 07:22:00,
2013-08-25 02:23:00,77.2,63.2,30.09,West,260,0.0,0.0,62,0.00,,---,0.00,VWS V14.01,2013-08-25 07:23:00,
2013-08-25 02:24:00,77.2,63.2,30.09,West,260,0.0,0.0,62,0.00,,---,0.00,VWS V14.01,2013-08-25 07:24:00,
2013-08-25 02:25:00,77.2,63.2,30.09,West,260,0.0,0.0,62,0.00,,---,0.00,VWS V14.01,2013-08-25 07:25:00,
2013-08-25 02:26:00,77.2,63.2,30.09,West,260,0.0,0.0,62,0.00,,---,0.00,VWS V14.01,2013-08-25 07:26:00,
2013-08-25 02:27:00,77.2,63.2,30.09,West,260,0.0,0.0,62,0.00,,---,0.00,VWS V14.01,2013-08-25 07:27:00,
2013-08-25 02:28:00,77.2,63.2,30.09,West,260,0.0,0.0,62,0.00,,---,0.00,VWS V14.01,2013-08-25 07:28:00,
2013-08-25 02:29:00,77.2,63.2,30.09,West,260,0.0,0.0,62,0.00,,---,0.00,VWS V14.01,2013-08-25 07:29:00,
2013-08-25 02:30:00,77.2,63.2,30.09,West,260,0.0,0.0,62,0.00,,---,0.00,VWS V14.01,2013-08-25 07:30:00,
2013-08-25 02:31:00,77.2,63.2,30.09,West,260,0.0,0.0,62,0.00,,---,0.00,VWS V14.01,2013-08-25 07:31:00,
2013-08-25 02:32:00,77.2,63.2,30.09,West,260,0.0,0.0,62,0.00,,---,0.00,VWS V14.01,2013-08-25 07:32:00,
2013-08-25 02:33:00,77.4,63.3,30.09,WNW,300,0.0,0.0,62,0.00,,---,0.00,VWS V14.01,2013-08-25 07:33:00,
2013-08-25 02:34:00,77.4,63.3,30.09,WNW,300,0.0,0.0,62,0.00,,---,0.00,VWS V14.01,2013-08-25 07:34:00,
2013-08-25 02:35:00,77.4,63.3,30.09,WNW,300,0.0,0.0,62,0.00,,---,0.00,VWS V14.01,2013-08-25 07:35:00,
2013-08-25 02:36:00,77.4,63.3,30.09,WNW,300,0.0,0.0,62,0.00,,---,0.00,VWS V14.01,2013-08-25 07:36:00,
2013-08-25 02:37:00,77.4,63.8,30.09,WNW,300,0.0,0.0,63,0.00,,---,0.00,VWS V14.01,2013-08-25 07:37:00,
2013-08-25 02:38:00,77.4,63.8,30.09,WNW,300,0.0,0.0,63,0.00,,---,0.00,VWS V14.01,2013-08-25 07:38:00,
2013-08-25 02:39:00,77.4,63.8,30.09,WNW,300,0.0,0.0,63,0.00,,---,0.00,VWS V14.01,2013-08-25 07:39:00,
2013-08-25 02:40:00,77.4,63.8,30.09,WNW,300,0.0,0.0,63,0.00,,---,0.00,VWS V14.01,2013-08-25 07:40:00,
2013-08-25 02:41:00,77.4,63.8,30.09,WNW,300,0.0,0.0,63,0.00,,---,0.00,VWS V14.01,2013-08-25 07:41:00,
2013-08-25 02:42:00,77.4,63.8,30.09,WNW,300,0.0,0.0,63,0.00,,---,0.00,VWS V14.01,2013-08-25 07:42:00,
2013-08-25 02:43:00,77.4,63.8,30.09,WNW,300,0.0,0.0,63,0.00,,---,0.00,VWS V14.01,2013-08-25 07:43:00,
2013-08-25 02:44:00,77.4,63.8,30.09,WNW,300,0.0,0.0,63,0.00,,---,0.00,VWS V14.01,2013-08-25 07:44:00,
2013-08-25 02:45:00,77.5,64.0,30.09,WNW,300,0.0,0.0,63,0.00,,---,0.00,VWS V14.01,2013-08-25 07:45:00,
2013-08-25 02:46:00,77.5,64.0,30.09,North,357,0.0,0.0,63,0.00,,---,0.00,VWS V14.01,2013-08-25 07:46:00,
2013-08-25 02:47:00,77.5,64.0,30.09,North,357,0.0,0.0,63,0.00,,---,0.00,VWS V14.01,2013-08-25 07:47:00,
2013-08-25 02:48:00,77.5,64.0,30.09,North,357,0.0,0.0,63,0.00,,---,0.00,VWS V14.01,2013-08-25 07:48:00,
2013-08-25 02:49:00,77.5,63.5,30.09,North,357,0.0,0.0,62,0.00,,---,0.00,VWS V14.01,2013-08-25 07:49:00,
2013-08-25 02:50:00,77.5,63.5,30.09,North,357,0.0,0.0,62,0.00,,---,0.00,VWS V14.01,2013-08-25 07:50:00,
2013-08-25 02:51:00,77.5,63.5,30.09,North,357,0.0,0.0,62,0.00,,---,0.00,VWS V14.01,2013-08-25 07:51:00,
2013-08-25 02:52:00,77.5,64.0,30.09,North,357,0.0,0.0,63,0.00,,---,0.00,VWS V14.01,2013-08-25 07:52:00,
2013-08-25 02:53:00,77.5,64.0,30.09,North,357,0.0,0.0,63,0.00,,---,0.00,VWS V14.01,2013-08-25 07:53:00,
2013-08-25 02:54:00,77.5,64.0,30.09,North,357,0.0,0.0,63,0.00,,---,0.00,VWS V14.01,2013-08-25 07:54:00,
2013-08-25 02:55:00,77.5,63.5,30.09,North,357,0.0,0.0,62,0.00,,---,0.00,VWS V14.01,2013-08-25 07:55:00,
2013-08-25 02:56:00,77.5,63.5,30.09,North,357,0.0,0.0,62,0.00,,---,0.00,VWS V14.01,2013-08-25 07:56:00,
2013-08-25 02:57:00,77.5,64.0,30.09,North,357,0.0,0.0,63,0.00,,---,0.00,VWS V14.01,2013-08-25 07:57:00,
2013-08-25 02:58:00,77.5,64.0,30.09,North,357,0.0,0.0,63,0.00,,---,0.00,VWS V14.01,2013-08-25 07:58:00,
2013-08-25 02:59:00,77.5,64.0,30.09,North,357,0.0,0.0,63,0.00,,---,0.00,VWS V14.01,2013-08-25 07:59:00,
2013-08-25 03:00:00,77.7,63.7,30.09,North,357,0.0,0.0,62,0.00,,---,0.00,VWS V14.01,2013-08-25 08:00:00,
2013-08-25 03:01:00,77.7,63.7,30.09,North,357,0.0,0.0,62,0.00,,---,0.00,VWS V14.01,2013-08-25 08:01:00,
2013-08-25 03:02:00,77.7,63.7,30.09,North,357,0.0,0.0,62,0.00,,---,0.00,VWS V14.01,2013-08-25 08:02:00,
2013-08-25 03:03:00,77.7,63.7,30.09,North,357,0.0,0.0,62,0.00,,---,0.00,VWS V14.01,2013-08-25 08:03:00,
2013-08-25 03:04:00,77.7,63.7,30.09,North,357,0.0,0.0,62,0.00,,---,0.00,VWS V14.01,2013-08-25 08:04:00,
2013-08-25 03:05:00,77.7,64.1,30.09,North,357,0.0,0.0,63,0.00,,---,0.00,VWS V14.01,2013-08-25 08:05:00,
2013-08-25 03:06:00,77.7,64.1,30.09,North,357,0.0,0.0,63,0.00,,---,0.00,VWS V14.01,2013-08-25 08:06:00,
2013-08-25 03:07:00,77.7,64.1,30.09,North,357,0.0,0.0,63,0.00,,---,0.00,VWS V14.01,2013-08-25 08:07:00,
2013-08-25 03:08:00,77.7,64.1,30.09,North,357,0.0,0.0,63,0.00,,---,0.00,VWS V14.01,2013-08-25 08:08:00,
2013-08-25 03:09:00,77.7,63.7,30.09,North,357,0.0,0.0,62,0.00,,---,0.00,VWS V14.01,2013-08-25 08:09:00,
2013-08-25 03:10:00,77.7,63.7,30.09,North,357,0.0,0.0,62,0.00,,---,0.00,VWS V14.01,2013-08-25 08:10:00,
2013-08-25 03:11:00,77.7,63.7,30.09,North,357,0.0,0.0,62,0.00,,---,0.00,VWS V14.01,2013-08-25 08:11:00,
2013-08-25 03:12:00,77.7,63.7,30.09,North,357,0.0,0.0,62,0.00,,---,0.00,VWS V14.01,2013-08-25 08:12:00,
2013-08-25 03:13:00,77.7,63.7,30.09,North,357,0.0,0.0,62,0.00,,---,0.00,VWS V14.01,2013-08-25 08:13:00,
2013-08-25 03:14:00,77.7,63.7,30.09,North,357,0.0,0.0,62,0.00,,---,0.00,VWS V14.01,2013-08-25 08:14:00,
2013-08-25 03:15:00,77.7,63.7,30.09,North,357,0.0,0.0,62,0.00,,---,0.00,VWS V14.01,2013-08-25 08:15:00,
2013-08-25 03:16:00,77.7,63.7,30.09,North,357,0.0,0.0,62,0.00,,---,0.00,VWS V14.01,2013-08-25 08:16:00,
2013-08-25 03:17:00,77.7,63.7,30.09,North,357,0.0,0.0,62,0.00,,---,0.00,VWS V14.01,2013-08-25 08:17:00,
2013-08-25 03:18:00,77.7,63.7,30.09,North,357,0.0,0.0,62,0.00,,---,0.00,VWS V14.01,2013-08-25 08:18:00,
2013-08-25 03:19:00,77.7,63.7,30.09,North,357,0.0,0.0,62,0.00,,---,0.00,VWS V14.01,2013-08-25 08:19:00,
2013-08-25 03:20:00,77.7,63.7,30.09,North,357,0.0,0.0,62,0.00,,---,0.00,VWS V14.01,2013-08-25 08:20:00,
2013-08-25 03:21:00,77.7,63.7,30.09,North,357,0.0,0.0,62,0.00,,---,0.00,VWS V14.01,2013-08-25 08:21:00,
2013-08-25 03:22:00,77.7,63.7,30.09,North,357,0.0,0.0,62,0.00,,---,0.00,VWS V14.01,2013-08-25 08:22:00,
2013-08-25 03:23:00,77.7,63.7,30.09,North,357,0.0,0.0,62,0.00,,---,0.00,VWS V14.01,2013-08-25 08:23:00,
2013-08-25 03:24:00,77.7,63.7,30.09,North,0,0.0,0.0,62,0.00,,---,0.00,VWS V14.01,2013-08-25 08:24:00,
2013-08-25 03:25:00,77.7,63.7,30.09,NW,322,0.0,0.0,62,0.00,,---,0.00,VWS V14.01,2013-08-25 08:25:00,
2013-08-25 03:26:00,77.7,63.7,30.09,NW,322,0.0,0.0,62,0.00,,---,0.00,VWS V14.01,2013-08-25 08:26:00,
2013-08-25 03:27:00,77.7,64.1,30.09,NW,319,0.0,0.0,63,0.00,,---,0.00,VWS V14.01,2013-08-25 08:27:00,
2013-08-25 03:28:00,77.7,64.1,30.09,NW,319,0.0,0.0,63,0.00,,---,0.00,VWS V14.01,2013-08-25 08:28:00,
2013-08-25 03:29:00,77.7,64.1,30.09,NW,319,0.0,0.0,63,0.00,,---,0.00,VWS V14.01,2013-08-25 08:29:00,
2013-08-25 03:30:00,77.7,64.1,30.09,NW,319,0.0,0.0,63,0.00,,---,0.00,VWS V14.01,2013-08-25 08:30:00,
2013-08-25 03:31:00,77.7,64.1,30.09,NW,319,0.0,0.0,63,0.00,,---,0.00,VWS V14.01,2013-08-25 08:31:00,
2013-08-25 03:32:00,77.7,64.1,30.09,NW,319,0.0,0.0,63,0.00,,---,0.00,VWS V14.01,2013-08-25 08:32:00,
2013-08-25 03:33:00,77.7,64.1,30.09,SW,224,2.7,2.7,63,0.00,,---,0.00,VWS V14.01,2013-08-25 08:33:00,
2013-08-25 03:34:00,77.7,64.1,30.09,SW,215,0.0,2.7,63,0.00,,---,0.00,VWS V14.01,2013-08-25 08:34:00,
2013-08-25 03:35:00,77.7,64.1,30.09,SW,215,0.0,0.0,63,0.00,,---,0.00,VWS V14.01,2013-08-25 08:35:00,
2013-08-25 03:36:00,77.7,64.1,30.09,SW,215,0.0,0.0,63,0.00,,---,0.00,VWS V14.01,2013-08-25 08:36:00,
2013-08-25 03:37:00,77.7,64.1,30.09,SW,215,0.0,0.0,63,0.00,,---,0.00,VWS V14.01,2013-08-25 08:37:00,
2013-08-25 03:39:00,77.7,64.1,30.09,WNW,300,0.0,0.0,63,0.00,,---,0.00,VWS V14.01,2013-08-25 08:39:00,
2013-08-25 03:40:00,77.7,64.1,30.09,WNW,300,0.0,0.0,63,0.00,,---,0.00,VWS V14.01,2013-08-25 08:40:00,
2013-08-25 03:41:00,77.9,64.3,30.09,WNW,300,0.0,0.0,63,0.00,,---,0.00,VWS V14.01,2013-08-25 08:41:00,
2013-08-25 03:42:00,77.9,64.3,30.09,WNW,300,0.0,0.0,63,0.00,,---,0.00,VWS V14.01,2013-08-25 08:42:00,
2013-08-25 03:43:00,77.9,64.3,30.09,WNW,300,0.0,0.0,63,0.00,,---,0.00,VWS V14.01,2013-08-25 08:43:00,
2013-08-25 03:44:00,77.9,64.3,30.09,WNW,300,0.0,0.0,63,0.00,,---,0.00,VWS V14.01,2013-08-25 08:44:00,
2013-08-25 03:45:00,77.9,64.3,30.09,NW,308,3.6,3.6,63,0.00,,---,0.00,VWS V14.01,2013-08-25 08:45:00,
2013-08-25 03:46:00,77.9,64.3,30.09,NW,316,0.0,3.6,63,0.00,,---,0.00,VWS V14.01,2013-08-25 08:46:00,
2013-08-25 03:47:00,77.7,64.1,30.09,NW,315,0.0,0.0,63,0.00,,---,0.00,VWS V14.01,2013-08-25 08:47:00,
2013-08-25 03:48:00,77.7,64.1,30.09,NW,315,0.0,0.0,63,0.00,,---,0.00,VWS V14.01,2013-08-25 08:48:00,
2013-08-25 03:49:00,77.7,64.1,30.09,NW,315,0.0,0.0,63,0.00,,---,0.00,VWS V14.01,2013-08-25 08:49:00,
2013-08-25 03:50:00,77.7,64.1,30.09,NW,315,0.0,0.0,63,0.00,,---,0.00,VWS V14.01,2013-08-25 08:50:00,
2013-08-25 03:51:00,77.7,64.1,30.12,NW,315,0.0,0.0,63,0.00,,---,0.00,VWS V14.01,2013-08-25 08:51:00,
2013-08-25 03:52:00,77.7,64.1,30.12,NW,315,0.0,0.0,63,0.00,,---,0.00,VWS V14.01,2013-08-25 08:52:00,
2013-08-25 03:53:00,77.7,64.1,30.12,NW,315,0.0,0.0,63,0.00,,---,0.00,VWS V14.01,2013-08-25 08:53:00,
2013-08-25 03:54:00,77.7,64.1,30.12,NW,315,0.0,0.0,63,0.00,,---,0.00,VWS V14.01,2013-08-25 08:54:00,
2013-08-25 03:55:00,77.7,64.1,30.12,NW,315,0.0,0.0,63,0.00,,---,0.00,VWS V14.01,2013-08-25 08:55:00,
2013-08-25 03:56:00,77.9,64.3,30.12,NW,313,2.7,2.7,63,0.00,,---,0.00,VWS V14.01,2013-08-25 08:56:00,
2013-08-25 03:57:00,77.9,64.3,30.12,NW,313,2.7,2.7,63,0.00,,---,0.00,VWS V14.01,2013-08-25 08:57:00,
2013-08-25 03:58:00,77.9,64.3,30.12,NNW,328,0.0,2.7,63,0.00,,---,0.00,VWS V14.01,2013-08-25 08:58:00,
2013-08-25 03:59:00,77.9,64.3,30.12,NNW,330,0.0,0.0,63,0.00,,---,0.00,VWS V14.01,2013-08-25 08:59:00,
2013-08-25 04:00:00,77.9,64.3,30.12,NNW,330,0.0,0.0,63,0.00,,---,0.00,VWS V14.01,2013-08-25 09:00:00,
2013-08-25 04:01:00,77.9,64.3,30.12,NW,321,0.0,0.0,63,0.00,,---,0.00,VWS V14.01,2013-08-25 09:01:00,
2013-08-25 04:02:00,77.9,64.3,30.12,NW,321,0.0,0.0,63,0.00,,---,0.00,VWS V14.01,2013-08-25 09:02:00,
2013-08-25 04:03:00,77.9,64.3,30.12,NW,321,0.0,0.0,63,0.00,,---,0.00,VWS V14.01,2013-08-25 09:03:00,
2013-08-25 04:04:00,77.7,64.6,30.09,SSW,207,2.2,3.1,64,0.00,,---,0.00,VWS V14.01,2013-08-25 09:04:00,
2013-08-25 04:05:00,77.7,64.6,30.09,West,274,0.0,3.6,64,0.00,,---,0.00,VWS V14.01,2013-08-25 09:05:00,
2013-08-25 04:06:00,77.7,64.6,30.09,West,274,0.0,0.0,64,0.00,,---,0.00,VWS V14.01,2013-08-25 09:06:00,
2013-08-25 04:07:00,77.7,64.6,30.09,West,274,0.0,0.0,64,0.00,,---,0.00,VWS V14.01,2013-08-25 09:07:00,
2013-08-25 04:08:00,77.7,64.6,30.09,West,274,0.0,0.0,64,0.00,,---,0.00,VWS V14.01,2013-08-25 09:08:00,
2013-08-25 04:09:00,77.7,64.6,30.09,West,274,0.0,0.0,64,0.00,,---,0.00,VWS V14.01,2013-08-25 09:09:00,
2013-08-25 04:10:00,77.7,64.6,30.09,West,274,0.0,0.0,64,0.00,,---,0.00,VWS V14.01,2013-08-25 09:10:00,
2013-08-25 04:11:00,77.7,64.6,30.09,West,276,0.0,0.0,64,0.00,,---,0.00,VWS V14.01,2013-08-25 09:11:00,
2013-08-25 04:12:00,77.9,64.8,30.09,West,276,0.0,0.0,64,0.00,,---,0.00,VWS V14.01,2013-08-25 09:12:00,
2013-08-25 04:13:00,77.9,64.8,30.09,West,276,0.0,0.0,64,0.00,,---,0.00,VWS V14.01,2013-08-25 09:13:00,
2013-08-25 04:14:00,77.7,64.6,30.09,SSW,203,0.0,3.1,64,0.00,,---,0.00,VWS V14.01,2013-08-25 09:14:00,
2013-08-25 04:15:00,77.7,64.6,30.09,SSW,203,0.0,0.0,64,0.00,,---,0.00,VWS V14.01,2013-08-25 09:15:00,
2013-08-25 04:16:00,77.7,64.6,30.09,South,187,0.0,2.7,64,0.00,,---,0.00,VWS V14.01,2013-08-25 09:16:00,
2013-08-25 04:17:00,77.7,64.6,30.09,South,187,0.0,2.7,64,0.00,,---,0.00,VWS V14.01,2013-08-25 09:17:00,
2013-08-25 04:18:00,77.9,64.8,30.09,South,188,0.0,0.0,64,0.00,,---,0.00,VWS V14.01,2013-08-25 09:18:00,
2013-08-25 04:19:00,77.7,64.6,30.09,South,188,0.0,0.0,64,0.00,,---,0.00,VWS V14.01,2013-08-25 09:19:00,
2013-08-25 04:20:00,77.9,64.8,30.09,South,188,0.0,0.0,64,0.00,,---,0.00,VWS V14.01,2013-08-25 09:20:00,
2013-08-25 04:21:00,77.9,64.8,30.09,SE,145,0.0,0.0,64,0.00,,---,0.00,VWS V14.01,2013-08-25 09:21:00,
2013-08-25 04:22:00,77.9,64.8,30.09,SW,225,0.0,0.0,64,0.00,,---,0.00,VWS V14.01,2013-08-25 09:22:00,
2013-08-25 04:23:00,77.9,64.8,30.09,West,268,0.0,0.0,64,0.00,,---,0.00,VWS V14.01,2013-08-25 09:23:00,
2013-08-25 04:24:00,77.9,64.8,30.09,West,268,0.0,0.0,64,0.00,,---,0.00,VWS V14.01,2013-08-25 09:24:00,
2013-08-25 04:25:00,77.9,64.8,30.09,WNW,289,0.0,0.0,64,0.00,,---,0.00,VWS V14.01,2013-08-25 09:25:00,
2013-08-25 04:26:00,77.9,64.8,30.09,SSW,193,3.1,3.6,64,0.00,,---,0.00,VWS V14.01,2013-08-25 09:26:00,
2013-08-25 04:27:00,77.9,65.2,30.09,South,187,3.1,3.6,65,0.00,,---,0.00,VWS V14.01,2013-08-25 09:27:00,
2013-08-25 04:28:00,77.9,65.2,30.09,ENE,75,3.1,3.6,65,0.00,,---,0.00,VWS V14.01,2013-08-25 09:28:00,
2013-08-25 04:29:00,77.7,65.0,30.09,SSW,194,2.2,3.1,65,0.00,,---,0.00,VWS V14.01,2013-08-25 09:29:00,
2013-08-25 04:30:00,77.7,65.0,30.09,SSW,207,3.6,4.0,65,0.00,,---,0.00,VWS V14.01,2013-08-25 09:30:00,
2013-08-25 04:31:00,77.5,64.9,30.09,SSE,150,0.0,2.2,65,0.00,,---,0.00,VWS V14.01,2013-08-25 09:31:00,
2013-08-25 04:32:00,77.5,64.9,30.09,SSE,150,0.0,2.2,65,0.00,,---,0.00,VWS V14.01,2013-08-25 09:32:00,
2013-08-25 04:33:00,77.5,65.3,30.09,SW,236,5.8,5.8,66,0.00,,---,0.00,VWS V14.01,2013-08-25 09:33:00,
2013-08-25 04:34:00,77.5,65.3,30.09,SSE,160,0.0,5.8,66,0.00,,---,0.00,VWS V14.01,2013-08-25 09:34:00,
2013-08-25 04:35:00,77.4,65.1,30.09,South,185,0.0,0.0,66,0.00,,---,0.00,VWS V14.01,2013-08-25 09:35:00,
2013-08-25 04:36:00,77.4,65.1,30.09,WSW,251,0.0,2.7,66,0.00,,---,0.00,VWS V14.01,2013-08-25 09:36:00,
2013-08-25 04:37:00,77.4,65.1,30.09,WSW,251,0.0,2.7,66,0.00,,---,0.00,VWS V14.01,2013-08-25 09:37:00,
2013-08-25 04:38:00,77.4,65.6,30.09,WSW,251,0.0,0.0,67,0.00,,---,0.00,VWS V14.01,2013-08-25 09:38:00,
2013-08-25 04:39:00,77.4,65.6,30.09,West,261,0.0,2.2,67,0.00,,---,0.00,VWS V14.01,2013-08-25 09:39:00,
2013-08-25 04:40:00,77.4,65.6,30.09,WSW,251,0.0,2.2,67,0.00,,---,0.00,VWS V14.01,2013-08-25 09:40:00,
2013-08-25 04:41:00,77.2,65.4,30.09,WSW,251,0.0,0.0,67,0.00,,---,0.00,VWS V14.01,2013-08-25 09:41:00,
2013-08-25 04:42:00,77.2,65.4,30.09,WSW,251,0.0,0.0,67,0.00,,---,0.00,VWS V14.01,2013-08-25 09:42:00,
2013-08-25 04:43:00,77.2,65.4,30.09,SW,235,3.1,3.1,67,0.00,,---,0.00,VWS V14.01,2013-08-25 09:43:00,
2013-08-25 04:44:00,77.2,65.8,30.09,South,169,3.6,3.6,68,0.00,,---,0.00,VWS V14.01,2013-08-25 09:44:00,
2013-08-25 04:45:00,77.2,65.8,30.09,NW,324,3.6,3.6,68,0.00,,---,0.00,VWS V14.01,2013-08-25 09:45:00,
2013-08-25 04:46:00,77.0,65.6,30.09,NW,324,0.0,0.0,68,0.00,,---,0.00,VWS V14.01,2013-08-25 09:46:00,
2013-08-25 04:47:00,77.0,65.6,30.09,NW,324,0.0,0.0,68,0.00,,---,0.00,VWS V14.01,2013-08-25 09:47:00,
2013-08-25 04:48:00,77.2,65.8,30.09,NW,324,0.0,0.0,68,0.00,,---,0.00,VWS V14.01,2013-08-25 09:48:00,
2013-08-25 04:49:00,77.2,65.8,30.12,NW,324,0.0,0.0,68,0.00,,---,0.00,VWS V14.01,2013-08-25 09:49:00,
2013-08-25 04:50:00,77.2,65.8,30.12,NW,324,0.0,0.0,68,0.00,,---,0.00,VWS V14.01,2013-08-25 09:50:00,
2013-08-25 04:51:00,77.2,65.8,30.12,SW,219,0.0,0.0,68,0.00,,---,0.00,VWS V14.01,2013-08-25 09:51:00,
2013-08-25 04:52:00,77.2,65.8,30.12,SW,219,0.0,0.0,68,0.00,,---,0.00,VWS V14.01,2013-08-25 09:52:00,
2013-08-25 04:53:00,77.0,65.6,30.12,SW,219,0.0,0.0,68,0.00,,---,0.00,VWS V14.01,2013-08-25 09:53:00,
2013-08-25 04:54:00,77.2,65.8,30.12,SW,226,2.7,2.7,68,0.00,,---,0.00,VWS V14.01,2013-08-25 09:54:00,
2013-08-25 04:55:00,77.0,65.6,30.12,SW,226,0.0,2.7,68,0.00,,---,0.00,VWS V14.01,2013-08-25 09:55:00,
2013-08-25 04:56:00,77.0,65.6,30.12,WNW,296,0.0,0.0,68,0.00,,---,0.00,VWS V14.01,2013-08-25 09:56:00,
2013-08-25 04:57:00,77.0,66.1,30.12,WNW,296,0.0,0.0,69,0.00,,---,0.00,VWS V14.01,2013-08-25 09:57:00,
2013-08-25 04:58:00,77.0,66.1,30.12,WSW,243,2.7,2.7,69,0.00,,---,0.00,VWS V14.01,2013-08-25 09:58:00,
2013-08-25 04:59:00,77.0,66.1,30.12,WSW,242,0.0,2.7,69,0.00,,---,0.00,VWS V14.01,2013-08-25 09:59:00,
2013-08-25 05:00:00,77.0,66.1,30.12,WSW,243,0.0,0.0,69,0.00,,---,0.00,VWS V14.01,2013-08-25 10:00:00,
2013-08-25 05:01:00,77.0,66.1,30.12,SE,124,0.0,0.0,69,0.00,,---,0.00,VWS V14.01,2013-08-25 10:01:00,
2013-08-25 05:02:00,77.0,66.1,30.12,SE,124,0.0,0.0,69,0.00,,---,0.00,VWS V14.01,2013-08-25 10:02:00,
2013-08-25 05:03:00,77.0,66.1,30.12,SE,124,0.0,0.0,69,0.00,,---,0.00,VWS V14.01,2013-08-25 10:03:00,
2013-08-25 05:04:00,77.0,66.1,30.12,SE,124,0.0,0.0,69,0.00,,---,0.00,VWS V14.01,2013-08-25 10:04:00,
2013-08-25 05:05:00,77.0,66.1,30.12,SE,129,0.0,0.0,69,0.00,,---,0.00,VWS V14.01,2013-08-25 10:05:00,
2013-08-25 05:06:00,77.0,66.1,30.12,SE,129,0.0,0.0,69,0.00,,---,0.00,VWS V14.01,2013-08-25 10:06:00,
2013-08-25 05:07:00,77.0,66.1,30.12,SE,129,0.0,0.0,69,0.00,,---,0.00,VWS V14.01,2013-08-25 10:07:00,
2013-08-25 05:08:00,77.0,66.1,30.12,SE,129,0.0,0.0,69,0.00,,---,0.00,VWS V14.01,2013-08-25 10:08:00,
2013-08-25 05:09:00,77.0,66.1,30.12,West,263,0.0,0.0,69,0.00,,---,0.00,VWS V14.01,2013-08-25 10:09:00,
2013-08-25 05:10:00,77.0,66.1,30.12,West,263,0.0,0.0,69,0.00,,---,0.00,VWS V14.01,2013-08-25 10:10:00,
2013-08-25 05:11:00,76.8,65.9,30.12,West,263,0.0,0.0,69,0.00,,---,0.00,VWS V14.01,2013-08-25 10:11:00,
2013-08-25 05:12:00,76.8,65.9,30.12,West,263,0.0,0.0,69,0.00,,---,0.00,VWS V14.01,2013-08-25 10:12:00,
2013-08-25 05:13:00,76.8,65.9,30.12,West,263,0.0,0.0,69,0.00,,---,0.00,VWS V14.01,2013-08-25 10:13:00,
2013-08-25 05:14:00,76.8,65.9,30.12,West,263,0.0,0.0,69,0.00,,---,0.00,VWS V14.01,2013-08-25 10:14:00,
2013-08-25 05:15:00,76.8,65.9,30.12,West,263,0.0,0.0,69,0.00,,---,0.00,VWS V14.01,2013-08-25 10:15:00,
2013-08-25 05:16:00,76.8,65.9,30.12,West,263,0.0,0.0,69,0.00,,---,0.00,VWS V14.01,2013-08-25 10:16:00,
2013-08-25 05:17:00,76.8,65.9,30.12,West,263,0.0,0.0,69,0.00,,---,0.00,VWS V14.01,2013-08-25 10:17:00,
2013-08-25 05:18:00,76.8,65.9,30.12,West,263,0.0,0.0,69,0.00,,---,0.00,VWS V14.01,2013-08-25 10:18:00,
2013-08-25 05:19:00,76.8,65.9,30.12,West,264,0.0,0.0,69,0.00,,---,0.00,VWS V14.01,2013-08-25 10:19:00,
2013-08-25 05:20:00,76.8,65.9,30.09,North,357,0.0,2.7,69,0.00,,---,0.00,VWS V14.01,2013-08-25 10:20:00,
2013-08-25 05:21:00,76.8,65.9,30.09,NNW,341,0.0,0.0,69,0.00,,---,0.00,VWS V14.01,2013-08-25 10:21:00,
2013-08-25 05:22:00,76.8,65.9,30.09,NNW,341,0.0,0.0,69,0.00,,---,0.00,VWS V14.01,2013-08-25 10:22:00,
2013-08-25 05:23:00,76.8,65.9,30.09,NNW,341,0.0,0.0,69,0.00,,---,0.00,VWS V14.01,2013-08-25 10:23:00,
2013-08-25 05:24:00,76.8,65.9,30.09,WSW,253,0.0,0.0,69,0.00,,---,0.00,VWS V14.01,2013-08-25 10:24:00,
2013-08-25 05:25:00,76.8,65.9,30.09,WSW,253,0.0,0.0,69,0.00,,---,0.00,VWS V14.01,2013-08-25 10:25:00,
2013-08-25 05:26:00,76.8,65.9,30.09,WSW,253,0.0,0.0,69,0.00,,---,0.00,VWS V14.01,2013-08-25 10:26:00,
2013-08-25 05:27:00,76.8,65.9,30.09,WSW,253,0.0,0.0,69,0.00,,---,0.00,VWS V14.01,2013-08-25 10:27:00,
2013-08-25 05:28:00,76.8,65.9,30.09,WSW,253,0.0,0.0,69,0.00,,---,0.00,VWS V14.01,2013-08-25 10:28:00,
2013-08-25 05:29:00,76.8,65.9,30.09,WSW,253,0.0,0.0,69,0.00,,---,0.00,VWS V14.01,2013-08-25 10:29:00,
2013-08-25 05:30:00,76.8,65.9,30.09,WSW,253,0.0,0.0,69,0.00,,---,0.00,VWS V14.01,2013-08-25 10:30:00,
2013-08-25 05:31:00,76.8,65.9,30.09,WSW,253,0.0,0.0,69,0.00,,---,0.00,VWS V14.01,2013-08-25 10:31:00,
2013-08-25 05:32:00,76.8,65.9,30.09,WSW,253,0.0,0.0,69,0.00,,---,0.00,VWS V14.01,2013-08-25 10:32:00,
2013-08-25 05:33:00,76.8,65.9,30.09,WSW,253,0.0,0.0,69,0.00,,---,0.00,VWS V14.01,2013-08-25 10:33:00,
2013-08-25 05:34:00,76.8,65.9,30.12,WSW,253,0.0,0.0,69,0.00,,---,0.00,VWS V14.01,2013-08-25 10:34:00,
2013-08-25 05:35:00,76.8,65.9,30.12,WSW,253,0.0,0.0,69,0.00,,---,0.00,VWS V14.01,2013-08-25 10:35:00,
2013-08-25 05:36:00,76.8,65.9,30.12,WSW,253,0.0,0.0,69,0.00,,---,0.00,VWS V14.01,2013-08-25 10:36:00,
2013-08-25 05:37:00,76.8,65.9,30.12,WSW,253,0.0,0.0,69,0.00,,---,0.00,VWS V14.01,2013-08-25 10:37:00,
2013-08-25 05:38:00,76.8,65.9,30.12,WSW,253,0.0,0.0,69,0.00,,---,0.00,VWS V14.01,2013-08-25 10:38:00,
2013-08-25 05:39:00,76.8,65.9,30.12,WSW,253,0.0,0.0,69,0.00,,---,0.00,VWS V14.01,2013-08-25 10:39:00,
2013-08-25 05:40:00,76.8,65.9,30.12,WSW,253,0.0,0.0,69,0.00,,---,0.00,VWS V14.01,2013-08-25 10:40:00,
2013-08-25 05:41:00,76.8,65.9,30.12,WSW,253,0.0,0.0,69,0.00,,---,0.00,VWS V14.01,2013-08-25 10:41:00,
2013-08-25 05:42:00,76.8,65.9,30.12,WSW,253,0.0,0.0,69,0.00,,---,0.00,VWS V14.01,2013-08-25 10:42:00,
2013-08-25 05:43:00,76.8,65.9,30.12,WSW,253,0.0,0.0,69,0.00,,---,0.00,VWS V14.01,2013-08-25 10:43:00,
2013-08-25 05:44:00,76.8,65.9,30.12,WSW,253,0.0,0.0,69,0.00,,---,0.00,VWS V14.01,2013-08-25 10:44:00,
2013-08-25 05:45:00,76.8,65.9,30.12,WSW,253,0.0,0.0,69,0.00,,---,0.00,VWS V14.01,2013-08-25 10:45:00,
2013-08-25 05:46:00,76.8,66.3,30.12,WSW,253,0.0,0.0,70,0.00,,---,0.00,VWS V14.01,2013-08-25 10:46:00,
2013-08-25 05:47:00,76.8,66.3,30.12,WSW,253,0.0,0.0,70,0.00,,---,0.00,VWS V14.01,2013-08-25 10:47:00,
2013-08-25 05:48:00,76.8,66.3,30.12,WSW,253,0.0,0.0,70,0.00,,---,0.00,VWS V14.01,2013-08-25 10:48:00,
2013-08-25 05:49:00,76.8,65.9,30.12,WSW,253,0.0,0.0,69,0.00,,---,0.00,VWS V14.01,2013-08-25 10:49:00,
2013-08-25 05:50:00,76.8,65.9,30.12,WSW,253,0.0,0.0,69,0.00,,---,0.00,VWS V14.01,2013-08-25 10:50:00,
2013-08-25 05:51:00,76.8,65.9,30.12,WSW,253,0.0,0.0,69,0.00,,---,0.00,VWS V14.01,2013-08-25 10:51:00,
2013-08-25 05:52:00,76.8,65.9,30.12,WSW,253,0.0,0.0,69,0.00,,---,0.00,VWS V14.01,2013-08-25 10:52:00,
2013-08-25 05:53:00,76.6,65.7,30.12,WSW,253,0.0,0.0,69,0.00,,---,0.00,VWS V14.01,2013-08-25 10:53:00,
2013-08-25 05:54:00,76.6,65.7,30.12,WSW,253,0.0,0.0,69,0.00,,---,0.00,VWS V14.01,2013-08-25 10:54:00,
2013-08-25 05:55:00,76.6,65.7,30.12,WSW,253,0.0,0.0,69,0.00,,---,0.00,VWS V14.01,2013-08-25 10:55:00,
2013-08-25 05:56:00,76.6,66.1,30.12,WSW,253,0.0,0.0,70,0.00,,---,0.00,VWS V14.01,2013-08-25 10:56:00,
2013-08-25 05:57:00,76.6,66.1,30.12,WSW,253,0.0,0.0,70,0.00,,---,0.00,VWS V14.01,2013-08-25 10:57:00,
2013-08-25 05:58:00,76.6,66.1,30.12,WSW,253,0.0,0.0,70,0.00,,---,0.00,VWS V14.01,2013-08-25 10:58:00,
2013-08-25 05:59:00,76.6,66.1,30.12,WSW,253,0.0,0.0,70,0.00,,---,0.00,VWS V14.01,2013-08-25 10:59:00,
2013-08-25 06:00:00,76.6,66.1,30.12,WSW,253,0.0,0.0,70,0.00,,---,0.00,VWS V14.01,2013-08-25 11:00:00,
2013-08-25 06:01:00,76.6,66.1,30.12,WSW,253,0.0,0.0,70,0.00,,---,0.00,VWS V14.01,2013-08-25 11:01:00,
2013-08-25 06:02:00,76.6,66.1,30.12,WSW,253,0.0,0.0,70,0.00,,---,0.00,VWS V14.01,2013-08-25 11:02:00,
2013-08-25 06:03:00,76.6,66.1,30.12,WSW,253,0.0,0.0,70,0.00,,---,0.00,VWS V14.01,2013-08-25 11:03:00,
2013-08-25 06:04:00,76.6,66.1,30.12,WSW,253,0.0,0.0,70,0.00,,---,0.00,VWS V14.01,2013-08-25 11:04:00,
2013-08-25 06:05:00,76.6,66.1,30.12,WSW,253,0.0,0.0,70,0.00,,---,0.00,VWS V14.01,2013-08-25 11:05:00,
2013-08-25 06:06:00,76.6,66.1,30.12,WSW,253,0.0,0.0,70,0.00,,---,0.00,VWS V14.01,2013-08-25 11:06:00,
2013-08-25 06:07:00,76.6,66.1,30.12,WSW,253,0.0,0.0,70,0.00,,---,0.00,VWS V14.01,2013-08-25 11:07:00,
2013-08-25 06:08:00,76.6,66.1,30.12,WSW,253,0.0,0.0,70,0.00,,---,0.00,VWS V14.01,2013-08-25 11:08:00,
2013-08-25 06:09:00,76.6,66.1,30.12,WSW,253,0.0,0.0,70,0.00,,---,0.00,VWS V14.01,2013-08-25 11:09:00,
2013-08-25 06:10:00,76.6,66.1,30.12,WSW,253,0.0,0.0,70,0.00,,---,0.00,VWS V14.01,2013-08-25 11:10:00,
2013-08-25 06:11:00,76.6,66.1,30.12,WSW,253,0.0,0.0,70,0.00,,---,0.00,VWS V14.01,2013-08-25 11:11:00,
2013-08-25 06:12:00,76.6,66.1,30.12,WSW,253,0.0,0.0,70,0.00,,---,0.00,VWS V14.01,2013-08-25 11:12:00,
2013-08-25 06:13:00,76.6,66.1,30.12,WSW,253,0.0,0.0,70,0.00,,---,0.00,VWS V14.01,2013-08-25 11:13:00,
2013-08-25 06:14:00,76.6,66.1,30.12,WSW,253,0.0,0.0,70,0.00,,---,0.00,VWS V14.01,2013-08-25 11:14:00,
2013-08-25 06:15:00,76.6,66.1,30.12,WSW,253,0.0,0.0,70,0.00,,---,0.00,VWS V14.01,2013-08-25 11:15:00,
2013-08-25 06:16:00,76.6,66.1,30.12,WSW,253,0.0,0.0,70,0.00,,---,0.00,VWS V14.01,2013-08-25 11:16:00,
2013-08-25 06:17:00,76.6,66.1,30.12,WSW,253,0.0,0.0,70,0.00,,---,0.00,VWS V14.01,2013-08-25 11:17:00,
2013-08-25 06:18:00,76.6,66.1,30.12,WSW,253,0.0,0.0,70,0.00,,---,0.00,VWS V14.01,2013-08-25 11:18:00,
2013-08-25 06:19:00,76.6,66.1,30.12,WSW,253,0.0,0.0,70,0.00,,---,0.00,VWS V14.01,2013-08-25 11:19:00,
2013-08-25 06:20:00,76.6,66.1,30.12,WSW,253,0.0,0.0,70,0.00,,---,0.00,VWS V14.01,2013-08-25 11:20:00,
2013-08-25 06:21:00,76.6,66.1,30.12,WSW,253,0.0,0.0,70,0.00,,---,0.00,VWS V14.01,2013-08-25 11:21:00,
2013-08-25 06:22:00,76.6,66.1,30.12,WSW,253,0.0,0.0,70,0.00,,---,0.00,VWS V14.01,2013-08-25 11:22:00,
2013-08-25 06:23:00,76.6,66.1,30.12,WSW,253,0.0,0.0,70,0.00,,---,0.00,VWS V14.01,2013-08-25 11:23:00,
2013-08-25 06:24:00,76.6,66.1,30.12,WSW,253,0.0,0.0,70,0.00,,---,0.00,VWS V14.01,2013-08-25 11:24:00,
2013-08-25 06:25:00,76.6,66.1,30.12,WSW,253,0.0,0.0,70,0.00,,---,0.00,VWS V14.01,2013-08-25 11:25:00,
2013-08-25 06:26:00,76.6,66.1,30.12,WSW,253,0.0,0.0,70,0.00,,---,0.00,VWS V14.01,2013-08-25 11:26:00,
2013-08-25 06:27:00,76.6,66.1,30.12,WSW,253,0.0,0.0,70,0.00,,---,0.00,VWS V14.01,2013-08-25 11:27:00,
2013-08-25 06:28:00,76.6,66.1,30.12,WSW,253,0.0,0.0,70,0.00,,---,0.00,VWS V14.01,2013-08-25 11:28:00,
2013-08-25 06:29:00,76.6,66.1,30.12,WSW,253,0.0,0.0,70,0.00,,---,0.00,VWS V14.01,2013-08-25 11:29:00,
2013-08-25 06:30:00,76.8,66.3,30.12,WSW,253,0.0,0.0,70,0.00,,---,0.00,VWS V14.01,2013-08-25 11:30:00,
2013-08-25 06:31:00,76.6,66.1,30.12,WSW,253,0.0,0.0,70,0.00,,---,0.00,VWS V14.01,2013-08-25 11:31:00,
2013-08-25 06:32:00,76.6,66.1,30.12,WSW,253,0.0,0.0,70,0.00,,---,0.00,VWS V14.01,2013-08-25 11:32:00,
2013-08-25 06:33:00,76.8,66.3,30.12,WSW,253,0.0,0.0,70,0.00,,---,0.00,VWS V14.01,2013-08-25 11:33:00,
2013-08-25 06:34:00,76.6,65.7,30.12,WSW,253,0.0,0.0,69,0.00,,---,0.00,VWS V14.01,2013-08-25 11:34:00,
2013-08-25 06:35:00,76.6,65.7,30.12,WSW,253,0.0,0.0,69,0.00,,---,0.00,VWS V14.01,2013-08-25 11:35:00,
2013-08-25 06:36:00,76.6,65.7,30.12,WSW,253,0.0,0.0,69,0.00,,---,0.00,VWS V14.01,2013-08-25 11:36:00,
2013-08-25 06:37:00,76.6,65.7,30.12,WSW,253,0.0,0.0,69,0.00,,---,0.00,VWS V14.01,2013-08-25 11:37:00,
2013-08-25 06:38:00,76.6,65.7,30.12,WSW,253,0.0,0.0,69,0.00,,---,0.00,VWS V14.01,2013-08-25 11:38:00,
2013-08-25 06:39:00,76.6,65.7,30.12,WSW,253,0.0,0.0,69,0.00,,---,0.00,VWS V14.01,2013-08-25 11:39:00,
2013-08-25 06:40:00,76.6,65.7,30.12,WSW,253,0.0,0.0,69,0.00,,---,0.00,VWS V14.01,2013-08-25 11:40:00,
2013-08-25 06:41:00,76.6,65.7,30.12,WSW,253,0.0,0.0,69,0.00,,---,0.00,VWS V14.01,2013-08-25 11:41:00,
2013-08-25 06:42:00,76.6,65.7,30.12,WSW,253,0.0,0.0,69,0.00,,---,0.00,VWS V14.01,2013-08-25 11:42:00,
2013-08-25 06:43:00,76.6,65.7,30.12,WSW,253,0.0,0.0,69,0.00,,---,0.00,VWS V14.01,2013-08-25 11:43:00,
2013-08-25 06:44:00,76.6,65.7,30.12,WSW,253,0.0,0.0,69,0.00,,---,0.00,VWS V14.01,2013-08-25 11:44:00,
2013-08-25 06:45:00,76.6,65.7,30.12,WSW,253,0.0,0.0,69,0.00,,---,0.00,VWS V14.01,2013-08-25 11:45:00,
2013-08-25 06:46:00,76.6,65.7,30.12,WSW,253,0.0,0.0,69,0.00,,---,0.00,VWS V14.01,2013-08-25 11:46:00,
2013-08-25 06:47:00,76.6,65.7,30.12,WSW,253,0.0,0.0,69,0.00,,---,0.00,VWS V14.01,2013-08-25 11:47:00,
2013-08-25 06:48:00,76.6,65.7,30.12,WSW,253,0.0,0.0,69,0.00,,---,0.00,VWS V14.01,2013-08-25 11:48:00,
2013-08-25 06:49:00,76.6,65.7,30.12,WSW,253,0.0,0.0,69,0.00,,---,0.00,VWS V14.01,2013-08-25 11:49:00,
2013-08-25 06:50:00,76.6,65.7,30.12,WSW,253,0.0,0.0,69,0.00,,---,0.00,VWS V14.01,2013-08-25 11:50:00,
2013-08-25 06:51:00,76.6,65.7,30.12,WSW,253,0.0,0.0,69,0.00,,---,0.00,VWS V14.01,2013-08-25 11:51:00,
2013-08-25 06:52:00,76.6,65.7,30.12,WSW,253,0.0,0.0,69,0.00,,---,0.00,VWS V14.01,2013-08-25 11:52:00,
2013-08-25 06:53:00,76.6,65.7,30.12,WSW,253,0.0,0.0,69,0.00,,---,0.00,VWS V14.01,2013-08-25 11:53:00,
2013-08-25 06:54:00,76.6,65.7,30.12,WSW,253,0.0,0.0,69,0.00,,---,0.00,VWS V14.01,2013-08-25 11:54:00,
2013-08-25 06:55:00,76.6,65.7,30.12,WSW,253,0.0,0.0,69,0.00,,---,0.00,VWS V14.01,2013-08-25 11:55:00,
2013-08-25 06:56:00,76.6,65.7,30.12,WSW,253,0.0,0.0,69,0.00,,---,0.00,VWS V14.01,2013-08-25 11:56:00,
2013-08-25 06:57:00,76.6,65.7,30.12,WSW,253,0.0,0.0,69,0.00,,---,0.00,VWS V14.01,2013-08-25 11:57:00,
2013-08-25 06:58:00,76.6,65.7,30.12,WSW,253,0.0,0.0,69,0.00,,---,0.00,VWS V14.01,2013-08-25 11:58:00,
2013-08-25 06:59:00,76.6,65.7,30.12,WSW,253,0.0,0.0,69,0.00,,---,0.00,VWS V14.01,2013-08-25 11:59:00,
2013-08-25 07:00:00,76.6,65.7,30.12,WSW,253,0.0,0.0,69,0.00,,---,0.00,VWS V14.01,2013-08-25 12:00:00,
2013-08-25 07:01:00,76.6,65.7,30.12,WSW,253,0.0,0.0,69,0.00,,---,0.00,VWS V14.01,2013-08-25 12:01:00,
2013-08-25 07:02:00,76.6,65.7,30.12,WSW,253,0.0,0.0,69,0.00,,---,0.00,VWS V14.01,2013-08-25 12:02:00,
2013-08-25 07:03:00,76.8,65.9,30.12,WSW,253,0.0,0.0,69,0.00,,---,0.00,VWS V14.01,2013-08-25 12:03:00,
2013-08-25 07:04:00,76.8,65.9,30.12,WSW,253,0.0,0.0,69,0.00,,---,0.00,VWS V14.01,2013-08-25 12:04:00,
2013-08-25 07:05:00,76.8,65.9,30.12,WSW,253,0.0,0.0,69,0.00,,---,0.00,VWS V14.01,2013-08-25 12:05:00,
2013-08-25 07:06:00,76.8,65.9,30.12,WSW,253,0.0,0.0,69,0.00,,---,0.00,VWS V14.01,2013-08-25 12:06:00,
2013-08-25 07:07:00,76.8,65.9,30.12,WSW,253,0.0,0.0,69,0.00,,---,0.00,VWS V14.01,2013-08-25 12:07:00,
2013-08-25 07:08:00,76.8,65.9,30.12,WSW,253,0.0,0.0,69,0.00,,---,0.00,VWS V14.01,2013-08-25 12:08:00,
2013-08-25 07:09:00,76.8,65.9,30.12,WSW,253,0.0,0.0,69,0.00,,---,0.00,VWS V14.01,2013-08-25 12:09:00,
2013-08-25 07:10:00,76.8,65.9,30.12,WSW,253,0.0,0.0,69,0.00,,---,0.00,VWS V14.01,2013-08-25 12:10:00,
2013-08-25 07:11:00,76.8,65.9,30.12,WSW,253,0.0,0.0,69,0.00,,---,0.00,VWS V14.01,2013-08-25 12:11:00,
2013-08-25 07:12:00,76.8,65.9,30.12,WSW,253,0.0,0.0,69,0.00,,---,0.00,VWS V14.01,2013-08-25 12:12:00,
2013-08-25 07:13:00,76.8,65.9,30.12,NNW,331,0.0,0.0,69,0.00,,---,0.00,VWS V14.01,2013-08-25 12:13:00,
2013-08-25 07:14:00,77.0,66.1,30.12,NNW,331,0.0,0.0,69,0.00,,---,0.00,VWS V14.01,2013-08-25 12:14:00,
2013-08-25 07:15:00,77.0,66.1,30.12,NNW,331,0.0,0.0,69,0.00,,---,0.00,VWS V14.01,2013-08-25 12:15:00,
2013-08-25 07:16:00,77.0,66.1,30.12,NNW,331,0.0,0.0,69,0.00,,---,0.00,VWS V14.01,2013-08-25 12:16:00,
2013-08-25 07:17:00,77.0,66.1,30.12,NNW,331,0.0,0.0,69,0.00,,---,0.00,VWS V14.01,2013-08-25 12:17:00,
2013-08-25 07:18:00,77.0,66.1,30.12,NNW,331,0.0,0.0,69,0.00,,---,0.00,VWS V14.01,2013-08-25 12:18:00,
2013-08-25 07:19:00,77.0,66.1,30.12,NNW,331,0.0,0.0,69,0.00,,---,0.00,VWS V14.01,2013-08-25 12:19:00,
2013-08-25 07:20:00,77.0,66.1,30.12,NNW,331,0.0,0.0,69,0.00,,---,0.00,VWS V14.01,2013-08-25 12:20:00,
2013-08-25 07:21:00,77.0,66.1,30.12,NNW,331,0.0,0.0,69,0.00,,---,0.00,VWS V14.01,2013-08-25 12:21:00,
2013-08-25 07:22:00,77.0,66.1,30.12,NNW,331,0.0,0.0,69,0.00,,---,0.00,VWS V14.01,2013-08-25 12:22:00,
2013-08-25 07:23:00,77.0,66.1,30.12,NNW,331,0.0,0.0,69,0.00,,---,0.00,VWS V14.01,2013-08-25 12:23:00,
2013-08-25 07:24:00,77.0,66.1,30.12,NNW,331,0.0,0.0,69,0.00,,---,0.00,VWS V14.01,2013-08-25 12:24:00,
2013-08-25 07:25:00,77.2,66.2,30.12,NNW,331,0.0,0.0,69,0.00,,---,0.00,VWS V14.01,2013-08-25 12:25:00,
2013-08-25 07:26:00,77.2,66.2,30.12,NNW,331,0.0,0.0,69,0.00,,---,0.00,VWS V14.01,2013-08-25 12:26:00,
2013-08-25 07:27:00,77.2,66.2,30.12,NNW,331,0.0,0.0,69,0.00,,---,0.00,VWS V14.01,2013-08-25 12:27:00,
2013-08-25 07:28:00,77.4,66.4,30.12,NNW,331,0.0,0.0,69,0.00,,---,0.00,VWS V14.01,2013-08-25 12:28:00,
2013-08-25 07:29:00,77.4,66.4,30.12,NNW,331,0.0,0.0,69,0.00,,---,0.00,VWS V14.01,2013-08-25 12:29:00,
2013-08-25 07:30:00,77.4,66.0,30.12,NNW,331,0.0,0.0,68,0.00,,---,0.00,VWS V14.01,2013-08-25 12:30:00,
2013-08-25 07:31:00,77.5,66.2,30.12,NNW,331,0.0,0.0,68,0.00,,---,0.00,VWS V14.01,2013-08-25 12:31:00,
2013-08-25 07:32:00,77.5,66.2,30.12,NNW,331,0.0,0.0,68,0.00,,---,0.00,VWS V14.01,2013-08-25 12:32:00,
2013-08-25 07:33:00,77.7,66.3,30.12,NNW,331,0.0,0.0,68,0.00,,---,0.00,VWS V14.01,2013-08-25 12:33:00,
2013-08-25 07:34:00,77.7,66.3,30.12,NNW,331,0.0,0.0,68,0.00,,---,0.00,VWS V14.01,2013-08-25 12:34:00,
2013-08-25 07:35:00,77.7,66.3,30.12,NNW,329,0.0,0.0,68,0.00,,---,0.00,VWS V14.01,2013-08-25 12:35:00,
2013-08-25 07:36:00,77.9,66.5,30.12,NNW,329,0.0,0.0,68,0.00,,---,0.00,VWS V14.01,2013-08-25 12:36:00,
2013-08-25 07:37:00,77.9,66.5,30.12,NNW,329,0.0,0.0,68,0.00,,---,0.00,VWS V14.01,2013-08-25 12:37:00,
2013-08-25 07:38:00,77.9,66.5,30.12,NNW,329,0.0,0.0,68,0.00,,---,0.00,VWS V14.01,2013-08-25 12:38:00,
2013-08-25 07:39:00,77.9,66.5,30.12,NNW,329,0.0,0.0,68,0.00,,---,0.00,VWS V14.01,2013-08-25 12:39:00,
2013-08-25 07:40:00,77.9,66.1,30.12,NNW,329,0.0,0.0,67,0.00,,---,0.00,VWS V14.01,2013-08-25 12:40:00,
2013-08-25 07:41:00,78.1,66.2,30.12,NNW,329,0.0,0.0,67,0.00,,---,0.00,VWS V14.01,2013-08-25 12:41:00,
2013-08-25 07:42:00,78.1,66.2,30.12,NNW,329,0.0,0.0,67,0.00,,---,0.00,VWS V14.01,2013-08-25 12:42:00,
2013-08-25 07:43:00,78.1,66.2,30.12,NNW,329,0.0,0.0,67,0.00,,---,0.00,VWS V14.01,2013-08-25 12:43:00,
2013-08-25 07:44:00,78.1,66.2,30.12,NNW,329,0.0,0.0,67,0.00,,---,0.00,VWS V14.01,2013-08-25 12:44:00,
2013-08-25 07:45:00,78.1,66.2,30.12,NNW,329,0.0,0.0,67,0.00,,---,0.00,VWS V14.01,2013-08-25 12:45:00,
2013-08-25 07:46:00,78.3,66.4,30.12,NNW,329,0.0,0.0,67,0.00,,---,0.00,VWS V14.01,2013-08-25 12:46:00,
2013-08-25 07:47:00,78.3,66.4,30.12,NNW,329,0.0,0.0,67,0.00,,---,0.00,VWS V14.01,2013-08-25 12:47:00,
2013-08-25 07:48:00,78.4,66.2,30.12,NNW,329,0.0,0.0,66,0.00,,---,0.00,VWS V14.01,2013-08-25 12:48:00,
2013-08-25 07:49:00,78.4,66.2,30.12,NNW,329,0.0,0.0,66,0.00,,---,0.00,VWS V14.01,2013-08-25 12:49:00,
2013-08-25 07:50:00,78.6,66.3,30.15,NNW,330,0.0,0.0,66,0.00,,---,0.00,VWS V14.01,2013-08-25 12:50:00,
2013-08-25 07:51:00,78.6,66.3,30.15,NNW,330,0.0,0.0,66,0.00,,---,0.00,VWS V14.01,2013-08-25 12:51:00,
2013-08-25 07:52:00,78.6,66.3,30.15,East,92,0.0,0.0,66,0.00,,---,0.00,VWS V14.01,2013-08-25 12:52:00,
2013-08-25 07:53:00,78.6,66.3,30.15,NE,53,0.0,0.0,66,0.00,,---,0.00,VWS V14.01,2013-08-25 12:53:00,
2013-08-25 07:54:00,78.6,66.3,30.15,NE,53,0.0,0.0,66,0.00,,---,0.00,VWS V14.01,2013-08-25 12:54:00,
2013-08-25 07:55:00,78.6,65.9,30.15,NE,53,0.0,0.0,65,0.00,,---,0.00,VWS V14.01,2013-08-25 12:55:00,
2013-08-25 07:56:00,78.8,66.1,30.15,NE,53,0.0,0.0,65,0.00,,---,0.00,VWS V14.01,2013-08-25 12:56:00,
2013-08-25 07:57:00,78.8,66.1,30.15,NE,53,0.0,0.0,65,0.00,,---,0.00,VWS V14.01,2013-08-25 12:57:00,
2013-08-25 07:58:00,79.0,66.2,30.15,NE,53,0.0,0.0,65,0.00,,---,0.00,VWS V14.01,2013-08-25 12:58:00,
2013-08-25 07:59:00,79.2,66.4,30.15,NE,53,0.0,0.0,65,0.00,,---,0.00,VWS V14.01,2013-08-25 12:59:00,
2013-08-25 08:00:00,79.2,65.9,30.15,NE,52,0.0,0.0,64,0.00,,---,0.00,VWS V14.01,2013-08-25 13:00:00,
2013-08-25 08:01:00,79.2,65.9,30.15,NW,308,2.7,2.7,64,0.00,,---,0.00,VWS V14.01,2013-08-25 13:01:00,
2013-08-25 08:02:00,79.2,65.9,30.15,West,280,0.0,3.1,64,0.00,,---,0.00,VWS V14.01,2013-08-25 13:02:00,
2013-08-25 08:03:00,79.2,65.9,30.15,West,280,0.0,0.0,64,0.00,,---,0.00,VWS V14.01,2013-08-25 13:03:00,
2013-08-25 08:04:00,79.2,65.9,30.15,West,280,0.0,0.0,64,0.00,,---,0.00,VWS V14.01,2013-08-25 13:04:00,
2013-08-25 08:05:00,79.2,65.9,30.12,West,280,0.0,0.0,64,0.00,,---,0.00,VWS V14.01,2013-08-25 13:05:00,
2013-08-25 08:06:00,79.2,65.9,30.12,West,280,0.0,0.0,64,0.00,,---,0.00,VWS V14.01,2013-08-25 13:06:00,
2013-08-25 08:07:00,79.2,65.9,30.12,West,280,0.0,0.0,64,0.00,,---,0.00,VWS V14.01,2013-08-25 13:07:00,
2013-08-25 08:08:00,79.2,65.9,30.12,West,280,0.0,0.0,64,0.00,,---,0.00,VWS V14.01,2013-08-25 13:08:00,
2013-08-25 08:09:00,79.2,65.5,30.12,West,280,0.0,0.0,63,0.00,,---,0.00,VWS V14.01,2013-08-25 13:09:00,
2013-08-25 08:10:00,79.2,65.5,30.12,West,280,0.0,0.0,63,0.00,,---,0.00,VWS V14.01,2013-08-25 13:10:00,
2013-08-25 08:11:00,79.2,65.5,30.12,West,280,0.0,0.0,63,0.00,,---,0.00,VWS V14.01,2013-08-25 13:11:00,
2013-08-25 08:12:00,79.0,65.3,30.12,West,280,0.0,0.0,63,0.00,,---,0.00,VWS V14.01,2013-08-25 13:12:00,
2013-08-25 08:13:00,79.2,65.5,30.12,West,280,0.0,0.0,63,0.00,,---,0.00,VWS V14.01,2013-08-25 13:13:00,
2013-08-25 08:14:00,79.2,65.5,30.12,West,280,0.0,0.0,63,0.00,,---,0.00,VWS V14.01,2013-08-25 13:14:00,
2013-08-25 08:15:00,79.2,65.5,30.12,West,280,0.0,0.0,63,0.00,,---,0.00,VWS V14.01,2013-08-25 13:15:00,
2013-08-25 08:16:00,79.3,65.7,30.12,West,280,0.0,0.0,63,0.00,,---,0.00,VWS V14.01,2013-08-25 13:16:00,
2013-08-25 08:17:00,79.3,65.7,30.12,West,280,0.0,0.0,63,0.00,,---,0.00,VWS V14.01,2013-08-25 13:17:00,
2013-08-25 08:18:00,79.3,65.7,30.12,West,280,0.0,0.0,63,0.00,,---,0.00,VWS V14.01,2013-08-25 13:18:00,
2013-08-25 08:19:00,79.5,65.8,30.12,West,280,0.0,0.0,63,0.00,,---,0.00,VWS V14.01,2013-08-25 13:19:00,
2013-08-25 08:20:00,79.5,65.8,30.12,West,280,0.0,0.0,63,0.00,,---,0.00,VWS V14.01,2013-08-25 13:20:00,
2013-08-25 08:21:00,79.5,65.8,30.12,West,280,0.0,0.0,63,0.00,,---,0.00,VWS V14.01,2013-08-25 13:21:00,
2013-08-25 08:22:00,79.5,65.8,30.12,West,280,0.0,0.0,63,0.00,,---,0.00,VWS V14.01,2013-08-25 13:22:00,
2013-08-25 08:23:00,79.7,65.5,30.12,West,280,0.0,0.0,62,0.00,,---,0.00,VWS V14.01,2013-08-25 13:23:00,
2013-08-25 08:24:00,79.7,65.5,30.12,West,280,0.0,0.0,62,0.00,,---,0.00,VWS V14.01,2013-08-25 13:24:00,
2013-08-25 08:25:00,79.7,65.5,30.12,WNW,300,0.0,2.2,62,0.00,,---,0.00,VWS V14.01,2013-08-25 13:25:00,
2013-08-25 08:26:00,79.7,65.5,30.12,WNW,300,0.0,0.0,62,0.00,,---,0.00,VWS V14.01,2013-08-25 13:26:00,
2013-08-25 08:27:00,79.9,65.7,30.12,NNE,12,0.0,0.0,62,0.00,,---,0.00,VWS V14.01,2013-08-25 13:27:00,
2013-08-25 08:28:00,79.9,65.7,30.12,NNE,12,0.0,0.0,62,0.00,,---,0.00,VWS V14.01,2013-08-25 13:28:00,
2013-08-25 08:29:00,79.9,65.7,30.12,NNE,12,0.0,0.0,62,0.00,,---,0.00,VWS V14.01,2013-08-25 13:29:00,
2013-08-25 08:30:00,80.1,65.9,30.12,NE,35,0.0,0.0,62,0.00,,---,0.00,VWS V14.01,2013-08-25 13:30:00,
2013-08-25 08:31:00,80.2,66.1,30.12,NE,35,0.0,0.0,62,0.00,,---,0.00,VWS V14.01,2013-08-25 13:31:00,
2013-08-25 08:32:00,80.2,66.1,30.12,NE,35,0.0,0.0,62,0.00,,---,0.00,VWS V14.01,2013-08-25 13:32:00,
2013-08-25 08:33:00,80.4,66.2,30.12,NE,35,0.0,0.0,62,0.00,,---,0.00,VWS V14.01,2013-08-25 13:33:00,
2013-08-25 08:34:00,80.4,66.2,30.12,North,9,0.0,0.0,62,0.00,,---,0.00,VWS V14.01,2013-08-25 13:34:00,
2013-08-25 08:35:00,80.6,65.9,30.12,North,9,0.0,0.0,61,0.00,,---,0.00,VWS V14.01,2013-08-25 13:35:00,
2013-08-25 08:36:00,80.6,65.9,30.12,North,9,0.0,0.0,61,0.00,,---,0.00,VWS V14.01,2013-08-25 13:36:00,
2013-08-25 08:37:00,80.6,65.9,30.12,North,9,0.0,0.0,61,0.00,,---,0.00,VWS V14.01,2013-08-25 13:37:00,
2013-08-25 08:38:00,80.8,65.6,30.12,North,9,0.0,0.0,60,0.00,,---,0.00,VWS V14.01,2013-08-25 13:38:00,
2013-08-25 08:39:00,80.8,65.6,30.12,North,9,0.0,0.0,60,0.00,,---,0.00,VWS V14.01,2013-08-25 13:39:00,
2013-08-25 08:40:00,81.0,65.8,30.12,North,9,0.0,0.0,60,0.00,,---,0.00,VWS V14.01,2013-08-25 13:40:00,
2013-08-25 08:41:00,81.0,65.8,30.12,North,10,0.0,0.0,60,0.00,,---,0.00,VWS V14.01,2013-08-25 13:41:00,
2013-08-25 08:42:00,81.0,65.8,30.12,ENE,58,2.2,2.2,60,0.00,,---,0.00,VWS V14.01,2013-08-25 13:42:00,
2013-08-25 08:43:00,81.0,65.8,30.12,ENE,58,0.0,2.2,60,0.00,,---,0.00,VWS V14.01,2013-08-25 13:43:00,
2013-08-25 08:44:00,81.1,65.9,30.12,North,353,0.0,0.0,60,0.00,,---,0.00,VWS V14.01,2013-08-25 13:44:00,
2013-08-25 08:45:00,81.3,65.6,30.12,North,353,0.0,0.0,59,0.00,,---,0.00,VWS V14.01,2013-08-25 13:45:00,
2013-08-25 08:46:00,81.3,65.6,30.12,North,353,0.0,0.0,59,0.00,,---,0.00,VWS V14.01,2013-08-25 13:46:00,
2013-08-25 08:47:00,81.3,65.6,30.12,North,353,0.0,0.0,59,0.00,,---,0.00,VWS V14.01,2013-08-25 13:47:00,
2013-08-25 08:48:00,81.5,65.8,30.12,North,353,0.0,0.0,59,0.00,,---,0.00,VWS V14.01,2013-08-25 13:48:00,
2013-08-25 08:49:00,81.7,66.0,30.15,North,353,0.0,0.0,59,0.00,,---,0.00,VWS V14.01,2013-08-25 13:49:00,
2013-08-25 08:50:00,81.7,66.0,30.15,NNW,342,0.0,0.0,59,0.00,,---,0.00,VWS V14.01,2013-08-25 13:50:00,
2013-08-25 08:51:00,81.9,65.7,30.15,NNW,342,0.0,0.0,58,0.00,,---,0.00,VWS V14.01,2013-08-25 13:51:00,
2013-08-25 08:52:00,82.0,65.8,30.15,NNW,342,0.0,0.0,58,0.00,,---,0.00,VWS V14.01,2013-08-25 13:52:00,
2013-08-25 08:53:00,82.0,65.8,30.15,NNW,342,0.0,0.0,58,0.00,,---,0.00,VWS V14.01,2013-08-25 13:53:00,
2013-08-25 08:54:00,82.2,66.0,30.15,WSW,241,2.2,2.2,58,0.00,,---,0.00,VWS V14.01,2013-08-25 13:54:00,
2013-08-25 08:55:00,82.2,65.5,30.15,WSW,241,0.0,2.2,57,0.00,,---,0.00,VWS V14.01,2013-08-25 13:55:00,
2013-08-25 08:56:00,82.2,65.5,30.15,WSW,241,0.0,0.0,57,0.00,,---,0.00,VWS V14.01,2013-08-25 13:56:00,
2013-08-25 08:57:00,82.2,65.5,30.15,WSW,241,0.0,0.0,57,0.00,,---,0.00,VWS V14.01,2013-08-25 13:57:00,
2013-08-25 08:58:00,82.2,65.5,30.15,South,188,2.7,2.7,57,0.00,,---,0.00,VWS V14.01,2013-08-25 13:58:00,
2013-08-25 08:59:00,82.2,65.0,30.15,South,188,0.0,2.7,56,0.00,,---,0.00,VWS V14.01,2013-08-25 13:59:00,
2013-08-25 09:00:00,82.4,65.1,30.15,South,188,0.0,0.0,56,0.00,,---,0.00,VWS V14.01,2013-08-25 14:00:00,
2013-08-25 09:01:00,82.6,65.3,30.15,South,188,0.0,0.0,56,0.00,,---,0.00,VWS V14.01,2013-08-25 14:01:00,
2013-08-25 09:02:00,82.6,65.3,30.15,South,188,0.0,0.0,56,0.00,,---,0.00,VWS V14.01,2013-08-25 14:02:00,
2013-08-25 09:03:00,82.6,65.3,30.15,South,188,0.0,0.0,56,0.00,,---,0.00,VWS V14.01,2013-08-25 14:03:00,
2013-08-25 09:04:00,82.6,65.3,30.15,South,188,0.0,0.0,56,0.00,,---,0.00,VWS V14.01,2013-08-25 14:04:00,
2013-08-25 09:05:00,82.6,64.8,30.15,South,188,0.0,0.0,55,0.00,,---,0.00,VWS V14.01,2013-08-25 14:05:00,
2013-08-25 09:06:00,82.8,65.0,30.15,West,263,0.0,0.0,55,0.00,,---,0.00,VWS V14.01,2013-08-25 14:06:00,
2013-08-25 09:07:00,82.9,65.1,30.15,West,263,0.0,0.0,55,0.00,,---,0.00,VWS V14.01,2013-08-25 14:07:00,
2013-08-25 09:08:00,82.9,65.1,30.15,West,263,0.0,0.0,55,0.00,,---,0.00,VWS V14.01,2013-08-25 14:08:00,
2013-08-25 09:09:00,82.9,65.1,30.15,WSW,250,0.0,3.6,55,0.00,,---,0.00,VWS V14.01,2013-08-25 14:09:00,
2013-08-25 09:10:00,82.9,64.6,30.15,WSW,250,0.0,0.0,54,0.00,,---,0.00,VWS V14.01,2013-08-25 14:10:00,
2013-08-25 09:11:00,82.9,64.6,30.15,WSW,250,0.0,0.0,54,0.00,,---,0.00,VWS V14.01,2013-08-25 14:11:00,
2013-08-25 09:12:00,82.9,64.6,30.15,WSW,250,0.0,0.0,54,0.00,,---,0.00,VWS V14.01,2013-08-25 14:12:00,
2013-08-25 09:13:00,82.9,64.6,30.15,WSW,250,0.0,0.0,54,0.00,,---,0.00,VWS V14.01,2013-08-25 14:13:00,
2013-08-25 09:14:00,82.9,64.6,30.15,WSW,250,0.0,0.0,54,0.00,,---,0.00,VWS V14.01,2013-08-25 14:14:00,
2013-08-25 09:15:00,82.9,64.6,30.15,WSW,250,0.0,0.0,54,0.00,,---,0.00,VWS V14.01,2013-08-25 14:15:00,
2013-08-25 09:16:00,82.9,64.6,30.15,WSW,250,0.0,0.0,54,0.00,,---,0.00,VWS V14.01,2013-08-25 14:16:00,
2013-08-25 09:17:00,83.1,64.8,30.15,NNW,329,0.0,0.0,54,0.00,,---,0.00,VWS V14.01,2013-08-25 14:17:00,
2013-08-25 09:18:00,83.1,64.8,30.15,NNW,330,0.0,0.0,54,0.00,,---,0.00,VWS V14.01,2013-08-25 14:18:00,
2013-08-25 09:19:00,83.1,64.8,30.15,NNW,330,0.0,0.0,54,0.00,,---,0.00,VWS V14.01,2013-08-25 14:19:00,
2013-08-25 09:20:00,82.9,64.6,30.15,NW,326,0.0,0.0,54,0.00,,---,0.00,VWS V14.01,2013-08-25 14:20:00,
2013-08-25 09:21:00,82.9,64.6,30.15,NW,326,0.0,0.0,54,0.00,,---,0.00,VWS V14.01,2013-08-25 14:21:00,
2013-08-25 09:22:00,82.9,64.6,30.15,NW,326,0.0,0.0,54,0.00,,---,0.00,VWS V14.01,2013-08-25 14:22:00,
2013-08-25 09:23:00,82.9,64.6,30.15,ENE,71,0.0,0.0,54,0.00,,---,0.00,VWS V14.01,2013-08-25 14:23:00,
2013-08-25 09:24:00,82.9,64.6,30.15,ENE,71,0.0,0.0,54,0.00,,---,0.00,VWS V14.01,2013-08-25 14:24:00,
2013-08-25 09:25:00,82.9,64.6,30.15,ENE,71,0.0,0.0,54,0.00,,---,0.00,VWS V14.01,2013-08-25 14:25:00,
2013-08-25 09:26:00,82.9,64.6,30.15,NNW,339,0.0,2.2,54,0.00,,---,0.00,VWS V14.01,2013-08-25 14:26:00,
2013-08-25 09:27:00,82.9,64.6,30.15,NNW,339,0.0,2.2,54,0.00,,---,0.00,VWS V14.01,2013-08-25 14:27:00,
2013-08-25 09:28:00,83.1,64.8,30.15,West,266,0.0,2.2,54,0.00,,---,0.00,VWS V14.01,2013-08-25 14:28:00,
2013-08-25 09:29:00,83.1,64.8,30.15,West,266,0.0,0.0,54,0.00,,---,0.00,VWS V14.01,2013-08-25 14:29:00,
2013-08-25 09:30:00,83.1,64.8,30.15,West,266,0.0,0.0,54,0.00,,---,0.00,VWS V14.01,2013-08-25 14:30:00,
2013-08-25 09:31:00,83.3,64.9,30.15,West,266,0.0,0.0,54,0.00,,---,0.00,VWS V14.01,2013-08-25 14:31:00,
2013-08-25 09:32:00,83.5,65.1,30.15,West,266,0.0,0.0,54,0.00,,---,0.00,VWS V14.01,2013-08-25 14:32:00,
2013-08-25 09:33:00,83.5,65.1,30.15,West,266,0.0,0.0,54,0.00,,---,0.00,VWS V14.01,2013-08-25 14:33:00,
2013-08-25 09:34:00,83.5,64.6,30.15,West,266,0.0,0.0,53,0.00,,---,0.00,VWS V14.01,2013-08-25 14:34:00,
2013-08-25 09:35:00,83.5,64.6,30.15,West,266,0.0,0.0,53,0.00,,---,0.00,VWS V14.01,2013-08-25 14:35:00,
2013-08-25 09:36:00,83.7,64.7,30.15,West,266,0.0,0.0,53,0.00,,---,0.00,VWS V14.01,2013-08-25 14:36:00,
2013-08-25 09:37:00,83.7,64.7,30.15,West,266,0.0,0.0,53,0.00,,---,0.00,VWS V14.01,2013-08-25 14:37:00,
2013-08-25 09:38:00,83.7,64.7,30.15,NNE,12,0.0,0.0,53,0.00,,---,0.00,VWS V14.01,2013-08-25 14:38:00,
2013-08-25 09:39:00,83.7,64.7,30.15,West,270,2.2,2.2,53,0.00,,---,0.00,VWS V14.01,2013-08-25 14:39:00,
2013-08-25 09:40:00,83.7,64.7,30.15,SSE,156,2.2,2.2,53,0.00,,---,0.00,VWS V14.01,2013-08-25 14:40:00,
2013-08-25 09:41:00,83.7,64.7,30.15,NW,308,0.0,0.0,53,0.00,,---,0.00,VWS V14.01,2013-08-25 14:41:00,
2013-08-25 09:42:00,83.7,64.7,30.15,NW,308,0.0,0.0,53,0.00,,---,0.00,VWS V14.01,2013-08-25 14:42:00,
2013-08-25 09:43:00,83.8,64.9,30.15,NW,308,0.0,0.0,53,0.00,,---,0.00,VWS V14.01,2013-08-25 14:43:00,
2013-08-25 09:44:00,83.8,64.9,30.15,NW,308,0.0,0.0,53,0.00,,---,0.00,VWS V14.01,2013-08-25 14:44:00,
2013-08-25 09:45:00,84.0,64.5,30.15,NW,308,0.0,0.0,52,0.00,,---,0.00,VWS V14.01,2013-08-25 14:45:00,
2013-08-25 09:46:00,84.2,64.7,30.15,WSW,239,0.0,0.0,52,0.00,,---,0.00,VWS V14.01,2013-08-25 14:46:00,
2013-08-25 09:47:00,84.2,64.7,30.15,West,277,0.0,0.0,52,0.00,,---,0.00,VWS V14.01,2013-08-25 14:47:00,
2013-08-25 09:48:00,84.4,64.8,30.15,West,277,0.0,0.0,52,0.00,,---,0.00,VWS V14.01,2013-08-25 14:48:00,
2013-08-25 09:49:00,84.4,64.8,30.15,West,277,0.0,0.0,52,0.00,,---,0.00,VWS V14.01,2013-08-25 14:49:00,
2013-08-25 09:50:00,84.4,64.8,30.15,SSW,198,0.0,0.0,52,0.00,,---,0.00,VWS V14.01,2013-08-25 14:50:00,
2013-08-25 09:51:00,84.4,64.8,30.15,SSW,198,0.0,0.0,52,0.00,,---,0.00,VWS V14.01,2013-08-25 14:51:00,
2013-08-25 09:52:00,84.4,64.8,30.15,SSW,198,0.0,0.0,52,0.00,,---,0.00,VWS V14.01,2013-08-25 14:52:00,
2013-08-25 09:53:00,84.4,64.8,30.15,WSW,238,0.0,0.0,52,0.00,,---,0.00,VWS V14.01,2013-08-25 14:53:00,
2013-08-25 09:54:00,84.2,64.1,30.15,SSW,210,2.2,2.2,51,0.00,,---,0.00,VWS V14.01,2013-08-25 14:54:00,
2013-08-25 09:55:00,84.0,64.0,30.15,SSW,195,0.0,2.2,51,0.00,,---,0.00,VWS V14.01,2013-08-25 14:55:00,
2013-08-25 09:56:00,84.2,64.1,30.15,SSW,195,0.0,0.0,51,0.00,,---,0.00,VWS V14.01,2013-08-25 14:56:00,
2013-08-25 09:57:00,84.2,64.1,30.15,SSW,195,0.0,0.0,51,0.00,,---,0.00,VWS V14.01,2013-08-25 14:57:00,
2013-08-25 09:58:00,84.2,64.1,30.15,SSW,195,0.0,0.0,51,0.00,,---,0.00,VWS V14.01,2013-08-25 14:58:00,
2013-08-25 09:59:00,84.2,64.1,30.15,SSW,195,0.0,0.0,51,0.00,,---,0.00,VWS V14.01,2013-08-25 14:59:00,
2013-08-25 10:00:00,84.2,64.1,30.15,SSW,195,0.0,0.0,51,0.00,,---,0.00,VWS V14.01,2013-08-25 15:00:00,
2013-08-25 10:01:00,84.2,64.1,30.15,SSW,195,0.0,0.0,51,0.00,,---,0.00,VWS V14.01,2013-08-25 15:01:00,
2013-08-25 10:02:00,84.2,64.1,30.15,SSW,195,0.0,0.0,51,0.00,,---,0.00,VWS V14.01,2013-08-25 15:02:00,
2013-08-25 10:03:00,84.2,64.1,30.15,South,190,0.0,0.0,51,0.00,,---,0.00,VWS V14.01,2013-08-25 15:03:00,
2013-08-25 10:04:00,84.2,64.1,30.15,South,190,0.0,0.0,51,0.00,,---,0.00,VWS V14.01,2013-08-25 15:04:00,
2013-08-25 10:05:00,84.0,64.0,30.15,ENE,57,0.0,0.0,51,0.00,,---,0.00,VWS V14.01,2013-08-25 15:05:00,
2013-08-25 10:06:00,84.0,64.0,30.15,NE,44,0.0,0.0,51,0.00,,---,0.00,VWS V14.01,2013-08-25 15:06:00,
2013-08-25 10:07:00,84.0,64.0,30.15,NNE,16,0.0,0.0,51,0.00,,---,0.00,VWS V14.01,2013-08-25 15:07:00,
2013-08-25 10:08:00,84.0,64.0,30.15,SSE,152,0.0,0.0,51,0.00,,---,0.00,VWS V14.01,2013-08-25 15:08:00,
2013-08-25 10:09:00,84.0,64.5,30.15,SSE,151,0.0,0.0,52,0.00,,---,0.00,VWS V14.01,2013-08-25 15:09:00,
2013-08-25 10:10:00,83.8,64.3,30.15,SSE,151,0.0,0.0,52,0.00,,---,0.00,VWS V14.01,2013-08-25 15:10:00,
2013-08-25 10:11:00,83.8,64.3,30.15,SSE,151,0.0,0.0,52,0.00,,---,0.00,VWS V14.01,2013-08-25 15:11:00,
2013-08-25 10:12:00,83.8,64.3,30.15,West,264,0.0,3.1,52,0.00,,---,0.00,VWS V14.01,2013-08-25 15:12:00,
2013-08-25 10:13:00,83.8,64.3,30.15,West,264,0.0,0.0,52,0.00,,---,0.00,VWS V14.01,2013-08-25 15:13:00,
2013-08-25 10:14:00,83.8,64.3,30.15,WSW,251,0.0,3.6,52,0.00,,---,0.00,VWS V14.01,2013-08-25 15:14:00,
2013-08-25 10:15:00,83.8,64.3,30.15,WSW,251,0.0,0.0,52,0.00,,---,0.00,VWS V14.01,2013-08-25 15:15:00,
2013-08-25 10:16:00,84.2,64.1,30.15,WSW,245,0.0,0.0,51,0.00,,---,0.00,VWS V14.01,2013-08-25 15:16:00,
2013-08-25 10:17:00,84.2,64.1,30.15,WSW,245,0.0,0.0,51,0.00,,---,0.00,VWS V14.01,2013-08-25 15:17:00,
2013-08-25 10:18:00,84.6,64.5,30.15,NNW,333,2.2,2.2,51,0.00,,---,0.00,VWS V14.01,2013-08-25 15:18:00,
2013-08-25 10:19:00,84.7,64.6,30.15,NNW,333,0.0,2.2,51,0.00,,---,0.00,VWS V14.01,2013-08-25 15:19:00,
2013-08-25 10:20:00,84.7,64.1,30.15,NNW,333,0.0,0.0,50,0.00,,---,0.00,VWS V14.01,2013-08-25 15:20:00,
2013-08-25 10:21:00,84.9,64.2,30.15,SSE,156,4.0,4.0,50,0.00,,---,0.00,VWS V14.01,2013-08-25 15:21:00,
2013-08-25 10:22:00,84.7,64.1,30.15,South,178,2.7,4.0,50,0.00,,---,0.00,VWS V14.01,2013-08-25 15:22:00,
2013-08-25 10:23:00,84.7,64.1,30.15,SSE,163,0.0,2.7,50,0.00,,---,0.00,VWS V14.01,2013-08-25 15:23:00,
2013-08-25 10:24:00,84.9,64.2,30.15,SSW,211,0.0,0.0,50,0.00,,---,0.00,VWS V14.01,2013-08-25 15:24:00,
2013-08-25 10:25:00,84.9,64.2,30.15,NE,38,0.0,2.7,50,0.00,,---,0.00,VWS V14.01,2013-08-25 15:25:00,
2013-08-25 10:26:00,85.1,64.4,30.15,SW,223,0.0,0.0,50,0.00,,---,0.00,VWS V14.01,2013-08-25 15:26:00,
2013-08-25 10:27:00,85.1,63.8,30.15,SW,223,0.0,0.0,49,0.00,,---,0.00,VWS V14.01,2013-08-25 15:27:00,
2013-08-25 10:28:00,85.3,64.0,30.15,SW,223,0.0,0.0,49,0.00,,---,0.00,VWS V14.01,2013-08-25 15:28:00,
2013-08-25 10:29:00,85.5,64.1,30.15,SW,223,0.0,0.0,49,0.00,,---,0.00,VWS V14.01,2013-08-25 15:29:00,
2013-08-25 10:30:00,85.5,64.1,30.15,SW,228,0.0,0.0,49,0.00,,---,0.00,VWS V14.01,2013-08-25 15:30:00,
2013-08-25 10:31:00,85.8,64.5,30.15,SW,230,0.0,0.0,49,0.00,,---,0.00,VWS V14.01,2013-08-25 15:31:00,
2013-08-25 10:32:00,85.8,64.5,30.15,South,181,2.7,3.1,49,0.00,,---,0.00,VWS V14.01,2013-08-25 15:32:00,
2013-08-25 10:33:00,86.0,64.0,30.15,NE,45,2.2,3.1,48,0.00,,---,0.00,VWS V14.01,2013-08-25 15:33:00,
2013-08-25 10:34:00,86.2,64.2,30.15,NW,316,0.0,2.2,48,0.00,,---,0.00,VWS V14.01,2013-08-25 15:34:00,
2013-08-25 10:35:00,86.5,63.9,30.15,NW,319,0.0,0.0,47,0.00,,---,0.00,VWS V14.01,2013-08-25 15:35:00,
2013-08-25 10:36:00,86.7,64.1,30.15,NW,319,0.0,0.0,47,0.00,,---,0.00,VWS V14.01,2013-08-25 15:36:00,
2013-08-25 10:37:00,87.1,63.8,30.15,NW,319,0.0,0.0,46,0.00,,---,0.00,VWS V14.01,2013-08-25 15:37:00,
2013-08-25 10:38:00,87.3,64.0,30.15,NW,315,0.0,0.0,46,0.00,,---,0.00,VWS V14.01,2013-08-25 15:38:00,
2013-08-25 10:39:00,87.6,64.3,30.15,WSW,251,2.2,3.1,46,0.00,,---,0.00,VWS V14.01,2013-08-25 15:39:00,
2013-08-25 10:40:00,88.0,64.0,30.15,WSW,249,0.0,2.2,45,0.00,,---,0.00,VWS V14.01,2013-08-25 15:40:00,
2013-08-25 10:41:00,88.3,64.3,30.15,SW,214,0.0,0.0,45,0.00,,---,0.00,VWS V14.01,2013-08-25 15:41:00,
2013-08-25 10:42:00,88.5,63.8,30.15,WSW,240,2.7,3.1,44,0.00,,---,0.00,VWS V14.01,2013-08-25 15:42:00,
2013-08-25 10:43:00,88.5,63.8,30.15,WSW,240,0.0,2.7,44,0.00,,---,0.00,VWS V14.01,2013-08-25 15:43:00,
2013-08-25 10:44:00,88.7,64.0,30.15,West,272,0.0,0.0,44,0.00,,---,0.00,VWS V14.01,2013-08-25 15:44:00,
2013-08-25 10:45:00,89.1,63.7,30.15,West,272,0.0,0.0,43,0.00,,---,0.00,VWS V14.01,2013-08-25 15:45:00,
2013-08-25 10:46:00,89.4,64.0,30.15,ENE,58,0.0,0.0,43,0.00,,---,0.00,VWS V14.01,2013-08-25 15:46:00,
2013-08-25 10:47:00,89.8,63.7,30.15,East,81,0.0,0.0,42,0.00,,---,0.00,VWS V14.01,2013-08-25 15:47:00,
2013-08-25 10:48:00,90.1,64.0,30.15,East,81,0.0,0.0,42,0.00,,---,0.00,VWS V14.01,2013-08-25 15:48:00,
2013-08-25 10:49:00,90.0,63.8,30.15,East,81,0.0,0.0,42,0.00,,---,0.00,VWS V14.01,2013-08-25 15:49:00,
2013-08-25 10:51:00,90.3,63.5,30.15,East,81,0.0,0.0,41,0.00,,---,0.00,VWS V14.01,2013-08-25 15:51:00,
2013-08-25 10:52:00,90.1,63.3,30.15,ENE,61,0.0,0.0,41,0.00,,---,0.00,VWS V14.01,2013-08-25 15:52:00,
2013-08-25 10:53:00,90.0,63.1,30.15,SSE,162,0.0,0.0,41,0.00,,---,0.00,VWS V14.01,2013-08-25 15:53:00,
2013-08-25 10:54:00,90.0,63.1,30.15,SSE,162,0.0,0.0,41,0.00,,---,0.00,VWS V14.01,2013-08-25 15:54:00,
2013-08-25 10:55:00,89.8,63.0,30.15,North,353,2.2,2.2,41,0.00,,---,0.00,VWS V14.01,2013-08-25 15:55:00,
2013-08-25 10:56:00,90.0,63.1,30.15,South,186,2.2,3.1,41,0.00,,---,0.00,VWS V14.01,2013-08-25 15:56:00,
2013-08-25 10:57:00,90.3,62.7,30.15,North,357,0.0,3.1,40,0.00,,---,0.00,VWS V14.01,2013-08-25 15:57:00,
2013-08-25 10:58:00,90.1,62.6,30.15,East,81,0.0,2.2,40,0.00,,---,0.00,VWS V14.01,2013-08-25 15:58:00,
2013-08-25 10:59:00,90.1,62.6,30.15,ESE,111,0.0,0.0,40,0.00,,---,0.00,VWS V14.01,2013-08-25 15:59:00,
2013-08-25 11:00:00,90.1,62.6,30.15,ESE,103,0.0,0.0,40,0.00,,---,0.00,VWS V14.01,2013-08-25 16:00:00,
2013-08-25 11:01:00,90.1,62.6,30.15,West,276,2.2,2.2,40,0.00,,---,0.00,VWS V14.01,2013-08-25 16:01:00,
2013-08-25 11:02:00,90.0,62.4,30.15,West,259,2.7,2.7,40,0.00,,---,0.00,VWS V14.01,2013-08-25 16:02:00,
2013-08-25 11:03:00,89.6,62.1,30.15,NW,307,0.0,2.7,40,0.00,,---,0.00,VWS V14.01,2013-08-25 16:03:00,
2013-08-25 11:04:00,89.6,62.1,30.18,NW,315,0.0,0.0,40,0.00,,---,0.00,VWS V14.01,2013-08-25 16:04:00,
2013-08-25 11:05:00,89.2,62.5,30.18,North,353,0.0,0.0,41,0.00,,---,0.00,VWS V14.01,2013-08-25 16:05:00,
2013-08-25 11:06:00,89.2,62.5,30.18,North,353,0.0,0.0,41,0.00,,---,0.00,VWS V14.01,2013-08-25 16:06:00,
2013-08-25 11:07:00,89.1,62.3,30.18,SW,225,0.0,0.0,41,0.00,,---,0.00,VWS V14.01,2013-08-25 16:07:00,
2013-08-25 11:08:00,89.1,62.3,30.18,SW,225,0.0,0.0,41,0.00,,---,0.00,VWS V14.01,2013-08-25 16:08:00,
2013-08-25 11:09:00,89.1,62.3,30.18,SW,225,0.0,0.0,41,0.00,,---,0.00,VWS V14.01,2013-08-25 16:09:00,
2013-08-25 11:10:00,89.1,62.3,30.18,SW,225,0.0,0.0,41,0.00,,---,0.00,VWS V14.01,2013-08-25 16:10:00,
2013-08-25 11:11:00,88.9,62.2,30.18,WSW,243,0.0,2.7,41,0.00,,---,0.00,VWS V14.01,2013-08-25 16:11:00,
2013-08-25 11:12:00,88.9,62.2,30.18,WSW,243,0.0,2.7,41,0.00,,---,0.00,VWS V14.01,2013-08-25 16:12:00,
2013-08-25 11:13:00,89.1,62.3,30.18,WSW,243,0.0,0.0,41,0.00,,---,0.00,VWS V14.01,2013-08-25 16:13:00,
2013-08-25 11:14:00,89.1,62.3,30.18,North,11,0.0,0.0,41,0.00,,---,0.00,VWS V14.01,2013-08-25 16:14:00,
2013-08-25 11:15:00,89.1,62.3,30.18,North,11,0.0,0.0,41,0.00,,---,0.00,VWS V14.01,2013-08-25 16:15:00,
2013-08-25 11:16:00,89.6,62.8,30.18,North,11,0.0,0.0,41,0.00,,---,0.00,VWS V14.01,2013-08-25 16:16:00,
2013-08-25 11:17:00,89.8,63.0,30.18,NNE,24,0.0,0.0,41,0.00,,---,0.00,VWS V14.01,2013-08-25 16:17:00,
2013-08-25 11:18:00,89.6,62.8,30.18,SE,138,3.1,3.1,41,0.00,,---,0.00,VWS V14.01,2013-08-25 16:18:00,
2013-08-25 11:19:00,89.6,62.1,30.18,SE,138,0.0,3.1,40,0.00,,---,0.00,VWS V14.01,2013-08-25 16:19:00,
2013-08-25 11:20:00,89.8,62.3,30.18,South,176,0.0,2.2,40,0.00,,---,0.00,VWS V14.01,2013-08-25 16:20:00,
2013-08-25 11:21:00,89.6,62.1,30.18,ESE,116,2.7,2.7,40,0.00,,---,0.00,VWS V14.01,2013-08-25 16:21:00,
2013-08-25 11:22:00,89.8,62.3,30.18,ESE,123,0.0,2.7,40,0.00,,---,0.00,VWS V14.01,2013-08-25 16:22:00,
2013-08-25 11:23:00,90.0,62.4,30.18,NW,315,3.6,3.6,40,0.00,,---,0.00,VWS V14.01,2013-08-25 16:23:00,
2013-08-25 11:24:00,89.8,61.5,30.18,SSE,152,3.1,5.8,39,0.00,,---,0.00,VWS V14.01,2013-08-25 16:24:00,
2013-08-25 11:25:00,89.8,62.3,30.18,South,177,2.2,3.1,40,0.00,,---,0.00,VWS V14.01,2013-08-25 16:25:00,
2013-08-25 11:26:00,89.8,62.3,30.18,South,189,0.0,2.2,40,0.00,,---,0.00,VWS V14.01,2013-08-25 16:26:00,
2013-08-25 11:27:00,89.8,62.3,30.18,SSE,168,2.7,3.6,40,0.00,,---,0.00,VWS V14.01,2013-08-25 16:27:00,
2013-08-25 11:28:00,89.8,62.3,30.18,SSE,168,0.0,2.7,40,0.00,,---,0.00,VWS V14.01,2013-08-25 16:28:00,
2013-08-25 11:29:00,90.0,62.4,30.18,SSE,168,0.0,0.0,40,0.00,,---,0.00,VWS V14.01,2013-08-25 16:29:00,
2013-08-25 11:30:00,90.0,62.4,30.18,SSE,168,0.0,0.0,40,0.00,,---,0.00,VWS V14.01,2013-08-25 16:30:00,
2013-08-25 11:31:00,89.8,62.3,30.18,SSE,166,0.0,0.0,40,0.00,,---,0.00,VWS V14.01,2013-08-25 16:31:00,
2013-08-25 11:32:00,89.8,62.3,30.18,SSE,166,0.0,0.0,40,0.00,,---,0.00,VWS V14.01,2013-08-25 16:32:00,
2013-08-25 11:33:00,89.8,62.3,30.18,SSE,166,0.0,0.0,40,0.00,,---,0.00,VWS V14.01,2013-08-25 16:33:00,
2013-08-25 11:34:00,89.8,62.3,30.18,SSE,166,0.0,0.0,40,0.00,,---,0.00,VWS V14.01,2013-08-25 16:34:00,
2013-08-25 11:35:00,90.0,62.4,30.18,SSE,166,0.0,0.0,40,0.00,,---,0.00,VWS V14.01,2013-08-25 16:35:00,
2013-08-25 11:36:00,89.8,62.3,30.18,SSE,166,0.0,0.0,40,0.00,,---,0.00,VWS V14.01,2013-08-25 16:36:00,
2013-08-25 11:37:00,89.8,62.3,30.18,SSE,166,0.0,0.0,40,0.00,,---,0.00,VWS V14.01,2013-08-25 16:37:00,
2013-08-25 11:38:00,89.4,62.6,30.18,ENE,70,0.0,3.6,41,0.00,,---,0.00,VWS V14.01,2013-08-25 16:38:00,
2013-08-25 11:39:00,89.2,62.5,30.18,ENE,70,0.0,0.0,41,0.00,,---,0.00,VWS V14.01,2013-08-25 16:39:00,
2013-08-25 11:40:00,89.1,62.3,30.18,ENE,70,0.0,0.0,41,0.00,,---,0.00,VWS V14.01,2013-08-25 16:40:00,
2013-08-25 11:41:00,88.9,62.2,30.18,NNE,31,0.0,0.0,41,0.00,,---,0.00,VWS V14.01,2013-08-25 16:41:00,
2013-08-25 11:42:00,88.9,62.2,30.18,NNE,30,0.0,0.0,41,0.00,,---,0.00,VWS V14.01,2013-08-25 16:42:00,
2013-08-25 11:43:00,88.7,62.0,30.18,NNE,29,0.0,0.0,41,0.00,,---,0.00,VWS V14.01,2013-08-25 16:43:00,
2013-08-25 11:44:00,88.7,62.0,30.18,NNE,29,0.0,0.0,41,0.00,,---,0.00,VWS V14.01,2013-08-25 16:44:00,
2013-08-25 11:45:00,88.7,62.0,30.18,NNE,29,0.0,0.0,41,0.00,,---,0.00,VWS V14.01,2013-08-25 16:45:00,
2013-08-25 11:46:00,88.7,62.0,30.18,NNE,29,0.0,0.0,41,0.00,,---,0.00,VWS V14.01,2013-08-25 16:46:00,
2013-08-25 11:47:00,88.7,62.0,30.18,NNE,29,0.0,0.0,41,0.00,,---,0.00,VWS V14.01,2013-08-25 16:47:00,
2013-08-25 11:48:00,88.7,62.0,30.18,NE,49,0.0,0.0,41,0.00,,---,0.00,VWS V14.01,2013-08-25 16:48:00,
2013-08-25 11:49:00,88.5,61.8,30.18,NE,49,0.0,0.0,41,0.00,,---,0.00,VWS V14.01,2013-08-25 16:49:00,
2013-08-25 11:50:00,88.5,61.8,30.15,NE,49,0.0,0.0,41,0.00,,---,0.00,VWS V14.01,2013-08-25 16:50:00,
2013-08-25 11:51:00,88.5,61.8,30.15,NE,46,0.0,0.0,41,0.00,,---,0.00,VWS V14.01,2013-08-25 16:51:00,
2013-08-25 11:52:00,88.5,61.8,30.15,ENE,62,0.0,0.0,41,0.00,,---,0.00,VWS V14.01,2013-08-25 16:52:00,
2013-08-25 11:53:00,88.5,61.8,30.15,ENE,62,0.0,0.0,41,0.00,,---,0.00,VWS V14.01,2013-08-25 16:53:00,
2013-08-25 11:54:00,88.5,61.8,30.15,ENE,62,0.0,0.0,41,0.00,,---,0.00,VWS V14.01,2013-08-25 16:54:00,
2013-08-25 11:55:00,88.5,61.8,30.15,ENE,61,0.0,0.0,41,0.00,,---,0.00,VWS V14.01,2013-08-25 16:55:00,
2013-08-25 11:56:00,88.7,62.0,30.15,NW,308,0.0,0.0,41,0.00,,---,0.00,VWS V14.01,2013-08-25 16:56:00,
2013-08-25 11:57:00,88.5,61.8,30.15,NW,308,0.0,0.0,41,0.00,,---,0.00,VWS V14.01,2013-08-25 16:57:00,
2013-08-25 11:58:00,88.5,61.8,30.15,NW,308,0.0,0.0,41,0.00,,---,0.00,VWS V14.01,2013-08-25 16:58:00,
2013-08-25 11:59:00,88.3,61.7,30.15,NW,308,0.0,0.0,41,0.00,,---,0.00,VWS V14.01,2013-08-25 16:59:00,
2013-08-25 12:00:00,88.3,61.7,30.15,East,87,0.0,0.0,41,0.00,,---,0.00,VWS V14.01,2013-08-25 17:00:00,
2013-08-25 12:01:00,88.2,61.5,30.15,NNE,16,0.0,2.7,41,0.00,,---,0.00,VWS V14.01,2013-08-25 17:01:00,
2013-08-25 12:02:00,88.2,62.2,30.15,NW,313,2.7,2.7,42,0.00,,---,0.00,VWS V14.01,2013-08-25 17:02:00,
2013-08-25 12:03:00,88.2,62.2,30.15,NE,35,2.2,3.1,42,0.00,,---,0.00,VWS V14.01,2013-08-25 17:03:00,
2013-08-25 12:04:00,88.2,62.2,30.15,NE,35,0.0,2.2,42,0.00,,---,0.00,VWS V14.01,2013-08-25 17:04:00,
2013-08-25 12:05:00,88.2,62.2,30.15,NNW,332,0.0,0.0,42,0.00,,---,0.00,VWS V14.01,2013-08-25 17:05:00,
2013-08-25 12:06:00,88.2,62.2,30.15,NE,54,0.0,0.0,42,0.00,,---,0.00,VWS V14.01,2013-08-25 17:06:00,
2013-08-25 12:07:00,88.2,62.2,30.15,SSW,211,2.2,2.2,42,0.00,,---,0.00,VWS V14.01,2013-08-25 17:07:00,
2013-08-25 12:08:00,88.0,62.0,30.15,WNW,282,0.0,2.7,42,0.00,,---,0.00,VWS V14.01,2013-08-25 17:08:00,
2013-08-25 12:09:00,88.0,62.0,30.15,NE,34,2.7,2.7,42,0.00,,---,0.00,VWS V14.01,2013-08-25 17:09:00,
2013-08-25 12:10:00,88.0,62.0,30.15,NNW,345,2.2,2.7,42,0.00,,---,0.00,VWS V14.01,2013-08-25 17:10:00,
2013-08-25 12:11:00,88.3,61.7,30.15,ENE,71,0.0,0.0,41,0.00,,---,0.00,VWS V14.01,2013-08-25 17:11:00,
2013-08-25 12:12:00,88.5,61.8,30.15,ENE,71,0.0,0.0,41,0.00,,---,0.00,VWS V14.01,2013-08-25 17:12:00,
2013-08-25 12:13:00,88.5,61.8,30.15,North,353,0.0,2.7,41,0.00,,---,0.00,VWS V14.01,2013-08-25 17:13:00,
2013-08-25 12:14:00,88.9,62.2,30.15,NW,314,0.0,0.0,41,0.00,,---,0.00,VWS V14.01,2013-08-25 17:14:00,
2013-08-25 12:16:00,89.2,62.5,30.15,North,353,0.0,0.0,41,0.00,,---,0.00,VWS V14.01,2013-08-25 17:16:00,
2013-08-25 12:17:00,89.2,62.5,30.15,North,353,0.0,0.0,41,0.00,,---,0.00,VWS V14.01,2013-08-25 17:17:00,
2013-08-25 12:18:00,89.2,62.5,30.15,NNW,338,0.0,0.0,41,0.00,,---,0.00,VWS V14.01,2013-08-25 17:18:00,
2013-08-25 12:19:00,89.2,61.8,30.15,NNE,24,0.0,0.0,40,0.00,,---,0.00,VWS V14.01,2013-08-25 17:19:00,
2013-08-25 12:20:00,89.2,61.8,30.15,NNE,30,0.0,0.0,40,0.00,,---,0.00,VWS V14.01,2013-08-25 17:20:00,
2013-08-25 12:21:00,89.1,61.6,30.15,NE,37,0.0,0.0,40,0.00,,---,0.00,VWS V14.01,2013-08-25 17:21:00,
2013-08-25 12:22:00,89.2,61.8,30.15,NE,37,0.0,0.0,40,0.00,,---,0.00,VWS V14.01,2013-08-25 17:22:00,
2013-08-25 12:23:00,89.4,61.9,30.15,NE,37,0.0,0.0,40,0.00,,---,0.00,VWS V14.01,2013-08-25 17:23:00,
2013-08-25 12:24:00,89.6,62.1,30.15,NE,37,0.0,0.0,40,0.00,,---,0.00,VWS V14.01,2013-08-25 17:24:00,
2013-08-25 12:25:00,89.8,62.3,30.15,NE,37,0.0,0.0,40,0.00,,---,0.00,VWS V14.01,2013-08-25 17:25:00,
2013-08-25 12:26:00,90.0,62.4,30.15,North,353,0.0,0.0,40,0.00,,---,0.00,VWS V14.01,2013-08-25 17:26:00,
2013-08-25 12:27:00,90.0,61.7,30.15,SSW,210,4.9,5.4,39,0.00,,---,0.00,VWS V14.01,2013-08-25 17:27:00,
2013-08-25 12:28:00,90.0,61.7,30.15,SW,218,0.0,4.9,39,0.00,,---,0.00,VWS V14.01,2013-08-25 17:28:00,
2013-08-25 12:29:00,90.1,61.9,30.15,NE,50,0.0,0.0,39,0.00,,---,0.00,VWS V14.01,2013-08-25 17:29:00,
2013-08-25 12:30:00,90.3,62.0,30.15,ENE,69,2.2,2.2,39,0.00,,---,0.00,VWS V14.01,2013-08-25 17:30:00,
2013-08-25 12:31:00,90.5,62.2,30.15,NW,309,0.0,2.2,39,0.00,,---,0.00,VWS V14.01,2013-08-25 17:31:00,
2013-08-25 12:32:00,90.5,62.2,30.15,NW,309,0.0,0.0,39,0.00,,---,0.00,VWS V14.01,2013-08-25 17:32:00,
2013-08-25 12:33:00,90.3,62.0,30.15,NW,309,0.0,0.0,39,0.00,,---,0.00,VWS V14.01,2013-08-25 17:33:00,
2013-08-25 12:34:00,90.3,62.0,30.15,NW,309,0.0,0.0,39,0.00,,---,0.00,VWS V14.01,2013-08-25 17:34:00,
2013-08-25 12:35:00,90.1,61.9,30.15,NW,309,0.0,0.0,39,0.00,,---,0.00,VWS V14.01,2013-08-25 17:35:00,
2013-08-25 12:36:00,90.1,61.9,30.15,NW,309,0.0,0.0,39,0.00,,---,0.00,VWS V14.01,2013-08-25 17:36:00,
2013-08-25 12:37:00,90.1,61.1,30.15,NNW,327,0.0,2.2,38,0.00,,---,0.00,VWS V14.01,2013-08-25 17:37:00,
2013-08-25 12:38:00,90.3,61.3,30.15,NNW,327,0.0,0.0,38,0.00,,---,0.00,VWS V14.01,2013-08-25 17:38:00,
2013-08-25 12:39:00,90.3,61.3,30.15,ENE,71,0.0,0.0,38,0.00,,---,0.00,VWS V14.01,2013-08-25 17:39:00,
2013-08-25 12:40:00,90.5,61.5,30.15,NE,46,0.0,0.0,38,0.00,,---,0.00,VWS V14.01,2013-08-25 17:40:00,
2013-08-25 12:41:00,90.5,61.5,30.15,NW,318,0.0,0.0,38,0.00,,---,0.00,VWS V14.01,2013-08-25 17:41:00,
2013-08-25 12:42:00,90.5,61.5,30.15,NW,318,0.0,0.0,38,0.00,,---,0.00,VWS V14.01,2013-08-25 17:42:00,
2013-08-25 12:43:00,90.7,61.6,30.15,NW,318,0.0,0.0,38,0.00,,---,0.00,VWS V14.01,2013-08-25 17:43:00,
2013-08-25 12:44:00,90.9,61.8,30.15,SW,219,0.0,0.0,38,0.00,,---,0.00,VWS V14.01,2013-08-25 17:44:00,
2013-08-25 12:45:00,90.9,61.8,30.15,SSE,157,0.0,0.0,38,0.00,,---,0.00,VWS V14.01,2013-08-25 17:45:00,
2013-08-25 12:46:00,90.9,61.8,30.15,East,83,0.0,0.0,38,0.00,,---,0.00,VWS V14.01,2013-08-25 17:46:00,
2013-08-25 12:47:00,91.0,61.9,30.15,South,187,0.0,0.0,38,0.00,,---,0.00,VWS V14.01,2013-08-25 17:47:00,
2013-08-25 12:48:00,91.0,61.9,30.15,SE,144,0.0,0.0,38,0.00,,---,0.00,VWS V14.01,2013-08-25 17:48:00,
2013-08-25 12:49:00,91.4,61.5,30.15,NNE,22,0.0,0.0,37,0.00,,---,0.00,VWS V14.01,2013-08-25 17:49:00,
2013-08-25 12:50:00,91.6,61.7,30.15,NE,38,0.0,0.0,37,0.00,,---,0.00,VWS V14.01,2013-08-25 17:50:00,
2013-08-25 12:51:00,91.8,61.8,30.15,NE,38,0.0,0.0,37,0.00,,---,0.00,VWS V14.01,2013-08-25 17:51:00,
2013-08-25 12:52:00,91.9,62.0,30.15,NE,40,0.0,0.0,37,0.00,,---,0.00,VWS V14.01,2013-08-25 17:52:00,
2013-08-25 12:53:00,92.1,62.1,30.15,SW,233,4.9,4.9,37,0.00,,---,0.00,VWS V14.01,2013-08-25 17:53:00,
2013-08-25 12:54:00,91.8,61.0,30.15,SSE,168,0.0,4.9,36,0.00,,---,0.00,VWS V14.01,2013-08-25 17:54:00,
2013-08-25 12:55:00,92.1,62.1,30.15,SSE,152,0.0,0.0,37,0.00,,---,0.00,VWS V14.01,2013-08-25 17:55:00,
2013-08-25 12:56:00,92.1,62.1,30.15,SSE,152,0.0,0.0,37,0.00,,---,0.00,VWS V14.01,2013-08-25 17:56:00,
2013-08-25 12:57:00,92.1,61.3,30.15,SSE,152,0.0,0.0,36,0.00,,---,0.00,VWS V14.01,2013-08-25 17:57:00,
2013-08-25 12:58:00,92.1,61.3,30.15,SSE,152,0.0,0.0,36,0.00,,---,0.00,VWS V14.01,2013-08-25 17:58:00,
2013-08-25 12:59:00,91.9,60.4,30.15,WSW,243,0.0,5.4,35,0.00,,---,0.00,VWS V14.01,2013-08-25 17:59:00,
2013-08-25 13:00:00,91.4,59.9,30.15,South,184,3.6,4.0,35,0.00,,---,0.00,VWS V14.01,2013-08-25 18:00:00,
2013-08-25 13:01:00,91.4,59.9,30.15,SSE,153,3.6,4.0,35,0.00,,---,0.00,VWS V14.01,2013-08-25 18:01:00,
2013-08-25 13:02:00,90.9,61.0,30.15,NE,55,2.7,3.6,37,0.00,,---,0.00,VWS V14.01,2013-08-25 18:02:00,
2013-08-25 13:03:00,90.7,60.9,30.15,ENE,59,0.0,2.7,37,0.00,,---,0.00,VWS V14.01,2013-08-25 18:03:00,
2013-08-25 13:04:00,90.5,60.7,30.15,ENE,59,0.0,0.0,37,0.00,,---,0.00,VWS V14.01,2013-08-25 18:04:00,
2013-08-25 13:05:00,90.1,61.1,30.15,NE,54,0.0,0.0,38,0.00,,---,0.00,VWS V14.01,2013-08-25 18:05:00,
2013-08-25 13:06:00,90.1,61.1,30.15,NE,54,0.0,0.0,38,0.00,,---,0.00,VWS V14.01,2013-08-25 18:06:00,
2013-08-25 13:07:00,89.6,60.7,30.15,East,99,2.2,2.7,38,0.00,,---,0.00,VWS V14.01,2013-08-25 18:07:00,
2013-08-25 13:08:00,89.4,60.5,30.15,SSW,195,3.1,4.0,38,0.00,,---,0.00,VWS V14.01,2013-08-25 18:08:00,
2013-08-25 13:09:00,88.5,59.7,30.15,SSW,199,6.3,8.1,38,0.00,,---,0.00,VWS V14.01,2013-08-25 18:09:00,
2013-08-25 13:10:00,87.4,59.5,30.15,WSW,237,0.0,3.6,39,0.00,,---,0.00,VWS V14.01,2013-08-25 18:10:00,
2013-08-25 13:11:00,87.4,59.5,30.15,WSW,237,0.0,3.6,39,0.00,,---,0.00,VWS V14.01,2013-08-25 18:11:00,
2013-08-25 13:12:00,87.3,60.0,30.15,South,190,7.2,7.2,40,0.00,,---,0.00,VWS V14.01,2013-08-25 18:12:00,
2013-08-25 13:13:00,86.4,59.2,30.15,South,180,5.8,7.2,40,0.00,,---,0.00,VWS V14.01,2013-08-25 18:13:00,
2013-08-25 13:14:00,85.8,59.4,30.15,South,189,4.9,6.3,41,0.00,,---,0.00,VWS V14.01,2013-08-25 18:14:00,
2013-08-25 13:15:00,84.7,59.1,30.15,SSE,165,7.6,7.6,42,0.00,,---,0.00,VWS V14.01,2013-08-25 18:15:00,
2013-08-25 13:16:00,84.7,59.1,30.15,South,170,8.3,8.3,42,0.00,,---,0.00,VWS V14.01,2013-08-25 18:16:00,
2013-08-25 13:17:00,84.4,59.5,30.15,SW,233,6.3,8.3,43,0.00,,---,0.00,VWS V14.01,2013-08-25 18:17:00,
2013-08-25 13:18:00,83.8,59.6,30.15,South,184,3.1,8.7,44,0.00,,---,0.00,VWS V14.01,2013-08-25 18:18:00,
2013-08-25 13:19:00,83.7,60.1,30.15,South,184,6.7,7.6,45,0.00,,---,0.00,VWS V14.01,2013-08-25 18:19:00,
2013-08-25 13:20:00,83.1,60.2,30.18,SSE,149,3.6,6.3,46,0.00,,---,0.00,VWS V14.01,2013-08-25 18:20:00,
2013-08-25 13:21:00,83.1,60.2,30.18,SW,226,6.3,6.3,46,0.00,,---,0.00,VWS V14.01,2013-08-25 18:21:00,
2013-08-25 13:22:00,82.9,60.7,30.18,South,175,4.0,6.3,47,0.00,,---,0.00,VWS V14.01,2013-08-25 18:22:00,
2013-08-25 13:23:00,82.9,60.7,30.18,South,183,4.0,4.0,47,0.00,,---,0.00,VWS V14.01,2013-08-25 18:23:00,
2013-08-25 13:24:00,82.8,60.5,30.18,SW,224,4.0,4.0,47,0.00,,---,0.00,VWS V14.01,2013-08-25 18:24:00,
2013-08-25 13:25:00,81.9,60.8,30.18,SSW,205,4.0,4.9,49,0.00,,---,0.00,VWS V14.01,2013-08-25 18:25:00,
2013-08-25 13:26:00,81.9,60.8,30.18,SE,146,4.0,4.9,49,0.00,,---,0.00,VWS V14.01,2013-08-25 18:26:00,
2013-08-25 13:27:00,81.7,61.2,30.18,South,186,5.4,8.1,50,0.00,,---,0.00,VWS V14.01,2013-08-25 18:27:00,
2013-08-25 13:28:00,80.8,61.5,30.18,South,176,4.0,5.8,52,0.00,,---,0.00,VWS V14.01,2013-08-25 18:28:00,
2013-08-25 13:29:00,80.2,61.6,30.18,SSE,167,3.1,5.8,53,0.00,,---,0.00,VWS V14.01,2013-08-25 18:29:00,
2013-08-25 13:30:00,79.3,62.8,30.18,SSW,195,4.0,7.6,57,0.00,,---,0.00,VWS V14.01,2013-08-25 18:30:00,
2013-08-25 13:31:00,79.2,62.6,30.18,SSW,195,4.0,7.6,57,0.00,,---,0.00,VWS V14.01,2013-08-25 18:31:00,
2013-08-25 13:32:00,79.2,63.1,30.18,SW,231,3.6,4.0,58,0.00,,---,0.00,VWS V14.01,2013-08-25 18:32:00,
2013-08-25 13:33:00,79.2,63.6,30.18,South,179,2.7,3.6,59,0.00,,---,0.00,VWS V14.01,2013-08-25 18:33:00,
2013-08-25 13:34:00,79.0,63.9,30.18,South,171,4.0,4.0,60,0.00,,---,0.00,VWS V14.01,2013-08-25 18:34:00,
2013-08-25 13:35:00,78.8,64.2,30.18,SW,227,3.6,3.6,61,0.00,,---,0.00,VWS V14.01,2013-08-25 18:35:00,
2013-08-25 13:36:00,78.8,64.2,30.18,SSE,151,3.1,3.6,61,0.00,,---,0.00,VWS V14.01,2013-08-25 18:36:00,
2013-08-25 13:37:00,78.6,65.0,30.18,South,185,4.0,6.3,63,0.00,,---,0.00,VWS V14.01,2013-08-25 18:37:00,
2013-08-25 13:38:00,78.6,65.0,30.18,South,170,3.1,4.0,63,0.04,,---,0.04,VWS V14.01,2013-08-25 18:38:00,
2013-08-25 13:39:00,78.4,65.3,30.18,South,172,5.4,6.3,64,0.04,,---,0.04,VWS V14.01,2013-08-25 18:39:00,
2013-08-25 13:40:00,78.3,65.5,30.18,SW,227,2.2,4.0,65,0.04,,---,0.04,VWS V14.01,2013-08-25 18:40:00,
2013-08-25 13:41:00,78.3,65.5,30.18,SW,227,2.2,4.0,65,0.04,,---,0.04,VWS V14.01,2013-08-25 18:41:00,
2013-08-25 13:42:00,78.4,65.7,30.18,SSE,168,2.7,2.7,65,0.04,,---,0.04,VWS V14.01,2013-08-25 18:42:00,
2013-08-25 13:43:00,78.6,66.3,30.18,SW,217,2.7,3.6,66,0.04,,---,0.04,VWS V14.01,2013-08-25 18:43:00,
2013-08-25 13:44:00,78.6,66.3,30.18,SW,224,2.7,5.8,66,0.04,,---,0.04,VWS V14.01,2013-08-25 18:44:00,
2013-08-25 13:45:00,78.6,66.3,30.18,SSW,203,0.0,4.5,66,0.04,,---,0.04,VWS V14.01,2013-08-25 18:45:00,
2013-08-25 13:46:00,78.6,66.3,30.18,SSW,203,0.0,4.5,66,0.04,,---,0.04,VWS V14.01,2013-08-25 18:46:00,
2013-08-25 13:47:00,78.6,66.8,30.18,South,190,4.0,4.5,67,0.04,,---,0.04,VWS V14.01,2013-08-25 18:47:00,
2013-08-25 13:48:00,78.4,66.6,30.18,South,183,5.4,5.8,67,0.04,,---,0.04,VWS V14.01,2013-08-25 18:48:00,
2013-08-25 13:49:00,78.6,66.8,30.18,SW,236,2.2,5.4,67,0.04,,---,0.04,VWS V14.01,2013-08-25 18:49:00,
2013-08-25 13:50:00,78.6,66.8,30.18,South,187,3.6,3.6,67,0.04,,---,0.04,VWS V14.01,2013-08-25 18:50:00,
2013-08-25 13:51:00,78.6,66.8,30.18,SW,229,6.3,6.3,67,0.12,,---,0.12,VWS V14.01,2013-08-25 18:51:00,
2013-08-25 13:52:00,78.4,66.6,30.18,WNW,296,0.0,3.6,67,0.12,,---,0.12,VWS V14.01,2013-08-25 18:52:00,
2013-08-25 13:53:00,78.4,67.0,30.18,SSW,201,4.5,4.5,68,0.12,,---,0.12,VWS V14.01,2013-08-25 18:53:00,
2013-08-25 13:54:00,78.6,67.2,30.18,SSW,199,4.0,4.5,68,0.12,,---,0.12,VWS V14.01,2013-08-25 18:54:00,
2013-08-25 13:55:00,78.4,67.0,30.18,South,186,2.7,4.0,68,0.16,,---,0.16,VWS V14.01,2013-08-25 18:55:00,
2013-08-25 13:56:00,78.4,67.0,30.18,South,171,3.6,4.0,68,0.16,,---,0.16,VWS V14.01,2013-08-25 18:56:00,
2013-08-25 13:57:00,78.4,67.4,30.18,North,357,2.2,3.6,69,0.16,,---,0.16,VWS V14.01,2013-08-25 18:57:00,
2013-08-25 13:58:00,78.6,67.6,30.18,SW,220,3.1,3.1,69,0.16,,---,0.16,VWS V14.01,2013-08-25 18:58:00,
2013-08-25 13:59:00,78.6,67.6,30.18,SSW,208,2.7,3.1,69,0.16,,---,0.16,VWS V14.01,2013-08-25 18:59:00,
2013-08-25 14:00:00,79.0,67.5,30.18,SW,234,4.0,4.9,68,0.16,,---,0.16,VWS V14.01,2013-08-25 19:00:00,
2013-08-25 14:01:00,79.0,67.5,30.18,SW,234,4.0,4.9,68,0.16,,---,0.16,VWS V14.01,2013-08-25 19:01:00,
2013-08-25 14:02:00,79.0,67.5,30.18,SW,233,0.0,4.0,68,0.16,,---,0.16,VWS V14.01,2013-08-25 19:02:00,
2013-08-25 14:03:00,79.3,67.9,30.18,West,266,3.1,3.6,68,0.16,,---,0.16,VWS V14.01,2013-08-25 19:03:00,
2013-08-25 14:04:00,79.5,68.0,30.18,WNW,291,3.6,3.6,68,0.16,,---,0.16,VWS V14.01,2013-08-25 19:04:00,
2013-08-25 14:05:00,79.9,68.4,30.18,West,272,2.2,3.1,68,0.16,,---,0.16,VWS V14.01,2013-08-25 19:05:00,
2013-08-25 14:06:00,79.9,68.4,30.18,West,272,2.2,3.1,68,0.16,,---,0.16,VWS V14.01,2013-08-25 19:06:00,
2013-08-25 14:07:00,80.1,68.6,30.15,West,270,0.0,2.2,68,0.16,,---,0.16,VWS V14.01,2013-08-25 19:07:00,
2013-08-25 14:08:00,80.2,68.7,30.15,WNW,300,0.0,0.0,68,0.16,,---,0.16,VWS V14.01,2013-08-25 19:08:00,
2013-08-25 14:09:00,80.6,68.6,30.15,WNW,300,0.0,0.0,67,0.16,,---,0.16,VWS V14.01,2013-08-25 19:09:00,
2013-08-25 14:10:00,80.6,68.6,30.15,SSW,205,0.0,3.6,67,0.16,,---,0.16,VWS V14.01,2013-08-25 19:10:00,
2013-08-25 14:11:00,80.6,68.6,30.15,WSW,239,4.9,4.9,67,0.16,,---,0.16,VWS V14.01,2013-08-25 19:11:00,
2013-08-25 14:12:00,80.6,68.6,30.15,SSW,213,0.0,4.9,67,0.16,,---,0.16,VWS V14.01,2013-08-25 19:12:00,
2013-08-25 14:13:00,80.6,68.6,30.15,SSW,209,2.7,2.7,67,0.16,,---,0.16,VWS V14.01,2013-08-25 19:13:00,
2013-08-25 14:14:00,80.6,68.6,30.15,SSW,205,0.0,2.7,67,0.16,,---,0.16,VWS V14.01,2013-08-25 19:14:00,
2013-08-25 14:15:00,81.0,69.0,30.15,West,264,0.0,0.0,67,0.16,,---,0.16,VWS V14.01,2013-08-25 19:15:00,
2013-08-25 14:16:00,81.0,69.0,30.15,West,264,0.0,0.0,67,0.16,,---,0.16,VWS V14.01,2013-08-25 19:16:00,
2013-08-25 14:17:00,81.0,69.0,30.15,West,264,0.0,0.0,67,0.16,,---,0.16,VWS V14.01,2013-08-25 19:17:00,
2013-08-25 14:18:00,81.1,69.2,30.15,WSW,243,0.0,0.0,67,0.16,,---,0.16,VWS V14.01,2013-08-25 19:18:00,
2013-08-25 14:19:00,81.1,69.2,30.15,WSW,238,0.0,0.0,67,0.16,,---,0.16,VWS V14.01,2013-08-25 19:19:00,
2013-08-25 14:20:00,80.8,68.4,30.15,SSW,192,2.7,4.0,66,0.16,,---,0.16,VWS V14.01,2013-08-25 19:20:00,
2013-08-25 14:21:00,80.8,68.4,30.15,SSW,192,2.7,4.0,66,0.16,,---,0.16,VWS V14.01,2013-08-25 19:21:00,
2013-08-25 14:22:00,80.8,68.4,30.15,SSW,195,0.0,4.0,66,0.16,,---,0.16,VWS V14.01,2013-08-25 19:22:00,
2013-08-25 14:23:00,81.0,68.5,30.15,SSW,195,0.0,0.0,66,0.16,,---,0.16,VWS V14.01,2013-08-25 19:23:00,
2013-08-25 14:24:00,81.1,68.7,30.15,SSW,195,0.0,0.0,66,0.16,,---,0.16,VWS V14.01,2013-08-25 19:24:00,
2013-08-25 14:25:00,81.3,68.9,30.15,SSW,195,0.0,0.0,66,0.16,,---,0.16,VWS V14.01,2013-08-25 19:25:00,
2013-08-25 14:26:00,81.3,68.9,30.15,SSW,195,0.0,0.0,66,0.16,,---,0.16,VWS V14.01,2013-08-25 19:26:00,
2013-08-25 14:27:00,81.3,68.9,30.15,WSW,242,0.0,2.7,66,0.16,,---,0.16,VWS V14.01,2013-08-25 19:27:00,
2013-08-25 14:28:00,81.3,68.9,30.15,WSW,242,0.0,0.0,66,0.20,,---,0.20,VWS V14.01,2013-08-25 19:28:00,
2013-08-25 14:29:00,81.3,68.4,30.15,South,182,3.1,4.5,65,0.20,,---,0.20,VWS V14.01,2013-08-25 19:29:00,
2013-08-25 14:30:00,81.3,68.4,30.15,South,184,0.0,3.6,65,0.20,,---,0.20,VWS V14.01,2013-08-25 19:30:00,
2013-08-25 14:31:00,81.3,68.4,30.15,SE,138,2.2,3.6,65,0.20,,---,0.20,VWS V14.01,2013-08-25 19:31:00,
2013-08-25 14:32:00,81.3,68.4,30.15,SW,227,0.0,3.1,65,0.20,,---,0.20,VWS V14.01,2013-08-25 19:32:00,
2013-08-25 14:33:00,81.3,68.4,30.15,SW,227,0.0,0.0,65,0.20,,---,0.20,VWS V14.01,2013-08-25 19:33:00,
2013-08-25 14:34:00,81.5,68.6,30.15,South,177,2.7,3.1,65,0.20,,---,0.20,VWS V14.01,2013-08-25 19:34:00,
2013-08-25 14:35:00,81.7,68.3,30.15,South,184,0.0,0.0,64,0.20,,---,0.20,VWS V14.01,2013-08-25 19:35:00,
2013-08-25 14:36:00,81.7,68.3,30.15,South,184,0.0,0.0,64,0.20,,---,0.20,VWS V14.01,2013-08-25 19:36:00,
2013-08-25 14:37:00,81.7,68.3,30.15,SW,230,0.0,0.0,64,0.20,,---,0.20,VWS V14.01,2013-08-25 19:37:00,
2013-08-25 14:38:00,81.9,68.5,30.15,SW,230,0.0,0.0,64,0.20,,---,0.20,VWS V14.01,2013-08-25 19:38:00,
2013-08-25 14:39:00,81.9,68.5,30.15,South,181,0.0,2.7,64,0.16,,---,0.20,VWS V14.01,2013-08-25 19:39:00,
2013-08-25 14:40:00,82.2,68.8,30.15,South,181,0.0,0.0,64,0.16,,---,0.20,VWS V14.01,2013-08-25 19:40:00,
2013-08-25 14:41:00,82.2,68.8,30.15,South,181,0.0,0.0,64,0.16,,---,0.20,VWS V14.01,2013-08-25 19:41:00,
2013-08-25 14:42:00,82.4,69.0,30.15,South,181,0.0,0.0,64,0.16,,---,0.20,VWS V14.01,2013-08-25 19:42:00,
2013-08-25 14:43:00,82.4,68.6,30.15,SSE,162,0.0,0.0,63,0.16,,---,0.20,VWS V14.01,2013-08-25 19:43:00,
2013-08-25 14:44:00,82.6,68.7,30.15,NNW,328,0.0,0.0,63,0.16,,---,0.20,VWS V14.01,2013-08-25 19:44:00,
2013-08-25 14:45:00,82.6,68.2,30.15,South,183,2.7,3.6,62,0.16,,---,0.20,VWS V14.01,2013-08-25 19:45:00,
2013-08-25 14:46:00,82.6,68.2,30.15,South,183,2.7,3.6,62,0.16,,---,0.20,VWS V14.01,2013-08-25 19:46:00,
2013-08-25 14:47:00,82.6,68.2,30.15,South,183,0.0,2.7,62,0.16,,---,0.20,VWS V14.01,2013-08-25 19:47:00,
2013-08-25 14:48:00,82.8,68.9,30.15,South,183,0.0,0.0,63,0.16,,---,0.20,VWS V14.01,2013-08-25 19:48:00,
2013-08-25 14:49:00,82.9,69.1,30.15,South,183,0.0,0.0,63,0.16,,---,0.20,VWS V14.01,2013-08-25 19:49:00,
2013-08-25 14:50:00,82.9,68.6,30.15,SW,226,0.0,0.0,62,0.16,,---,0.20,VWS V14.01,2013-08-25 19:50:00,
2013-08-25 14:51:00,82.9,68.6,30.15,SW,226,0.0,0.0,62,0.16,,---,0.20,VWS V14.01,2013-08-25 19:51:00,
2013-08-25 14:52:00,83.1,68.8,30.15,SW,226,0.0,0.0,62,0.08,,---,0.20,VWS V14.01,2013-08-25 19:52:00,
2013-08-25 14:53:00,83.1,68.8,30.15,ENE,63,0.0,0.0,62,0.08,,---,0.20,VWS V14.01,2013-08-25 19:53:00,
2013-08-25 14:54:00,83.1,68.8,30.15,ENE,68,2.7,3.1,62,0.08,,---,0.20,VWS V14.01,2013-08-25 19:54:00,
2013-08-25 14:55:00,83.3,68.5,30.15,ENE,68,0.0,0.0,61,0.04,,---,0.20,VWS V14.01,2013-08-25 19:55:00,
2013-08-25 14:56:00,83.3,68.5,30.15,ENE,68,0.0,0.0,61,0.04,,---,0.20,VWS V14.01,2013-08-25 19:56:00,
2013-08-25 14:57:00,83.3,68.5,30.15,ENE,68,0.0,0.0,61,0.04,,---,0.20,VWS V14.01,2013-08-25 19:57:00,
2013-08-25 14:58:00,83.3,68.5,30.15,ENE,68,0.0,0.0,61,0.04,,---,0.20,VWS V14.01,2013-08-25 19:58:00,
2013-08-25 14:59:00,83.3,68.5,30.15,ENE,68,0.0,0.0,61,0.04,,---,0.20,VWS V14.01,2013-08-25 19:59:00,
2013-08-25 15:00:00,83.5,68.6,30.15,ENE,68,0.0,0.0,61,0.04,,---,0.20,VWS V14.01,2013-08-25 20:00:00,
2013-08-25 15:01:00,83.5,68.6,30.15,ENE,68,0.0,0.0,61,0.04,,---,0.20,VWS V14.01,2013-08-25 20:01:00,
2013-08-25 15:02:00,83.3,68.5,30.15,West,280,0.0,3.1,61,0.04,,---,0.20,VWS V14.01,2013-08-25 20:02:00,
2013-08-25 15:03:00,83.3,68.5,30.15,WSW,244,0.0,0.0,61,0.04,,---,0.20,VWS V14.01,2013-08-25 20:03:00,
2013-08-25 15:04:00,83.3,68.5,30.15,WSW,243,0.0,0.0,61,0.04,,---,0.20,VWS V14.01,2013-08-25 20:04:00,
2013-08-25 15:05:00,83.1,68.3,30.15,NE,52,0.0,0.0,61,0.04,,---,0.20,VWS V14.01,2013-08-25 20:05:00,
2013-08-25 15:06:00,83.1,68.3,30.15,NE,52,0.0,0.0,61,0.04,,---,0.20,VWS V14.01,2013-08-25 20:06:00,
2013-08-25 15:07:00,82.9,68.1,30.15,NW,317,0.0,0.0,61,0.04,,---,0.20,VWS V14.01,2013-08-25 20:07:00,
2013-08-25 15:08:00,82.9,68.1,30.15,NW,317,0.0,0.0,61,0.04,,---,0.20,VWS V14.01,2013-08-25 20:08:00,
2013-08-25 15:09:00,82.8,67.9,30.15,NW,317,0.0,0.0,61,0.04,,---,0.20,VWS V14.01,2013-08-25 20:09:00,
2013-08-25 15:10:00,82.8,68.4,30.15,NW,317,0.0,0.0,62,0.04,,---,0.20,VWS V14.01,2013-08-25 20:10:00,
2013-08-25 15:11:00,82.8,68.4,30.15,NW,317,0.0,0.0,62,0.04,,---,0.20,VWS V14.01,2013-08-25 20:11:00,
2013-08-25 15:12:00,82.8,68.4,30.15,NW,317,0.0,0.0,62,0.04,,---,0.20,VWS V14.01,2013-08-25 20:12:00,
2013-08-25 15:13:00,82.8,68.4,30.15,NW,317,0.0,0.0,62,0.04,,---,0.20,VWS V14.01,2013-08-25 20:13:00,
2013-08-25 15:14:00,82.8,68.4,30.15,NW,317,0.0,0.0,62,0.04,,---,0.20,VWS V14.01,2013-08-25 20:14:00,
2013-08-25 15:15:00,82.8,68.4,30.15,NW,317,0.0,0.0,62,0.04,,---,0.20,VWS V14.01,2013-08-25 20:15:00,
2013-08-25 15:16:00,82.8,68.4,30.15,NW,317,0.0,0.0,62,0.04,,---,0.20,VWS V14.01,2013-08-25 20:16:00,
2013-08-25 15:17:00,82.8,68.4,30.15,NW,317,0.0,0.0,62,0.04,,---,0.20,VWS V14.01,2013-08-25 20:17:00,
2013-08-25 15:18:00,82.8,68.4,30.15,NW,317,0.0,0.0,62,0.04,,---,0.20,VWS V14.01,2013-08-25 20:18:00,
2013-08-25 15:19:00,82.8,68.4,30.15,NW,317,0.0,0.0,62,0.04,,---,0.20,VWS V14.01,2013-08-25 20:19:00,
2013-08-25 15:20:00,82.9,68.6,30.15,NW,317,0.0,0.0,62,0.04,,---,0.20,VWS V14.01,2013-08-25 20:20:00,
2013-08-25 15:22:00,82.9,68.6,30.15,NW,317,0.0,0.0,62,0.04,,---,0.20,VWS V14.01,2013-08-25 20:22:00,
2013-08-25 15:23:00,83.1,68.8,30.15,NW,317,0.0,0.0,62,0.04,,---,0.20,VWS V14.01,2013-08-25 20:23:00,
2013-08-25 15:24:00,83.1,68.8,30.15,West,280,0.0,0.0,62,0.04,,---,0.20,VWS V14.01,2013-08-25 20:24:00,
2013-08-25 15:25:00,82.9,68.6,30.15,South,177,0.0,4.0,62,0.04,,---,0.20,VWS V14.01,2013-08-25 20:25:00,
2013-08-25 15:26:00,82.9,68.6,30.15,South,177,0.0,4.0,62,0.04,,---,0.20,VWS V14.01,2013-08-25 20:26:00,
2013-08-25 15:27:00,83.1,68.8,30.15,South,177,0.0,0.0,62,0.04,,---,0.20,VWS V14.01,2013-08-25 20:27:00,
2013-08-25 15:28:00,83.1,68.8,30.15,WNW,295,0.0,0.0,62,0.04,,---,0.20,VWS V14.01,2013-08-25 20:28:00,
2013-08-25 15:29:00,83.3,68.9,30.15,WNW,295,0.0,0.0,62,0.00,,---,0.20,VWS V14.01,2013-08-25 20:29:00,
2013-08-25 15:30:00,83.5,69.1,30.15,SW,228,0.0,0.0,62,0.00,,---,0.20,VWS V14.01,2013-08-25 20:30:00,
2013-08-25 15:31:00,83.5,69.1,30.15,SW,229,0.0,0.0,62,0.00,,---,0.20,VWS V14.01,2013-08-25 20:31:00,
2013-08-25 15:32:00,83.5,69.1,30.15,SW,228,0.0,0.0,62,0.00,,---,0.20,VWS V14.01,2013-08-25 20:32:00,
2013-08-25 15:33:00,83.5,69.1,30.15,SW,228,0.0,0.0,62,0.00,,---,0.20,VWS V14.01,2013-08-25 20:33:00,
2013-08-25 15:34:00,83.7,69.3,30.15,SW,228,0.0,0.0,62,0.00,,---,0.20,VWS V14.01,2013-08-25 20:34:00,
2013-08-25 15:35:00,83.8,69.0,30.15,SW,228,0.0,0.0,61,0.00,,---,0.20,VWS V14.01,2013-08-25 20:35:00,
2013-08-25 15:36:00,83.8,69.0,30.15,SW,228,0.0,0.0,61,0.00,,---,0.20,VWS V14.01,2013-08-25 20:36:00,
2013-08-25 15:37:00,83.8,69.0,30.15,SW,228,0.0,0.0,61,0.00,,---,0.20,VWS V14.01,2013-08-25 20:37:00,
2013-08-25 15:38:00,83.8,69.0,30.15,SW,228,0.0,0.0,61,0.00,,---,0.20,VWS V14.01,2013-08-25 20:38:00,
2013-08-25 15:39:00,84.0,69.1,30.15,SW,229,0.0,0.0,61,0.00,,---,0.20,VWS V14.01,2013-08-25 20:39:00,
2013-08-25 15:40:00,84.0,69.1,30.15,SW,228,0.0,0.0,61,0.00,,---,0.00,VWS V14.01,2013-08-25 20:40:00,
2013-08-25 15:41:00,84.0,69.1,30.15,SW,228,0.0,0.0,61,0.00,,---,0.20,VWS V14.01,2013-08-25 20:41:00,
2013-08-25 15:42:00,84.0,69.1,30.15,SW,228,0.0,0.0,61,0.00,,---,0.20,VWS V14.01,2013-08-25 20:42:00,
2013-08-25 15:43:00,84.0,69.1,30.15,SW,228,0.0,0.0,61,0.00,,---,0.20,VWS V14.01,2013-08-25 20:43:00,
2013-08-25 15:44:00,84.0,69.1,30.15,SW,229,0.0,0.0,61,0.00,,---,0.20,VWS V14.01,2013-08-25 20:44:00,
2013-08-25 15:45:00,84.0,69.1,30.15,SW,229,0.0,0.0,61,0.00,,---,0.20,VWS V14.01,2013-08-25 20:45:00,
2013-08-25 15:46:00,84.0,69.1,30.15,SW,229,0.0,0.0,61,0.00,,---,0.20,VWS V14.01,2013-08-25 20:46:00,
2013-08-25 15:47:00,84.0,69.1,30.15,SW,229,0.0,0.0,61,0.00,,---,0.20,VWS V14.01,2013-08-25 20:47:00,
2013-08-25 15:48:00,84.0,69.1,30.15,SW,229,0.0,0.0,61,0.00,,---,0.20,VWS V14.01,2013-08-25 20:48:00,
2013-08-25 15:49:00,84.0,69.1,30.15,SW,229,0.0,0.0,61,0.00,,---,0.20,VWS V14.01,2013-08-25 20:49:00,
2013-08-25 15:50:00,84.0,69.1,30.15,SW,229,0.0,0.0,61,0.00,,---,0.20,VWS V14.01,2013-08-25 20:50:00,
2013-08-25 15:51:00,84.0,69.1,30.15,SW,229,0.0,0.0,61,0.00,,---,0.20,VWS V14.01,2013-08-25 20:51:00,
2013-08-25 15:52:00,84.0,69.1,30.15,SW,221,0.0,4.0,61,0.00,,---,0.20,VWS V14.01,2013-08-25 20:52:00,
2013-08-25 15:53:00,84.0,68.7,30.15,SW,227,4.0,4.0,60,0.00,,---,0.20,VWS V14.01,2013-08-25 20:53:00,
2013-08-25 15:54:00,83.8,68.5,30.15,NNE,15,0.0,5.8,60,0.00,,---,0.20,VWS V14.01,2013-08-25 20:54:00,
2013-08-25 15:55:00,83.8,68.5,30.15,NW,325,0.0,0.0,60,0.00,,---,0.00,VWS V14.01,2013-08-25 20:55:00,
2013-08-25 15:56:00,83.8,68.5,30.15,NW,325,0.0,0.0,60,0.00,,---,0.20,VWS V14.01,2013-08-25 20:56:00,
2013-08-25 15:57:00,83.8,68.5,30.15,NW,306,0.0,0.0,60,0.00,,---,0.20,VWS V14.01,2013-08-25 20:57:00,
2013-08-25 15:58:00,84.0,68.7,30.15,NW,306,0.0,0.0,60,0.00,,---,0.20,VWS V14.01,2013-08-25 20:58:00,
2013-08-25 15:59:00,84.0,68.7,30.15,NW,306,0.0,0.0,60,0.00,,---,0.20,VWS V14.01,2013-08-25 20:59:00,
2013-08-25 16:00:00,84.0,68.7,30.15,WNW,301,0.0,0.0,60,0.00,,---,0.20,VWS V14.01,2013-08-25 21:00:00,
2013-08-25 16:01:00,84.0,68.7,30.15,WNW,301,0.0,0.0,60,0.00,,---,0.20,VWS V14.01,2013-08-25 21:01:00,
2013-08-25 16:02:00,84.0,69.1,30.15,WNW,301,0.0,0.0,61,0.00,,---,0.20,VWS V14.01,2013-08-25 21:02:00,
2013-08-25 16:03:00,84.0,68.7,30.15,WNW,301,0.0,0.0,60,0.00,,---,0.20,VWS V14.01,2013-08-25 21:03:00,
2013-08-25 16:04:00,84.2,68.8,30.15,WNW,301,0.0,0.0,60,0.00,,---,0.20,VWS V14.01,2013-08-25 21:04:00,
2013-08-25 16:05:00,84.2,68.8,30.12,WNW,301,0.0,0.0,60,0.00,,---,0.00,VWS V14.01,2013-08-25 21:05:00,
2013-08-25 16:06:00,84.2,68.8,30.12,WNW,301,0.0,0.0,60,0.00,,---,0.20,VWS V14.01,2013-08-25 21:06:00,
2013-08-25 16:07:00,84.2,68.8,30.12,WNW,301,0.0,0.0,60,0.00,,---,0.20,VWS V14.01,2013-08-25 21:07:00,
2013-08-25 16:08:00,84.2,68.8,30.12,WNW,297,0.0,0.0,60,0.00,,---,0.20,VWS V14.01,2013-08-25 21:08:00,
2013-08-25 16:09:00,84.2,68.3,30.12,WNW,297,0.0,0.0,59,0.00,,---,0.20,VWS V14.01,2013-08-25 21:09:00,
2013-08-25 16:10:00,84.4,68.5,30.12,WNW,297,0.0,0.0,59,0.00,,---,0.20,VWS V14.01,2013-08-25 21:10:00,
2013-08-25 16:11:00,84.4,68.5,30.12,WNW,297,0.0,0.0,59,0.00,,---,0.20,VWS V14.01,2013-08-25 21:11:00,
2013-08-25 16:12:00,84.6,68.7,30.12,WNW,296,0.0,0.0,59,0.00,,---,0.20,VWS V14.01,2013-08-25 21:12:00,
2013-08-25 16:13:00,84.6,68.7,30.12,WNW,301,0.0,0.0,59,0.00,,---,0.20,VWS V14.01,2013-08-25 21:13:00,
2013-08-25 16:14:00,84.6,68.7,30.12,WNW,301,0.0,0.0,59,0.00,,---,0.20,VWS V14.01,2013-08-25 21:14:00,
2013-08-25 16:15:00,84.6,68.2,30.12,South,189,2.2,3.6,58,0.00,,---,0.20,VWS V14.01,2013-08-25 21:15:00,
2013-08-25 16:16:00,84.6,68.2,30.12,South,189,0.0,3.6,58,0.00,,---,0.20,VWS V14.01,2013-08-25 21:16:00,
2013-08-25 16:17:00,84.7,67.8,30.12,SW,220,5.4,5.4,57,0.00,,---,0.20,VWS V14.01,2013-08-25 21:17:00,
2013-08-25 16:18:00,84.7,67.8,30.12,SW,215,3.1,5.4,57,0.00,,---,0.20,VWS V14.01,2013-08-25 21:18:00,
2013-08-25 16:19:00,84.7,67.8,30.12,WNW,284,3.6,3.6,57,0.00,,---,0.20,VWS V14.01,2013-08-25 21:19:00,
2013-08-25 16:20:00,84.9,67.5,30.12,SSE,157,0.0,2.2,56,0.00,,---,0.00,VWS V14.01,2013-08-25 21:20:00,
2013-08-25 16:21:00,84.9,67.5,30.12,SSE,157,0.0,2.2,56,0.00,,---,0.20,VWS V14.01,2013-08-25 21:21:00,
2013-08-25 16:22:00,85.1,67.7,30.12,SSE,157,0.0,0.0,56,0.00,,---,0.20,VWS V14.01,2013-08-25 21:22:00,
2013-08-25 16:23:00,85.1,67.7,30.12,WSW,242,0.0,0.0,56,0.00,,---,0.20,VWS V14.01,2013-08-25 21:23:00,
2013-08-25 16:24:00,85.3,67.8,30.12,NW,310,3.1,3.1,56,0.00,,---,0.20,VWS V14.01,2013-08-25 21:24:00,
2013-08-25 16:25:00,85.3,67.8,30.12,SSW,204,0.0,0.0,56,0.00,,---,0.20,VWS V14.01,2013-08-25 21:25:00,
2013-08-25 16:26:00,85.5,68.0,30.12,SSW,204,0.0,0.0,56,0.00,,---,0.20,VWS V14.01,2013-08-25 21:26:00,
2013-08-25 16:27:00,85.3,67.3,30.12,East,82,2.2,5.4,55,0.00,,---,0.20,VWS V14.01,2013-08-25 21:27:00,
2013-08-25 16:28:00,85.5,67.5,30.12,WNW,297,2.2,4.0,55,0.00,,---,0.20,VWS V14.01,2013-08-25 21:28:00,
2013-08-25 16:29:00,85.5,67.5,30.12,WNW,288,3.6,3.6,55,0.00,,---,0.20,VWS V14.01,2013-08-25 21:29:00,
2013-08-25 16:30:00,85.6,67.1,30.12,South,184,2.2,2.2,54,0.00,,---,0.20,VWS V14.01,2013-08-25 21:30:00,
2013-08-25 16:31:00,85.6,67.1,30.12,South,184,0.0,2.2,54,0.00,,---,0.20,VWS V14.01,2013-08-25 21:31:00,
2013-08-25 16:32:00,85.6,66.6,30.12,South,185,3.1,3.1,53,0.00,,---,0.20,VWS V14.01,2013-08-25 21:32:00,
2013-08-25 16:33:00,85.6,66.6,30.12,SSW,202,0.0,3.1,53,0.00,,---,0.20,VWS V14.01,2013-08-25 21:33:00,
2013-08-25 16:34:00,85.8,66.7,30.12,South,178,0.0,4.9,53,0.00,,---,0.20,VWS V14.01,2013-08-25 21:34:00,
2013-08-25 16:35:00,86.0,66.3,30.12,WSW,257,0.0,0.0,52,0.00,,---,0.00,VWS V14.01,2013-08-25 21:35:00,
2013-08-25 16:36:00,86.0,66.3,30.12,WSW,257,0.0,0.0,52,0.00,,---,0.20,VWS V14.01,2013-08-25 21:36:00,
2013-08-25 16:37:00,86.2,65.9,30.12,WSW,240,0.0,0.0,51,0.00,,---,0.20,VWS V14.01,2013-08-25 21:37:00,
2013-08-25 16:38:00,86.2,65.9,30.12,NNW,329,0.0,0.0,51,0.00,,---,0.20,VWS V14.01,2013-08-25 21:38:00,
2013-08-25 16:39:00,86.2,66.5,30.12,NNW,329,0.0,0.0,52,0.00,,---,0.20,VWS V14.01,2013-08-25 21:39:00,
2013-08-25 16:40:00,86.4,66.7,30.12,NW,310,0.0,0.0,52,0.00,,---,0.20,VWS V14.01,2013-08-25 21:40:00,
2013-08-25 16:41:00,86.4,66.7,30.12,North,357,0.0,0.0,52,0.00,,---,0.20,VWS V14.01,2013-08-25 21:41:00,
2013-08-25 16:42:00,86.4,66.7,30.12,North,357,0.0,0.0,52,0.00,,---,0.20,VWS V14.01,2013-08-25 21:42:00,
2013-08-25 16:43:00,86.2,66.5,30.12,North,357,0.0,0.0,52,0.00,,---,0.20,VWS V14.01,2013-08-25 21:43:00,
2013-08-25 16:44:00,86.0,66.3,30.12,North,357,0.0,0.0,52,0.00,,---,0.20,VWS V14.01,2013-08-25 21:44:00,
2013-08-25 16:45:00,85.8,66.7,30.12,North,357,0.0,0.0,53,0.00,,---,0.20,VWS V14.01,2013-08-25 21:45:00,
2013-08-25 16:46:00,85.8,66.7,30.12,North,357,0.0,0.0,53,0.00,,---,0.20,VWS V14.01,2013-08-25 21:46:00,
2013-08-25 16:47:00,85.6,66.6,30.12,SSW,202,0.0,3.1,53,0.00,,---,0.20,VWS V14.01,2013-08-25 21:47:00,
2013-08-25 16:48:00,85.5,66.4,30.12,SSW,202,0.0,0.0,53,0.00,,---,0.20,VWS V14.01,2013-08-25 21:48:00,
2013-08-25 16:49:00,85.5,66.4,30.12,SSW,202,0.0,0.0,53,0.00,,---,0.20,VWS V14.01,2013-08-25 21:49:00,
2013-08-25 16:50:00,85.3,66.8,30.12,SSW,202,0.0,0.0,54,0.00,,---,0.20,VWS V14.01,2013-08-25 21:50:00,
2013-08-25 16:51:00,85.3,66.8,30.12,SSW,202,0.0,0.0,54,0.00,,---,0.20,VWS V14.01,2013-08-25 21:51:00,
2013-08-25 16:52:00,85.1,66.6,30.12,SW,229,0.0,0.0,54,0.00,,---,0.20,VWS V14.01,2013-08-25 21:52:00,
2013-08-25 16:53:00,84.9,66.4,30.12,WSW,240,0.0,2.7,54,0.00,,---,0.20,VWS V14.01,2013-08-25 21:53:00,
2013-08-25 16:54:00,84.9,66.4,30.12,WSW,240,0.0,0.0,54,0.00,,---,0.20,VWS V14.01,2013-08-25 21:54:00,
2013-08-25 16:55:00,84.7,66.8,30.12,WSW,240,0.0,0.0,55,0.00,,---,0.20,VWS V14.01,2013-08-25 21:55:00,
2013-08-25 16:56:00,84.7,66.8,30.12,WSW,240,0.0,0.0,55,0.00,,---,0.20,VWS V14.01,2013-08-25 21:56:00,
2013-08-25 16:57:00,84.7,66.8,30.12,WSW,240,0.0,0.0,55,0.00,,---,0.20,VWS V14.01,2013-08-25 21:57:00,
2013-08-25 16:58:00,84.6,66.6,30.12,WSW,240,0.0,0.0,55,0.00,,---,0.20,VWS V14.01,2013-08-25 21:58:00,
2013-08-25 16:59:00,84.6,67.2,30.12,WSW,240,0.0,0.0,56,0.00,,---,0.20,VWS V14.01,2013-08-25 21:59:00,
2013-08-25 17:00:00,84.6,67.2,30.12,WSW,240,0.0,0.0,56,0.00,,---,0.20,VWS V14.01,2013-08-25 22:00:00,
2013-08-25 17:01:00,84.6,67.2,30.12,WSW,240,0.0,0.0,56,0.00,,---,0.20,VWS V14.01,2013-08-25 22:01:00,
2013-08-25 17:02:00,84.6,67.2,30.12,WSW,240,0.0,0.0,56,0.00,,---,0.20,VWS V14.01,2013-08-25 22:02:00,
2013-08-25 17:03:00,84.4,67.0,30.12,WSW,240,0.0,0.0,56,0.00,,---,0.20,VWS V14.01,2013-08-25 22:03:00,
2013-08-25 17:04:00,84.4,67.0,30.12,WSW,240,0.0,0.0,56,0.00,,---,0.20,VWS V14.01,2013-08-25 22:04:00,
2013-08-25 17:05:00,84.4,67.5,30.12,WSW,240,0.0,0.0,57,0.00,,---,0.20,VWS V14.01,2013-08-25 22:05:00,
2013-08-25 17:06:00,84.4,67.5,30.12,WSW,240,0.0,0.0,57,0.00,,---,0.20,VWS V14.01,2013-08-25 22:06:00,
2013-08-25 17:07:00,84.2,67.3,30.12,WSW,240,0.0,0.0,57,0.00,,---,0.20,VWS V14.01,2013-08-25 22:07:00,
2013-08-25 17:08:00,84.2,67.3,30.12,WSW,240,0.0,0.0,57,0.00,,---,0.20,VWS V14.01,2013-08-25 22:08:00,
2013-08-25 17:09:00,84.2,67.3,30.12,WSW,240,0.0,0.0,57,0.00,,---,0.20,VWS V14.01,2013-08-25 22:09:00,
2013-08-25 17:10:00,84.2,67.3,30.12,WSW,240,0.0,0.0,57,0.00,,---,0.20,VWS V14.01,2013-08-25 22:10:00,
2013-08-25 17:11:00,84.2,67.3,30.12,WSW,240,0.0,0.0,57,0.00,,---,0.20,VWS V14.01,2013-08-25 22:11:00,
2013-08-25 17:12:00,84.2,67.3,30.12,WSW,240,0.0,0.0,57,0.00,,---,0.20,VWS V14.01,2013-08-25 22:12:00,
2013-08-25 17:13:00,84.2,67.8,30.12,WSW,240,0.0,0.0,58,0.00,,---,0.20,VWS V14.01,2013-08-25 22:13:00,
2013-08-25 17:14:00,84.2,67.8,30.12,WSW,241,0.0,0.0,58,0.00,,---,0.20,VWS V14.01,2013-08-25 22:14:00,
2013-08-25 17:15:00,84.2,67.8,30.12,WSW,240,0.0,0.0,58,0.00,,---,0.20,VWS V14.01,2013-08-25 22:15:00,
2013-08-25 17:16:00,84.2,67.8,30.12,WSW,240,0.0,0.0,58,0.00,,---,0.20,VWS V14.01,2013-08-25 22:16:00,
2013-08-25 17:17:00,84.4,68.0,30.12,WSW,240,0.0,0.0,58,0.00,,---,0.20,VWS V14.01,2013-08-25 22:17:00,
2013-08-25 17:18:00,84.4,68.0,30.12,WSW,240,0.0,0.0,58,0.00,,---,0.20,VWS V14.01,2013-08-25 22:18:00,
2013-08-25 17:19:00,84.4,68.0,30.12,WSW,240,0.0,0.0,58,0.00,,---,0.20,VWS V14.01,2013-08-25 22:19:00,
2013-08-25 17:20:00,84.6,68.2,30.12,WSW,240,0.0,0.0,58,0.00,,---,0.20,VWS V14.01,2013-08-25 22:20:00,
2013-08-25 17:21:00,84.6,68.2,30.12,WSW,240,0.0,0.0,58,0.00,,---,0.20,VWS V14.01,2013-08-25 22:21:00,
2013-08-25 17:22:00,84.6,68.2,30.12,WSW,240,0.0,0.0,58,0.00,,---,0.20,VWS V14.01,2013-08-25 22:22:00,
2013-08-25 17:23:00,84.6,68.2,30.12,WSW,240,0.0,0.0,58,0.00,,---,0.20,VWS V14.01,2013-08-25 22:23:00,
2013-08-25 17:24:00,84.6,67.7,30.12,WSW,240,0.0,0.0,57,0.00,,---,0.20,VWS V14.01,2013-08-25 22:24:00,
2013-08-25 17:25:00,84.7,67.8,30.12,WSW,240,0.0,0.0,57,0.00,,---,0.20,VWS V14.01,2013-08-25 22:25:00,
2013-08-25 17:26:00,84.7,67.8,30.12,WSW,240,0.0,0.0,57,0.00,,---,0.20,VWS V14.01,2013-08-25 22:26:00,
2013-08-25 17:27:00,84.7,67.8,30.12,WSW,240,0.0,0.0,57,0.00,,---,0.20,VWS V14.01,2013-08-25 22:27:00,
2013-08-25 17:28:00,84.7,67.8,30.12,WSW,240,0.0,0.0,57,0.00,,---,0.20,VWS V14.01,2013-08-25 22:28:00,
2013-08-25 17:29:00,84.7,67.8,30.12,WSW,240,0.0,0.0,57,0.00,,---,0.20,VWS V14.01,2013-08-25 22:29:00,
2013-08-25 17:30:00,84.6,67.7,30.12,WSW,246,0.0,0.0,57,0.00,,---,0.20,VWS V14.01,2013-08-25 22:30:00,
2013-08-25 17:31:00,84.6,67.7,30.12,WSW,246,0.0,0.0,57,0.00,,---,0.20,VWS V14.01,2013-08-25 22:31:00,
2013-08-25 17:32:00,84.6,67.7,30.12,WSW,246,0.0,0.0,57,0.00,,---,0.20,VWS V14.01,2013-08-25 22:32:00,
2013-08-25 17:33:00,84.6,67.7,30.12,WSW,246,0.0,0.0,57,0.00,,---,0.20,VWS V14.01,2013-08-25 22:33:00,
2013-08-25 17:34:00,84.6,67.7,30.12,WSW,246,0.0,0.0,57,0.00,,---,0.20,VWS V14.01,2013-08-25 22:34:00,
2013-08-25 17:35:00,84.4,67.5,30.12,WSW,246,0.0,0.0,57,0.00,,---,0.20,VWS V14.01,2013-08-25 22:35:00,
2013-08-25 17:36:00,84.4,67.5,30.12,WSW,246,0.0,0.0,57,0.00,,---,0.20,VWS V14.01,2013-08-25 22:36:00,
2013-08-25 17:37:00,84.4,67.5,30.12,WSW,246,0.0,0.0,57,0.00,,---,0.20,VWS V14.01,2013-08-25 22:37:00,
2013-08-25 17:38:00,84.4,67.5,30.12,WSW,244,0.0,0.0,57,0.00,,---,0.20,VWS V14.01,2013-08-25 22:38:00,
2013-08-25 17:39:00,84.4,67.5,30.12,WSW,245,0.0,0.0,57,0.00,,---,0.20,VWS V14.01,2013-08-25 22:39:00,
2013-08-25 17:40:00,84.4,67.5,30.12,South,183,0.0,0.0,57,0.00,,---,0.20,VWS V14.01,2013-08-25 22:40:00,
2013-08-25 17:41:00,84.4,67.5,30.12,South,183,4.9,4.9,57,0.00,,---,0.20,VWS V14.01,2013-08-25 22:41:00,
2013-08-25 17:42:00,84.2,66.8,30.12,South,191,5.4,5.4,56,0.00,,---,0.20,VWS V14.01,2013-08-25 22:42:00,
2013-08-25 17:43:00,84.2,66.8,30.12,South,185,2.2,5.4,56,0.00,,---,0.20,VWS V14.01,2013-08-25 22:43:00,
2013-08-25 17:44:00,84.2,66.8,30.12,South,185,0.0,2.2,56,0.00,,---,0.20,VWS V14.01,2013-08-25 22:44:00,
2013-08-25 17:45:00,84.0,67.2,30.12,South,185,0.0,0.0,57,0.00,,---,0.20,VWS V14.01,2013-08-25 22:45:00,
2013-08-25 17:46:00,84.0,67.2,30.12,South,185,0.0,0.0,57,0.00,,---,0.20,VWS V14.01,2013-08-25 22:46:00,
2013-08-25 17:47:00,84.0,67.2,30.12,South,185,0.0,0.0,57,0.00,,---,0.20,VWS V14.01,2013-08-25 22:47:00,
2013-08-25 17:48:00,84.0,67.2,30.12,South,185,0.0,0.0,57,0.00,,---,0.20,VWS V14.01,2013-08-25 22:48:00,
2013-08-25 17:49:00,83.8,67.0,30.12,South,185,0.0,0.0,57,0.00,,---,0.20,VWS V14.01,2013-08-25 22:49:00,
2013-08-25 17:50:00,83.8,67.5,30.12,South,185,0.0,0.0,58,0.00,,---,0.00,VWS V14.01,2013-08-25 22:50:00,
2013-08-25 17:51:00,83.8,67.5,30.12,South,185,0.0,0.0,58,0.00,,---,0.20,VWS V14.01,2013-08-25 22:51:00,
2013-08-25 17:52:00,83.8,67.5,30.12,South,185,0.0,0.0,58,0.00,,---,0.20,VWS V14.01,2013-08-25 22:52:00,
2013-08-25 17:53:00,83.8,67.5,30.12,South,185,0.0,0.0,58,0.00,,---,0.20,VWS V14.01,2013-08-25 22:53:00,
2013-08-25 17:54:00,83.7,67.3,30.12,South,185,0.0,0.0,58,0.00,,---,0.20,VWS V14.01,2013-08-25 22:54:00,
2013-08-25 17:55:00,83.5,67.7,30.12,South,185,0.0,0.0,59,0.00,,---,0.20,VWS V14.01,2013-08-25 22:55:00,
2013-08-25 17:56:00,83.5,67.7,30.12,South,185,0.0,0.0,59,0.00,,---,0.20,VWS V14.01,2013-08-25 22:56:00,
2013-08-25 17:57:00,83.5,67.7,30.12,South,185,0.0,0.0,59,0.00,,---,0.20,VWS V14.01,2013-08-25 22:57:00,
2013-08-25 17:58:00,83.5,67.7,30.12,South,185,0.0,0.0,59,0.00,,---,0.20,VWS V14.01,2013-08-25 22:58:00,
2013-08-25 17:59:00,83.5,67.7,30.12,ENE,66,0.0,0.0,59,0.00,,---,0.20,VWS V14.01,2013-08-25 22:59:00,
2013-08-25 18:00:00,83.5,67.7,30.12,ENE,66,0.0,0.0,59,0.00,,---,0.20,VWS V14.01,2013-08-25 23:00:00,
2013-08-25 18:01:00,83.5,67.7,30.12,ENE,66,0.0,0.0,59,0.00,,---,0.20,VWS V14.01,2013-08-25 23:01:00,
2013-08-25 18:02:00,83.5,67.7,30.12,ENE,66,0.0,0.0,59,0.00,,---,0.20,VWS V14.01,2013-08-25 23:02:00,
2013-08-25 18:03:00,83.5,67.7,30.12,ENE,66,0.0,0.0,59,0.00,,---,0.20,VWS V14.01,2013-08-25 23:03:00,
2013-08-25 18:04:00,83.5,67.7,30.12,ENE,66,0.0,0.0,59,0.00,,---,0.20,VWS V14.01,2013-08-25 23:04:00,
2013-08-25 18:05:00,83.5,67.7,30.12,ENE,66,0.0,0.0,59,0.00,,---,0.20,VWS V14.01,2013-08-25 23:05:00,
2013-08-25 18:06:00,83.3,67.5,30.12,ENE,66,0.0,0.0,59,0.00,,---,0.20,VWS V14.01,2013-08-25 23:06:00,
2013-08-25 18:07:00,83.3,67.5,30.12,ENE,66,0.0,0.0,59,0.00,,---,0.20,VWS V14.01,2013-08-25 23:07:00,
2013-08-25 18:08:00,83.3,67.5,30.12,ENE,66,0.0,0.0,59,0.00,,---,0.20,VWS V14.01,2013-08-25 23:08:00,
2013-08-25 18:09:00,83.3,67.5,30.12,ENE,66,0.0,0.0,59,0.00,,---,0.20,VWS V14.01,2013-08-25 23:09:00,
2013-08-25 18:10:00,83.1,67.3,30.12,ENE,66,0.0,0.0,59,0.00,,---,0.20,VWS V14.01,2013-08-25 23:10:00,
2013-08-25 18:11:00,83.1,67.3,30.12,ENE,66,0.0,0.0,59,0.00,,---,0.20,VWS V14.01,2013-08-25 23:11:00,
2013-08-25 18:12:00,82.9,67.2,30.12,WSW,249,0.0,0.0,59,0.00,,---,0.20,VWS V14.01,2013-08-25 23:12:00,
2013-08-25 18:13:00,82.9,67.2,30.12,WSW,249,0.0,0.0,59,0.00,,---,0.20,VWS V14.01,2013-08-25 23:13:00,
2013-08-25 18:14:00,82.9,67.2,30.12,WSW,249,0.0,0.0,59,0.00,,---,0.20,VWS V14.01,2013-08-25 23:14:00,
2013-08-25 18:15:00,82.9,67.2,30.12,WSW,254,0.0,0.0,59,0.00,,---,0.20,VWS V14.01,2013-08-25 23:15:00,
2013-08-25 18:16:00,82.9,67.2,30.12,WSW,254,0.0,0.0,59,0.00,,---,0.20,VWS V14.01,2013-08-25 23:16:00,
2013-08-25 18:17:00,82.9,67.2,30.12,WSW,254,0.0,0.0,59,0.00,,---,0.20,VWS V14.01,2013-08-25 23:17:00,
2013-08-25 18:18:00,82.8,67.0,30.12,WSW,243,2.7,2.7,59,0.00,,---,0.20,VWS V14.01,2013-08-25 23:18:00,
2013-08-25 18:19:00,82.8,67.0,30.12,SSW,194,0.0,3.1,59,0.00,,---,0.20,VWS V14.01,2013-08-25 23:19:00,
2013-08-25 18:20:00,82.8,67.0,30.12,SSW,194,0.0,0.0,59,0.00,,---,0.20,VWS V14.01,2013-08-25 23:20:00,
2013-08-25 18:21:00,82.8,67.0,30.12,SSW,194,0.0,0.0,59,0.00,,---,0.20,VWS V14.01,2013-08-25 23:21:00,
2013-08-25 18:22:00,82.6,66.8,30.12,SSW,194,0.0,0.0,59,0.00,,---,0.20,VWS V14.01,2013-08-25 23:22:00,
2013-08-25 18:23:00,82.6,66.8,30.12,SSW,194,0.0,0.0,59,0.00,,---,0.20,VWS V14.01,2013-08-25 23:23:00,
2013-08-25 18:24:00,82.6,66.8,30.12,SSW,194,0.0,0.0,59,0.00,,---,0.20,VWS V14.01,2013-08-25 23:24:00,
2013-08-25 18:25:00,82.6,66.8,30.12,SSW,194,0.0,0.0,59,0.00,,---,0.20,VWS V14.01,2013-08-25 23:25:00,
2013-08-25 18:26:00,82.6,66.8,30.12,SSW,194,0.0,0.0,59,0.00,,---,0.20,VWS V14.01,2013-08-25 23:26:00,
2013-08-25 18:27:00,82.6,66.8,30.12,SSW,194,0.0,0.0,59,0.00,,---,0.20,VWS V14.01,2013-08-25 23:27:00,
2013-08-25 18:28:00,82.6,66.8,30.12,SSW,194,0.0,0.0,59,0.00,,---,0.20,VWS V14.01,2013-08-25 23:28:00,
2013-08-25 18:29:00,82.4,66.7,30.12,SSW,194,0.0,0.0,59,0.00,,---,0.20,VWS V14.01,2013-08-25 23:29:00,
2013-08-25 18:30:00,82.4,67.1,30.12,SSW,194,0.0,0.0,60,0.00,,---,0.20,VWS V14.01,2013-08-25 23:30:00,
2013-08-25 18:31:00,82.4,67.1,30.12,SSW,194,0.0,0.0,60,0.00,,---,0.20,VWS V14.01,2013-08-25 23:31:00,
2013-08-25 18:32:00,82.4,67.1,30.12,SSW,194,0.0,0.0,60,0.00,,---,0.20,VWS V14.01,2013-08-25 23:32:00,
2013-08-25 18:33:00,82.4,67.1,30.12,SSW,194,0.0,0.0,60,0.00,,---,0.20,VWS V14.01,2013-08-25 23:33:00,
2013-08-25 18:34:00,82.4,67.1,30.12,SSW,199,2.7,5.4,60,0.00,,---,0.20,VWS V14.01,2013-08-25 23:34:00,
2013-08-25 18:35:00,82.4,66.7,30.15,West,279,0.0,0.0,59,0.00,,---,0.20,VWS V14.01,2013-08-25 23:35:00,
2013-08-25 18:36:00,82.4,67.1,30.15,SSW,199,0.0,0.0,60,0.00,,---,0.20,VWS V14.01,2013-08-25 23:36:00,
2013-08-25 18:37:00,82.2,67.0,30.15,SSE,156,0.0,3.1,60,0.00,,---,0.20,VWS V14.01,2013-08-25 23:37:00,
2013-08-25 18:38:00,82.2,66.5,30.15,West,262,0.0,0.0,59,0.00,,---,0.20,VWS V14.01,2013-08-25 23:38:00,
2013-08-25 18:39:00,82.2,66.5,30.15,West,262,0.0,0.0,59,0.00,,---,0.20,VWS V14.01,2013-08-25 23:39:00,
2013-08-25 18:40:00,82.2,66.0,30.15,SSW,203,2.7,3.6,58,0.00,,---,0.20,VWS V14.01,2013-08-25 23:40:00,
2013-08-25 18:41:00,82.2,66.0,30.15,SSW,203,2.7,3.6,58,0.00,,---,0.20,VWS V14.01,2013-08-25 23:41:00,
2013-08-25 18:42:00,82.2,65.5,30.15,SSW,206,3.1,4.0,57,0.00,,---,0.20,VWS V14.01,2013-08-25 23:42:00,
2013-08-25 18:43:00,82.2,65.5,30.15,SSW,195,0.0,4.0,57,0.00,,---,0.20,VWS V14.01,2013-08-25 23:43:00,
2013-08-25 18:44:00,82.2,65.5,30.15,WSW,240,0.0,3.6,57,0.00,,---,0.20,VWS V14.01,2013-08-25 23:44:00,
2013-08-25 18:45:00,82.0,64.8,30.15,WSW,238,0.0,0.0,56,0.00,,---,0.20,VWS V14.01,2013-08-25 23:45:00,
2013-08-25 18:46:00,82.0,64.8,30.15,South,191,3.1,3.1,56,0.00,,---,0.20,VWS V14.01,2013-08-25 23:46:00,
2013-08-25 18:47:00,82.0,64.8,30.15,South,185,4.9,6.3,56,0.00,,---,0.20,VWS V14.01,2013-08-25 23:47:00,
2013-08-25 18:48:00,81.9,64.6,30.15,SW,230,2.7,4.9,56,0.00,,---,0.20,VWS V14.01,2013-08-25 23:48:00,
2013-08-25 18:49:00,82.0,64.8,30.15,SW,230,0.0,2.7,56,0.00,,---,0.20,VWS V14.01,2013-08-25 23:49:00,
2013-08-25 18:50:00,81.9,64.6,30.15,SSE,160,0.0,2.2,56,0.00,,---,0.20,VWS V14.01,2013-08-25 23:50:00,
2013-08-25 18:51:00,81.9,64.6,30.15,SSE,166,4.0,4.0,56,0.00,,---,0.20,VWS V14.01,2013-08-25 23:51:00,
2013-08-25 18:52:00,81.9,64.6,30.15,SW,231,4.9,4.9,56,0.00,,---,0.20,VWS V14.01,2013-08-25 23:52:00,
2013-08-25 18:53:00,81.7,64.5,30.15,SW,219,3.1,4.9,56,0.00,,---,0.20,VWS V14.01,2013-08-25 23:53:00,
2013-08-25 18:54:00,81.7,64.5,30.15,SSW,211,0.0,3.6,56,0.00,,---,0.20,VWS V14.01,2013-08-25 23:54:00,
2013-08-25 18:55:00,81.7,64.5,30.15,SSW,211,0.0,0.0,56,0.00,,---,0.20,VWS V14.01,2013-08-25 23:55:00,
2013-08-25 18:56:00,81.7,64.5,30.15,SW,229,3.1,3.1,56,0.00,,---,0.20,VWS V14.01,2013-08-25 23:56:00,
2013-08-25 18:57:00,81.5,64.3,30.15,South,188,0.0,4.0,56,0.00,,---,0.20,VWS V14.01,2013-08-25 23:57:00,
2013-08-25 18:58:00,81.5,64.8,30.15,SSW,206,0.0,0.0,57,0.00,,---,0.20,VWS V14.01,2013-08-25 23:58:00,
2013-08-25 18:59:00,81.5,64.8,30.15,SSW,206,0.0,0.0,57,0.00,,---,0.20,VWS V14.01,2013-08-25 23:59:00,
2013-08-25 19:00:00,81.3,64.7,30.15,SSW,206,0.0,0.0,57,0.00,,---,0.20,VWS V14.01,2013-08-26 00:00:00,
2013-08-25 19:01:00,81.3,64.7,30.15,SSW,206,0.0,0.0,57,0.00,,---,0.20,VWS V14.01,2013-08-26 00:01:00,
2013-08-25 19:02:00,81.3,64.7,30.15,SSW,205,3.1,3.1,57,0.00,,---,0.20,VWS V14.01,2013-08-26 00:02:00,
2013-08-25 19:03:00,81.3,64.7,30.15,SSW,205,0.0,3.1,57,0.00,,---,0.20,VWS V14.01,2013-08-26 00:03:00,
2013-08-25 19:04:00,81.1,64.5,30.15,SSW,205,0.0,0.0,57,0.00,,---,0.20,VWS V14.01,2013-08-26 00:04:00,
2013-08-25 19:05:00,81.1,65.0,30.15,SSW,205,0.0,0.0,58,0.00,,---,0.20,VWS V14.01,2013-08-26 00:05:00,
2013-08-25 19:06:00,81.1,65.0,30.15,SSW,205,0.0,0.0,58,0.00,,---,0.20,VWS V14.01,2013-08-26 00:06:00,
2013-08-25 19:07:00,81.1,65.0,30.15,SSW,205,0.0,0.0,58,0.00,,---,0.20,VWS V14.01,2013-08-26 00:07:00,
2013-08-25 19:08:00,81.1,65.0,30.15,SSW,205,0.0,0.0,58,0.00,,---,0.20,VWS V14.01,2013-08-26 00:08:00,
2013-08-25 19:09:00,81.0,64.8,30.15,SSW,205,0.0,0.0,58,0.00,,---,0.20,VWS V14.01,2013-08-26 00:09:00,
2013-08-25 19:10:00,81.0,64.8,30.15,SSW,205,0.0,0.0,58,0.00,,---,0.00,VWS V14.01,2013-08-26 00:10:00,
2013-08-25 19:11:00,81.0,64.8,30.15,SSW,205,0.0,0.0,58,0.00,,---,0.20,VWS V14.01,2013-08-26 00:11:00,
2013-08-25 19:12:00,81.0,65.3,30.15,SSW,205,0.0,0.0,59,0.00,,---,0.20,VWS V14.01,2013-08-26 00:12:00,
2013-08-25 19:13:00,80.8,65.1,30.15,SSW,205,0.0,0.0,59,0.00,,---,0.20,VWS V14.01,2013-08-26 00:13:00,
2013-08-25 19:14:00,80.8,65.1,30.15,SSW,205,0.0,0.0,59,0.00,,---,0.20,VWS V14.01,2013-08-26 00:14:00,
2013-08-25 19:15:00,80.8,65.1,30.15,SSW,205,0.0,0.0,59,0.00,,---,0.20,VWS V14.01,2013-08-26 00:15:00,
2013-08-25 19:16:00,80.8,65.1,30.15,SSW,205,0.0,0.0,59,0.00,,---,0.20,VWS V14.01,2013-08-26 00:16:00,
2013-08-25 19:17:00,80.8,65.1,30.15,SSW,205,0.0,0.0,59,0.00,,---,0.20,VWS V14.01,2013-08-26 00:17:00,
2013-08-25 19:18:00,80.6,65.0,30.15,SSW,205,0.0,0.0,59,0.00,,---,0.20,VWS V14.01,2013-08-26 00:18:00,
2013-08-25 19:19:00,80.6,65.4,30.15,SSW,205,0.0,0.0,60,0.00,,---,0.20,VWS V14.01,2013-08-26 00:19:00,
2013-08-25 19:20:00,80.6,65.4,30.15,SSW,205,0.0,0.0,60,0.00,,---,0.20,VWS V14.01,2013-08-26 00:20:00,
2013-08-25 19:21:00,80.6,65.4,30.15,SSW,205,0.0,0.0,60,0.00,,---,0.20,VWS V14.01,2013-08-26 00:21:00,
2013-08-25 19:22:00,80.4,65.8,30.15,SSW,205,0.0,0.0,61,0.00,,---,0.20,VWS V14.01,2013-08-26 00:22:00,
2013-08-25 19:23:00,80.4,65.8,30.15,SSW,205,0.0,0.0,61,0.00,,---,0.20,VWS V14.01,2013-08-26 00:23:00,
2013-08-25 19:24:00,80.4,65.8,30.15,SSW,205,0.0,0.0,61,0.00,,---,0.20,VWS V14.01,2013-08-26 00:24:00,
2013-08-25 19:25:00,80.4,65.8,30.15,SSW,193,0.0,4.5,61,0.00,,---,0.20,VWS V14.01,2013-08-26 00:25:00,
2013-08-25 19:26:00,80.2,65.6,30.15,SSW,193,0.0,4.5,61,0.00,,---,0.20,VWS V14.01,2013-08-26 00:26:00,
2013-08-25 19:27:00,80.2,65.6,30.15,WNW,291,0.0,0.0,61,0.00,,---,0.20,VWS V14.01,2013-08-26 00:27:00,
2013-08-25 19:28:00,80.2,66.1,30.15,WNW,291,0.0,0.0,62,0.00,,---,0.20,VWS V14.01,2013-08-26 00:28:00,
2013-08-25 19:29:00,80.2,66.1,30.15,WNW,291,0.0,0.0,62,0.00,,---,0.20,VWS V14.01,2013-08-26 00:29:00,
2013-08-25 19:30:00,80.2,66.1,30.15,WNW,291,0.0,0.0,62,0.00,,---,0.20,VWS V14.01,2013-08-26 00:30:00,
2013-08-25 19:31:00,80.2,66.1,30.15,WNW,291,0.0,0.0,62,0.00,,---,0.20,VWS V14.01,2013-08-26 00:31:00,
2013-08-25 19:32:00,80.1,65.9,30.15,West,281,0.0,0.0,62,0.00,,---,0.20,VWS V14.01,2013-08-26 00:32:00,
2013-08-25 19:33:00,80.1,65.9,30.15,West,281,0.0,0.0,62,0.00,,---,0.20,VWS V14.01,2013-08-26 00:33:00,
2013-08-25 19:34:00,80.1,65.9,30.15,West,281,0.0,0.0,62,0.00,,---,0.20,VWS V14.01,2013-08-26 00:34:00,
2013-08-25 19:35:00,80.1,66.3,30.15,SW,219,0.0,0.0,63,0.00,,---,0.20,VWS V14.01,2013-08-26 00:35:00,
2013-08-25 19:36:00,80.1,66.3,30.15,SW,219,0.0,0.0,63,0.00,,---,0.20,VWS V14.01,2013-08-26 00:36:00,
2013-08-25 19:37:00,80.1,66.3,30.15,SSW,209,0.0,2.2,63,0.00,,---,0.20,VWS V14.01,2013-08-26 00:37:00,
2013-08-25 19:38:00,79.9,66.2,30.15,SSW,209,0.0,0.0,63,0.00,,---,0.20,VWS V14.01,2013-08-26 00:38:00,
2013-08-25 19:39:00,79.9,66.2,30.15,SW,218,3.1,3.1,63,0.00,,---,0.20,VWS V14.01,2013-08-26 00:39:00,
2013-08-25 19:40:00,79.9,66.2,30.15,SSW,211,0.0,0.0,63,0.00,,---,0.20,VWS V14.01,2013-08-26 00:40:00,
2013-08-25 19:41:00,79.9,66.2,30.15,SSW,211,0.0,0.0,63,0.00,,---,0.20,VWS V14.01,2013-08-26 00:41:00,
2013-08-25 19:42:00,79.9,66.2,30.15,SSW,211,0.0,0.0,63,0.00,,---,0.20,VWS V14.01,2013-08-26 00:42:00,
2013-08-25 19:43:00,79.7,66.0,30.15,SW,219,0.0,2.2,63,0.00,,---,0.20,VWS V14.01,2013-08-26 00:43:00,
2013-08-25 19:44:00,79.7,66.0,30.15,SW,219,0.0,0.0,63,0.00,,---,0.20,VWS V14.01,2013-08-26 00:44:00,
2013-08-25 19:45:00,79.7,66.0,30.15,SW,219,0.0,0.0,63,0.00,,---,0.20,VWS V14.01,2013-08-26 00:45:00,
2013-08-25 19:46:00,79.7,66.0,30.15,SW,219,0.0,0.0,63,0.00,,---,0.20,VWS V14.01,2013-08-26 00:46:00,
2013-08-25 19:47:00,79.7,66.5,30.15,SW,219,0.0,0.0,64,0.00,,---,0.20,VWS V14.01,2013-08-26 00:47:00,
2013-08-25 19:48:00,79.7,66.5,30.15,SW,219,0.0,0.0,64,0.00,,---,0.20,VWS V14.01,2013-08-26 00:48:00,
2013-08-25 19:49:00,79.7,66.5,30.15,SW,219,0.0,0.0,64,0.00,,---,0.20,VWS V14.01,2013-08-26 00:49:00,
2013-08-25 19:50:00,79.5,66.3,30.15,SW,219,0.0,0.0,64,0.00,,---,0.20,VWS V14.01,2013-08-26 00:50:00,
2013-08-25 19:51:00,79.5,66.3,30.15,SW,219,0.0,0.0,64,0.00,,---,0.20,VWS V14.01,2013-08-26 00:51:00,
2013-08-25 19:52:00,79.5,66.3,30.15,SW,219,0.0,0.0,64,0.00,,---,0.20,VWS V14.01,2013-08-26 00:52:00,
2013-08-25 19:53:00,79.3,66.1,30.15,SW,219,0.0,0.0,64,0.00,,---,0.20,VWS V14.01,2013-08-26 00:53:00,
2013-08-25 19:54:00,79.3,66.1,30.15,SW,219,0.0,0.0,64,0.00,,---,0.20,VWS V14.01,2013-08-26 00:54:00,
2013-08-25 19:55:00,79.3,66.6,30.15,SW,219,0.0,0.0,65,0.00,,---,0.20,VWS V14.01,2013-08-26 00:55:00,
2013-08-25 19:56:00,79.3,66.6,30.15,SW,219,0.0,0.0,65,0.00,,---,0.20,VWS V14.01,2013-08-26 00:56:00,
2013-08-25 19:57:00,79.3,66.6,30.15,SW,219,0.0,0.0,65,0.00,,---,0.20,VWS V14.01,2013-08-26 00:57:00,
2013-08-25 19:58:00,79.2,66.4,30.15,SW,219,0.0,0.0,65,0.00,,---,0.20,VWS V14.01,2013-08-26 00:58:00,
2013-08-25 19:59:00,79.2,66.4,30.15,SW,219,0.0,0.0,65,0.00,,---,0.20,VWS V14.01,2013-08-26 00:59:00,
2013-08-25 20:00:00,79.2,66.8,30.15,SW,219,0.0,0.0,66,0.00,,---,0.20,VWS V14.01,2013-08-26 01:00:00,
2013-08-25 20:01:00,79.2,66.8,30.15,SW,219,0.0,0.0,66,0.00,,---,0.20,VWS V14.01,2013-08-26 01:01:00,
2013-08-25 20:02:00,79.2,66.8,30.15,SW,219,0.0,0.0,66,0.00,,---,0.20,VWS V14.01,2013-08-26 01:02:00,
2013-08-25 20:03:00,79.2,66.8,30.15,SW,219,0.0,0.0,66,0.00,,---,0.20,VWS V14.01,2013-08-26 01:03:00,
2013-08-25 20:04:00,79.0,66.7,30.15,SW,219,0.0,0.0,66,0.00,,---,0.20,VWS V14.01,2013-08-26 01:04:00,
2013-08-25 20:05:00,79.0,66.7,30.15,SW,219,0.0,0.0,66,0.00,,---,0.20,VWS V14.01,2013-08-26 01:05:00,
2013-08-25 20:06:00,79.0,66.7,30.15,SW,219,0.0,0.0,66,0.00,,---,0.20,VWS V14.01,2013-08-26 01:06:00,
2013-08-25 20:07:00,79.0,67.1,30.15,SW,219,0.0,0.0,67,0.00,,---,0.20,VWS V14.01,2013-08-26 01:07:00,
2013-08-25 20:08:00,79.0,67.1,30.15,SW,219,0.0,0.0,67,0.00,,---,0.20,VWS V14.01,2013-08-26 01:08:00,
2013-08-25 20:09:00,79.0,67.1,30.15,SW,219,0.0,0.0,67,0.00,,---,0.20,VWS V14.01,2013-08-26 01:09:00,
2013-08-25 20:10:00,78.8,66.9,30.15,SW,219,0.0,0.0,67,0.00,,---,0.20,VWS V14.01,2013-08-26 01:10:00,
2013-08-25 20:11:00,78.8,66.9,30.15,SW,219,0.0,0.0,67,0.00,,---,0.20,VWS V14.01,2013-08-26 01:11:00,
2013-08-25 20:12:00,78.8,66.9,30.15,SW,219,0.0,0.0,67,0.00,,---,0.20,VWS V14.01,2013-08-26 01:12:00,
2013-08-25 20:13:00,78.8,66.9,30.15,SW,219,0.0,0.0,67,0.00,,---,0.20,VWS V14.01,2013-08-26 01:13:00,
2013-08-25 20:14:00,78.8,66.9,30.15,SW,219,0.0,0.0,67,0.00,,---,0.20,VWS V14.01,2013-08-26 01:14:00,
2013-08-25 20:15:00,78.8,67.4,30.15,SW,219,0.0,0.0,68,0.00,,---,0.00,VWS V14.01,2013-08-26 01:15:00,
2013-08-25 20:16:00,78.8,67.4,30.15,SW,219,2.7,2.7,68,0.00,,---,0.20,VWS V14.01,2013-08-26 01:16:00,
2013-08-25 20:17:00,78.8,67.4,30.15,SW,219,2.2,2.7,68,0.00,,---,0.20,VWS V14.01,2013-08-26 01:17:00,
2013-08-25 20:18:00,78.8,67.4,30.15,SW,219,0.0,2.2,68,0.00,,---,0.20,VWS V14.01,2013-08-26 01:18:00,
2013-08-25 20:19:00,78.6,67.2,30.15,SW,219,0.0,0.0,68,0.00,,---,0.20,VWS V14.01,2013-08-26 01:19:00,
2013-08-25 20:20:00,78.6,67.2,30.15,SW,219,0.0,0.0,68,0.00,,---,0.20,VWS V14.01,2013-08-26 01:20:00,
2013-08-25 20:21:00,78.6,67.2,30.15,SW,219,0.0,0.0,68,0.00,,---,0.20,VWS V14.01,2013-08-26 01:21:00,
2013-08-25 20:22:00,78.8,67.4,30.15,SW,219,0.0,0.0,68,0.00,,---,0.20,VWS V14.01,2013-08-26 01:22:00,
2013-08-25 20:23:00,78.6,67.2,30.15,SW,219,0.0,0.0,68,0.00,,---,0.20,VWS V14.01,2013-08-26 01:23:00,
2013-08-25 20:24:00,78.6,67.2,30.15,SSW,208,0.0,2.7,68,0.00,,---,0.20,VWS V14.01,2013-08-26 01:24:00,
2013-08-25 20:25:00,78.6,67.2,30.15,SSW,208,0.0,0.0,68,0.00,,---,0.20,VWS V14.01,2013-08-26 01:25:00,
2013-08-25 20:26:00,78.6,67.2,30.15,SSW,208,0.0,0.0,68,0.00,,---,0.20,VWS V14.01,2013-08-26 01:26:00,
2013-08-25 20:27:00,78.6,67.2,30.15,SSW,208,0.0,0.0,68,0.00,,---,0.20,VWS V14.01,2013-08-26 01:27:00,
2013-08-25 20:28:00,78.6,67.2,30.15,SSW,208,0.0,0.0,68,0.00,,---,0.20,VWS V14.01,2013-08-26 01:28:00,
2013-08-25 20:29:00,78.6,67.2,30.15,SSW,208,0.0,0.0,68,0.00,,---,0.20,VWS V14.01,2013-08-26 01:29:00,
2013-08-25 20:30:00,78.6,67.2,30.15,SSW,193,2.2,3.6,68,0.00,,---,0.20,VWS V14.01,2013-08-26 01:30:00,
2013-08-25 20:31:00,78.6,67.2,30.15,SSW,193,2.7,3.6,68,0.00,,---,0.20,VWS V14.01,2013-08-26 01:31:00,
2013-08-25 20:32:00,78.6,67.2,30.15,SSW,199,2.2,4.0,68,0.00,,---,0.20,VWS V14.01,2013-08-26 01:32:00,
2013-08-25 20:33:00,78.6,67.2,30.15,SSW,199,0.0,2.2,68,0.00,,---,0.20,VWS V14.01,2013-08-26 01:33:00,
2013-08-25 20:34:00,78.6,67.2,30.15,SSW,199,0.0,0.0,68,0.00,,---,0.20,VWS V14.01,2013-08-26 01:34:00,
2013-08-25 20:35:00,78.6,67.2,30.15,SW,222,0.0,0.0,68,0.00,,---,0.20,VWS V14.01,2013-08-26 01:35:00,
2013-08-25 20:36:00,78.6,67.2,30.15,SSW,194,0.0,2.7,68,0.00,,---,0.20,VWS V14.01,2013-08-26 01:36:00,
2013-08-25 20:37:00,78.6,67.2,30.15,SSW,194,0.0,0.0,68,0.00,,---,0.20,VWS V14.01,2013-08-26 01:37:00,
2013-08-25 20:38:00,78.6,67.2,30.15,SSW,194,0.0,0.0,68,0.00,,---,0.20,VWS V14.01,2013-08-26 01:38:00,
2013-08-25 20:39:00,78.6,67.2,30.15,SSW,194,0.0,0.0,68,0.00,,---,0.20,VWS V14.01,2013-08-26 01:39:00,
2013-08-25 20:40:00,78.4,67.0,30.15,SSW,194,0.0,0.0,68,0.00,,---,0.00,VWS V14.01,2013-08-26 01:40:00,
2013-08-25 20:41:00,78.4,67.0,30.15,SSW,194,0.0,0.0,68,0.00,,---,0.20,VWS V14.01,2013-08-26 01:41:00,
2013-08-25 20:42:00,78.4,67.4,30.15,SSW,194,0.0,0.0,69,0.00,,---,0.20,VWS V14.01,2013-08-26 01:42:00,
2013-08-25 20:43:00,78.4,67.4,30.15,SSW,194,0.0,0.0,69,0.00,,---,0.20,VWS V14.01,2013-08-26 01:43:00,
2013-08-25 20:44:00,78.4,67.4,30.15,SSW,194,0.0,0.0,69,0.00,,---,0.20,VWS V14.01,2013-08-26 01:44:00,
2013-08-25 20:45:00,78.4,67.4,30.15,SSW,197,0.0,0.0,69,0.00,,---,0.20,VWS V14.01,2013-08-26 01:45:00,
2013-08-25 20:46:00,78.4,67.4,30.15,SSW,197,0.0,0.0,69,0.00,,---,0.20,VWS V14.01,2013-08-26 01:46:00,
2013-08-25 20:47:00,78.4,67.4,30.15,SSW,197,0.0,0.0,69,0.00,,---,0.20,VWS V14.01,2013-08-26 01:47:00,
2013-08-25 20:48:00,78.4,67.4,30.15,SSW,197,0.0,0.0,69,0.00,,---,0.20,VWS V14.01,2013-08-26 01:48:00,
2013-08-25 20:49:00,78.4,67.4,30.15,SSW,197,0.0,0.0,69,0.00,,---,0.20,VWS V14.01,2013-08-26 01:49:00,
2013-08-25 20:50:00,78.4,67.4,30.15,SSW,197,0.0,0.0,69,0.00,,---,0.20,VWS V14.01,2013-08-26 01:50:00,
2013-08-25 20:51:00,78.4,67.4,30.15,SSW,197,0.0,0.0,69,0.00,,---,0.20,VWS V14.01,2013-08-26 01:51:00,
2013-08-25 20:52:00,78.3,67.3,30.15,SSW,197,0.0,0.0,69,0.00,,---,0.20,VWS V14.01,2013-08-26 01:52:00,
2013-08-25 20:53:00,78.3,67.3,30.15,SSW,197,0.0,0.0,69,0.00,,---,0.20,VWS V14.01,2013-08-26 01:53:00,
2013-08-25 20:54:00,78.3,67.3,30.15,SSW,197,0.0,0.0,69,0.00,,---,0.20,VWS V14.01,2013-08-26 01:54:00,
2013-08-25 20:55:00,78.3,67.3,30.15,SSW,197,0.0,0.0,69,0.00,,---,0.20,VWS V14.01,2013-08-26 01:55:00,
2013-08-25 20:56:00,78.3,67.3,30.15,SSW,197,0.0,0.0,69,0.00,,---,0.20,VWS V14.01,2013-08-26 01:56:00,
2013-08-25 20:57:00,78.3,67.3,30.15,SSW,197,0.0,0.0,69,0.00,,---,0.20,VWS V14.01,2013-08-26 01:57:00,
2013-08-25 20:58:00,78.3,67.3,30.15,SSW,197,2.7,3.1,69,0.00,,---,0.20,VWS V14.01,2013-08-26 01:58:00,
2013-08-25 20:59:00,78.3,67.3,30.15,SSW,197,0.0,2.7,69,0.00,,---,0.20,VWS V14.01,2013-08-26 01:59:00,
2013-08-25 21:00:00,78.3,67.3,30.15,SSW,197,0.0,0.0,69,0.00,,---,0.20,VWS V14.01,2013-08-26 02:00:00,
2013-08-25 21:01:00,78.3,67.3,30.15,SSW,197,0.0,0.0,69,0.00,,---,0.20,VWS V14.01,2013-08-26 02:01:00,
2013-08-25 21:02:00,78.3,67.3,30.15,SSW,211,0.0,3.6,69,0.00,,---,0.20,VWS V14.01,2013-08-26 02:02:00,
2013-08-25 21:03:00,78.3,67.3,30.15,SSW,211,0.0,0.0,69,0.00,,---,0.20,VWS V14.01,2013-08-26 02:03:00,
2013-08-25 21:04:00,78.3,67.3,30.15,SSW,211,0.0,0.0,69,0.00,,---,0.20,VWS V14.01,2013-08-26 02:04:00,
2013-08-25 21:05:00,78.1,67.1,30.18,SSW,211,0.0,0.0,69,0.00,,---,0.20,VWS V14.01,2013-08-26 02:05:00,
2013-08-25 21:06:00,78.1,67.1,30.18,SSW,211,0.0,0.0,69,0.00,,---,0.20,VWS V14.01,2013-08-26 02:06:00,
2013-08-25 21:07:00,78.1,67.1,30.18,SSW,211,0.0,0.0,69,0.00,,---,0.20,VWS V14.01,2013-08-26 02:07:00,
2013-08-25 21:08:00,78.1,67.1,30.18,SSW,211,0.0,0.0,69,0.00,,---,0.20,VWS V14.01,2013-08-26 02:08:00,
2013-08-25 21:09:00,78.1,67.1,30.18,SSW,211,0.0,0.0,69,0.00,,---,0.20,VWS V14.01,2013-08-26 02:09:00,
2013-08-25 21:10:00,78.1,67.1,30.18,SSW,211,0.0,0.0,69,0.00,,---,0.20,VWS V14.01,2013-08-26 02:10:00,
2013-08-25 21:11:00,78.1,67.1,30.18,SSW,211,0.0,0.0,69,0.00,,---,0.20,VWS V14.01,2013-08-26 02:11:00,
2013-08-25 21:12:00,78.1,67.1,30.18,SSW,211,0.0,0.0,69,0.00,,---,0.20,VWS V14.01,2013-08-26 02:12:00,
2013-08-25 21:13:00,78.1,67.1,30.18,SSW,211,0.0,0.0,69,0.00,,---,0.20,VWS V14.01,2013-08-26 02:13:00,
2013-08-25 21:14:00,78.1,67.1,30.18,SSW,211,0.0,0.0,69,0.00,,---,0.20,VWS V14.01,2013-08-26 02:14:00,
2013-08-25 21:15:00,78.1,67.1,30.18,SSW,211,0.0,0.0,69,0.00,,---,0.20,VWS V14.01,2013-08-26 02:15:00,
2013-08-25 21:16:00,78.1,67.1,30.18,SSW,211,0.0,0.0,69,0.00,,---,0.20,VWS V14.01,2013-08-26 02:16:00,
2013-08-25 21:17:00,78.1,67.1,30.18,SSW,211,0.0,0.0,69,0.00,,---,0.20,VWS V14.01,2013-08-26 02:17:00,
2013-08-25 21:18:00,78.1,67.1,30.18,SSW,211,0.0,0.0,69,0.00,,---,0.20,VWS V14.01,2013-08-26 02:18:00,
2013-08-25 21:19:00,78.1,67.1,30.18,SSW,211,0.0,0.0,69,0.00,,---,0.20,VWS V14.01,2013-08-26 02:19:00,
2013-08-25 21:20:00,77.9,67.3,30.18,SSW,211,0.0,0.0,70,0.00,,---,0.20,VWS V14.01,2013-08-26 02:20:00,
2013-08-25 21:21:00,77.9,67.3,30.18,SSW,211,0.0,0.0,70,0.00,,---,0.20,VWS V14.01,2013-08-26 02:21:00,
2013-08-25 21:22:00,77.9,67.3,30.18,SSW,211,0.0,0.0,70,0.00,,---,0.20,VWS V14.01,2013-08-26 02:22:00,
2013-08-25 21:23:00,77.9,67.3,30.18,SSW,211,0.0,0.0,70,0.00,,---,0.20,VWS V14.01,2013-08-26 02:23:00,
2013-08-25 21:24:00,77.9,67.3,30.18,SSW,211,0.0,0.0,70,0.00,,---,0.20,VWS V14.01,2013-08-26 02:24:00,
2013-08-25 21:25:00,77.9,67.3,30.18,SSW,211,0.0,0.0,70,0.00,,---,0.20,VWS V14.01,2013-08-26 02:25:00,
2013-08-25 21:26:00,77.9,67.3,30.18,SSW,211,0.0,0.0,70,0.00,,---,0.20,VWS V14.01,2013-08-26 02:26:00,
2013-08-25 21:27:00,77.9,67.3,30.18,SSW,211,0.0,0.0,70,0.00,,---,0.20,VWS V14.01,2013-08-26 02:27:00,
2013-08-25 21:28:00,77.7,67.2,30.18,SSW,211,0.0,0.0,70,0.00,,---,0.20,VWS V14.01,2013-08-26 02:28:00,
2013-08-25 21:29:00,77.7,67.2,30.18,SSW,211,0.0,0.0,70,0.00,,---,0.20,VWS V14.01,2013-08-26 02:29:00,
2013-08-25 21:30:00,77.7,67.2,30.18,SSW,211,0.0,0.0,70,0.00,,---,0.20,VWS V14.01,2013-08-26 02:30:00,
2013-08-25 21:31:00,77.7,67.2,30.18,SSW,211,0.0,0.0,70,0.00,,---,0.20,VWS V14.01,2013-08-26 02:31:00,
2013-08-25 21:32:00,77.5,67.0,30.18,SSW,211,0.0,0.0,70,0.00,,---,0.20,VWS V14.01,2013-08-26 02:32:00,
2013-08-25 21:33:00,77.5,67.0,30.18,SSW,211,0.0,0.0,70,0.00,,---,0.20,VWS V14.01,2013-08-26 02:33:00,
2013-08-25 21:34:00,77.5,67.0,30.18,SSW,211,0.0,0.0,70,0.00,,---,0.20,VWS V14.01,2013-08-26 02:34:00,
2013-08-25 21:35:00,77.5,67.4,30.18,SSW,211,0.0,0.0,71,0.00,,---,0.20,VWS V14.01,2013-08-26 02:35:00,
2013-08-25 21:36:00,77.5,67.4,30.18,SSW,211,0.0,0.0,71,0.00,,---,0.20,VWS V14.01,2013-08-26 02:36:00,
2013-08-25 21:37:00,77.5,67.4,30.18,SSW,211,0.0,0.0,71,0.00,,---,0.20,VWS V14.01,2013-08-26 02:37:00,
2013-08-25 21:38:00,77.5,67.4,30.18,SSW,211,0.0,0.0,71,0.00,,---,0.20,VWS V14.01,2013-08-26 02:38:00,
2013-08-25 21:39:00,77.4,67.2,30.18,SSW,211,0.0,0.0,71,0.00,,---,0.20,VWS V14.01,2013-08-26 02:39:00,
2013-08-25 21:40:00,77.4,67.2,30.18,SSW,211,0.0,0.0,71,0.00,,---,0.20,VWS V14.01,2013-08-26 02:40:00,
2013-08-25 21:41:00,77.4,67.2,30.18,SSW,211,0.0,0.0,71,0.00,,---,0.20,VWS V14.01,2013-08-26 02:41:00,
2013-08-25 21:42:00,77.4,67.2,30.18,SSW,211,0.0,0.0,71,0.00,,---,0.20,VWS V14.01,2013-08-26 02:42:00,
2013-08-25 21:43:00,77.4,67.2,30.18,SSW,211,0.0,0.0,71,0.00,,---,0.20,VWS V14.01,2013-08-26 02:43:00,
2013-08-25 21:44:00,77.4,67.2,30.18,SSW,211,0.0,0.0,71,0.00,,---,0.20,VWS V14.01,2013-08-26 02:44:00,
2013-08-25 21:45:00,77.4,67.6,30.18,SSW,211,0.0,0.0,72,0.00,,---,0.20,VWS V14.01,2013-08-26 02:45:00,
2013-08-25 21:46:00,77.4,67.6,30.18,SSW,211,0.0,0.0,72,0.00,,---,0.20,VWS V14.01,2013-08-26 02:46:00,
2013-08-25 21:47:00,77.2,67.5,30.18,SSW,211,0.0,0.0,72,0.00,,---,0.20,VWS V14.01,2013-08-26 02:47:00,
2013-08-25 21:48:00,77.2,67.5,30.18,SSW,211,0.0,0.0,72,0.00,,---,0.20,VWS V14.01,2013-08-26 02:48:00,
2013-08-25 21:49:00,77.2,67.5,30.18,SSW,211,0.0,0.0,72,0.00,,---,0.20,VWS V14.01,2013-08-26 02:49:00,
2013-08-25 21:50:00,77.2,67.5,30.18,SSW,211,0.0,0.0,72,0.00,,---,0.20,VWS V14.01,2013-08-26 02:50:00,
2013-08-25 21:51:00,77.2,67.5,30.18,SSW,211,0.0,0.0,72,0.00,,---,0.20,VWS V14.01,2013-08-26 02:51:00,
2013-08-25 21:52:00,77.2,67.9,30.18,SSW,211,0.0,0.0,73,0.00,,---,0.20,VWS V14.01,2013-08-26 02:52:00,
2013-08-25 21:53:00,77.2,67.9,30.18,SSW,211,0.0,0.0,73,0.00,,---,0.20,VWS V14.01,2013-08-26 02:53:00,
2013-08-25 21:54:00,77.0,67.7,30.18,SSW,211,0.0,0.0,73,0.00,,---,0.20,VWS V14.01,2013-08-26 02:54:00,
2013-08-25 21:55:00,77.0,67.7,30.18,SSW,211,0.0,0.0,73,0.00,,---,0.20,VWS V14.01,2013-08-26 02:55:00,
2013-08-25 21:56:00,77.0,67.7,30.18,SSW,211,0.0,0.0,73,0.00,,---,0.20,VWS V14.01,2013-08-26 02:56:00,
2013-08-25 21:57:00,77.0,67.7,30.18,SSW,211,0.0,0.0,73,0.00,,---,0.20,VWS V14.01,2013-08-26 02:57:00,
2013-08-25 21:58:00,77.0,67.7,30.18,SSW,211,0.0,0.0,73,0.00,,---,0.20,VWS V14.01,2013-08-26 02:58:00,
2013-08-25 21:59:00,77.0,67.7,30.18,SSW,211,0.0,0.0,73,0.00,,---,0.20,VWS V14.01,2013-08-26 02:59:00,
2013-08-25 22:00:00,77.0,68.1,30.18,SSW,211,0.0,0.0,74,0.00,,---,0.20,VWS V14.01,2013-08-26 03:00:00,
2013-08-25 22:01:00,77.0,68.1,30.18,SSW,211,0.0,0.0,74,0.00,,---,0.20,VWS V14.01,2013-08-26 03:01:00,
2013-08-25 22:02:00,77.0,68.1,30.18,SSW,211,0.0,0.0,74,0.00,,---,0.20,VWS V14.01,2013-08-26 03:02:00,
2013-08-25 22:03:00,76.8,67.9,30.18,SSW,211,0.0,0.0,74,0.00,,---,0.20,VWS V14.01,2013-08-26 03:03:00,
2013-08-25 22:04:00,76.8,67.9,30.18,SSW,211,0.0,0.0,74,0.00,,---,0.20,VWS V14.01,2013-08-26 03:04:00,
2013-08-25 22:05:00,76.8,67.9,30.18,SSW,211,0.0,0.0,74,0.00,,---,0.20,VWS V14.01,2013-08-26 03:05:00,
2013-08-25 22:06:00,76.8,68.3,30.18,SSW,211,0.0,0.0,75,0.00,,---,0.20,VWS V14.01,2013-08-26 03:06:00,
2013-08-25 22:07:00,76.8,68.3,30.18,SSW,211,0.0,0.0,75,0.00,,---,0.20,VWS V14.01,2013-08-26 03:07:00,
2013-08-25 22:08:00,76.8,68.3,30.18,SSW,211,0.0,0.0,75,0.00,,---,0.20,VWS V14.01,2013-08-26 03:08:00,
2013-08-25 22:09:00,76.8,68.3,30.18,SSW,211,0.0,0.0,75,0.00,,---,0.20,VWS V14.01,2013-08-26 03:09:00,
2013-08-25 22:10:00,76.8,68.3,30.18,SSW,211,0.0,0.0,75,0.00,,---,0.20,VWS V14.01,2013-08-26 03:10:00,
2013-08-25 22:11:00,76.8,68.3,30.18,SSW,211,0.0,0.0,75,0.00,,---,0.20,VWS V14.01,2013-08-26 03:11:00,
2013-08-25 22:12:00,76.8,68.3,30.18,SSW,211,0.0,0.0,75,0.00,,---,0.20,VWS V14.01,2013-08-26 03:12:00,
2013-08-25 22:13:00,76.6,68.1,30.18,SSW,211,0.0,0.0,75,0.00,,---,0.20,VWS V14.01,2013-08-26 03:13:00,
2013-08-25 22:14:00,76.6,68.1,30.18,SSW,211,0.0,0.0,75,0.00,,---,0.20,VWS V14.01,2013-08-26 03:14:00,
2013-08-25 22:15:00,76.6,68.1,30.18,SSW,211,0.0,0.0,75,0.00,,---,0.20,VWS V14.01,2013-08-26 03:15:00,
2013-08-25 22:16:00,76.6,68.1,30.18,SSW,211,0.0,0.0,75,0.00,,---,0.20,VWS V14.01,2013-08-26 03:16:00,
2013-08-25 22:17:00,76.6,68.1,30.18,SSW,211,0.0,0.0,75,0.00,,---,0.20,VWS V14.01,2013-08-26 03:17:00,
2013-08-25 22:18:00,76.6,68.5,30.18,SSW,211,0.0,0.0,76,0.00,,---,0.20,VWS V14.01,2013-08-26 03:18:00,
2013-08-25 22:19:00,76.6,68.5,30.18,SSW,211,0.0,0.0,76,0.00,,---,0.20,VWS V14.01,2013-08-26 03:19:00,
2013-08-25 22:20:00,76.6,68.5,30.18,SSW,211,0.0,0.0,76,0.00,,---,0.00,VWS V14.01,2013-08-26 03:20:00,
2013-08-25 22:21:00,76.6,68.5,30.18,SSW,211,0.0,0.0,76,0.00,,---,0.20,VWS V14.01,2013-08-26 03:21:00,
2013-08-25 22:22:00,76.6,68.5,30.18,SSW,211,0.0,0.0,76,0.00,,---,0.20,VWS V14.01,2013-08-26 03:22:00,
2013-08-25 22:23:00,76.6,68.5,30.18,SSW,211,0.0,0.0,76,0.00,,---,0.20,VWS V14.01,2013-08-26 03:23:00,
2013-08-25 22:24:00,76.6,68.5,30.18,SSW,211,0.0,0.0,76,0.00,,---,0.20,VWS V14.01,2013-08-26 03:24:00,
2013-08-25 22:25:00,76.6,68.5,30.18,SSW,211,0.0,0.0,76,0.00,,---,0.20,VWS V14.01,2013-08-26 03:25:00,
2013-08-25 22:26:00,76.6,68.5,30.18,SSW,211,0.0,0.0,76,0.00,,---,0.20,VWS V14.01,2013-08-26 03:26:00,
2013-08-25 22:27:00,76.6,68.5,30.18,SSW,211,0.0,0.0,76,0.00,,---,0.20,VWS V14.01,2013-08-26 03:27:00,
2013-08-25 22:28:00,76.6,68.5,30.18,SSW,211,0.0,0.0,76,0.00,,---,0.20,VWS V14.01,2013-08-26 03:28:00,
2013-08-25 22:29:00,76.5,68.3,30.18,SSW,211,0.0,0.0,76,0.00,,---,0.20,VWS V14.01,2013-08-26 03:29:00,
2013-08-25 22:30:00,76.5,68.3,30.18,SSW,211,0.0,0.0,76,0.00,,---,0.20,VWS V14.01,2013-08-26 03:30:00,
2013-08-25 22:31:00,76.5,68.3,30.18,SSW,211,0.0,0.0,76,0.00,,---,0.20,VWS V14.01,2013-08-26 03:31:00,
2013-08-25 22:32:00,76.5,68.7,30.18,SSW,211,0.0,0.0,77,0.00,,---,0.20,VWS V14.01,2013-08-26 03:32:00,
2013-08-25 22:33:00,76.5,68.7,30.18,SSW,211,0.0,0.0,77,0.00,,---,0.20,VWS V14.01,2013-08-26 03:33:00,
2013-08-25 22:34:00,76.5,68.7,30.18,SSW,211,0.0,0.0,77,0.00,,---,0.20,VWS V14.01,2013-08-26 03:34:00,
2013-08-25 22:35:00,76.5,68.7,30.18,SSW,211,0.0,0.0,77,0.00,,---,0.20,VWS V14.01,2013-08-26 03:35:00,
2013-08-25 22:36:00,76.5,68.7,30.18,SSW,211,0.0,0.0,77,0.00,,---,0.20,VWS V14.01,2013-08-26 03:36:00,
2013-08-25 22:37:00,76.5,68.7,30.18,SSW,211,0.0,0.0,77,0.00,,---,0.20,VWS V14.01,2013-08-26 03:37:00,
2013-08-25 22:38:00,76.5,68.7,30.18,SSW,211,0.0,0.0,77,0.00,,---,0.20,VWS V14.01,2013-08-26 03:38:00,
2013-08-25 22:39:00,76.5,68.7,30.18,SSW,211,0.0,0.0,77,0.00,,---,0.20,VWS V14.01,2013-08-26 03:39:00,
2013-08-25 22:40:00,76.5,68.7,30.18,SSW,211,0.0,0.0,77,0.00,,---,0.20,VWS V14.01,2013-08-26 03:40:00,
2013-08-25 22:41:00,76.5,68.7,30.18,SSW,211,0.0,0.0,77,0.00,,---,0.20,VWS V14.01,2013-08-26 03:41:00,
2013-08-25 22:42:00,76.5,68.7,30.18,SSW,211,0.0,0.0,77,0.00,,---,0.20,VWS V14.01,2013-08-26 03:42:00,
2013-08-25 22:43:00,76.5,68.7,30.18,SSW,211,0.0,0.0,77,0.00,,---,0.20,VWS V14.01,2013-08-26 03:43:00,
2013-08-25 22:44:00,76.5,68.7,30.18,SSW,211,0.0,0.0,77,0.00,,---,0.20,VWS V14.01,2013-08-26 03:44:00,
2013-08-25 22:45:00,76.3,68.6,30.18,SSW,211,0.0,0.0,77,0.00,,---,0.20,VWS V14.01,2013-08-26 03:45:00,
2013-08-25 22:46:00,76.3,68.6,30.18,SSW,211,0.0,0.0,77,0.00,,---,0.20,VWS V14.01,2013-08-26 03:46:00,
2013-08-25 22:47:00,76.3,68.6,30.18,SSW,211,0.0,0.0,77,0.00,,---,0.20,VWS V14.01,2013-08-26 03:47:00,
2013-08-25 22:48:00,76.3,68.6,30.18,SSW,211,0.0,0.0,77,0.00,,---,0.20,VWS V14.01,2013-08-26 03:48:00,
2013-08-25 22:49:00,76.3,68.6,30.18,SSW,211,0.0,0.0,77,0.00,,---,0.20,VWS V14.01,2013-08-26 03:49:00,
2013-08-25 22:50:00,76.1,68.4,30.21,SSW,211,0.0,0.0,77,0.00,,---,0.20,VWS V14.01,2013-08-26 03:50:00,
2013-08-25 22:51:00,76.1,68.4,30.21,SSW,211,0.0,0.0,77,0.00,,---,0.20,VWS V14.01,2013-08-26 03:51:00,
2013-08-25 22:52:00,76.1,68.4,30.21,SSW,211,0.0,0.0,77,0.00,,---,0.20,VWS V14.01,2013-08-26 03:52:00,
2013-08-25 22:53:00,76.1,68.4,30.21,SSW,211,0.0,0.0,77,0.00,,---,0.20,VWS V14.01,2013-08-26 03:53:00,
2013-08-25 22:54:00,76.1,68.4,30.21,SSW,211,0.0,0.0,77,0.00,,---,0.20,VWS V14.01,2013-08-26 03:54:00,
2013-08-25 22:55:00,76.1,68.4,30.21,SSW,211,0.0,0.0,77,0.00,,---,0.00,VWS V14.01,2013-08-26 03:55:00,
2013-08-25 22:56:00,76.1,68.4,30.21,SSW,211,0.0,0.0,77,0.00,,---,0.20,VWS V14.01,2013-08-26 03:56:00,
2013-08-25 22:57:00,76.1,68.4,30.21,SSW,211,0.0,0.0,77,0.00,,---,0.20,VWS V14.01,2013-08-26 03:57:00,
2013-08-25 22:58:00,76.1,68.4,30.21,SSW,211,0.0,0.0,77,0.00,,---,0.20,VWS V14.01,2013-08-26 03:58:00,
2013-08-25 22:59:00,76.1,68.4,30.21,SSW,211,0.0,0.0,77,0.00,,---,0.20,VWS V14.01,2013-08-26 03:59:00,
2013-08-25 23:00:00,76.1,68.8,30.21,SSW,211,0.0,0.0,78,0.00,,---,0.20,VWS V14.01,2013-08-26 04:00:00,
2013-08-25 23:01:00,75.9,68.6,30.21,SSW,211,0.0,0.0,78,0.00,,---,0.20,VWS V14.01,2013-08-26 04:01:00,
2013-08-25 23:02:00,75.9,68.6,30.21,SSW,211,0.0,0.0,78,0.00,,---,0.20,VWS V14.01,2013-08-26 04:02:00,
2013-08-25 23:03:00,75.9,68.6,30.21,SSW,211,0.0,0.0,78,0.00,,---,0.20,VWS V14.01,2013-08-26 04:03:00,
2013-08-25 23:04:00,75.9,68.6,30.21,SSW,211,0.0,0.0,78,0.00,,---,0.20,VWS V14.01,2013-08-26 04:04:00,
2013-08-25 23:05:00,75.9,68.6,30.18,SSW,211,0.0,0.0,78,0.00,,---,0.20,VWS V14.01,2013-08-26 04:05:00,
2013-08-25 23:06:00,75.9,68.6,30.18,SSW,211,0.0,0.0,78,0.00,,---,0.20,VWS V14.01,2013-08-26 04:06:00,
2013-08-25 23:07:00,75.9,68.6,30.18,SSW,211,0.0,0.0,78,0.00,,---,0.20,VWS V14.01,2013-08-26 04:07:00,
2013-08-25 23:08:00,75.9,68.6,30.18,SSW,211,0.0,0.0,78,0.00,,---,0.20,VWS V14.01,2013-08-26 04:08:00,
2013-08-25 23:09:00,75.9,68.6,30.18,SSW,211,0.0,0.0,78,0.00,,---,0.20,VWS V14.01,2013-08-26 04:09:00,
2013-08-25 23:10:00,75.9,68.6,30.18,SSW,211,0.0,0.0,78,0.00,,---,0.20,VWS V14.01,2013-08-26 04:10:00,
2013-08-25 23:11:00,75.9,68.6,30.18,SSW,211,0.0,0.0,78,0.00,,---,0.20,VWS V14.01,2013-08-26 04:11:00,
2013-08-25 23:12:00,75.9,68.6,30.18,SSW,211,0.0,0.0,78,0.00,,---,0.20,VWS V14.01,2013-08-26 04:12:00,
2013-08-25 23:13:00,75.9,68.6,30.18,SSW,211,0.0,0.0,78,0.00,,---,0.20,VWS V14.01,2013-08-26 04:13:00,
2013-08-25 23:14:00,75.9,68.6,30.18,SSW,211,0.0,0.0,78,0.00,,---,0.20,VWS V14.01,2013-08-26 04:14:00,
2013-08-25 23:15:00,75.7,68.4,30.18,SSW,211,0.0,0.0,78,0.00,,---,0.20,VWS V14.01,2013-08-26 04:15:00,
2013-08-25 23:16:00,75.7,68.4,30.18,SSW,211,0.0,0.0,78,0.00,,---,0.20,VWS V14.01,2013-08-26 04:16:00,
2013-08-25 23:17:00,75.7,68.8,30.18,SSW,211,0.0,0.0,79,0.00,,---,0.20,VWS V14.01,2013-08-26 04:17:00,
2013-08-25 23:18:00,75.7,68.8,30.18,SSW,211,0.0,0.0,79,0.00,,---,0.20,VWS V14.01,2013-08-26 04:18:00,
2013-08-25 23:19:00,75.7,68.8,30.18,SSW,211,0.0,0.0,79,0.00,,---,0.20,VWS V14.01,2013-08-26 04:19:00,
2013-08-25 23:20:00,75.7,68.8,30.18,SSW,211,0.0,0.0,79,0.00,,---,0.20,VWS V14.01,2013-08-26 04:20:00,
2013-08-25 23:21:00,75.7,68.8,30.18,SSW,211,0.0,0.0,79,0.00,,---,0.00,VWS V14.01,2013-08-26 04:21:00,
2013-08-25 23:22:00,75.7,68.8,30.18,SSW,211,0.0,0.0,79,0.00,,---,0.20,VWS V14.01,2013-08-26 04:22:00,
2013-08-25 23:23:00,75.7,68.8,30.18,SSW,211,0.0,0.0,79,0.00,,---,0.20,VWS V14.01,2013-08-26 04:23:00,
2013-08-25 23:24:00,75.7,68.8,30.18,SSW,211,0.0,0.0,79,0.00,,---,0.20,VWS V14.01,2013-08-26 04:24:00,
2013-08-25 23:25:00,75.7,68.8,30.18,SSW,211,0.0,0.0,79,0.00,,---,0.20,VWS V14.01,2013-08-26 04:25:00,
2013-08-25 23:26:00,75.6,68.6,30.18,SSW,211,0.0,0.0,79,0.00,,---,0.20,VWS V14.01,2013-08-26 04:26:00,
2013-08-25 23:27:00,75.6,68.6,30.18,SSW,211,0.0,0.0,79,0.00,,---,0.20,VWS V14.01,2013-08-26 04:27:00,
2013-08-25 23:28:00,75.6,68.6,30.18,SSW,211,0.0,0.0,79,0.00,,---,0.20,VWS V14.01,2013-08-26 04:28:00,
2013-08-25 23:29:00,75.6,68.6,30.18,SSW,211,0.0,0.0,79,0.00,,---,0.20,VWS V14.01,2013-08-26 04:29:00,
2013-08-25 23:30:00,75.6,68.6,30.18,SSW,211,0.0,0.0,79,0.00,,---,0.20,VWS V14.01,2013-08-26 04:30:00,
2013-08-25 23:31:00,75.6,68.6,30.18,SSW,211,0.0,0.0,79,0.00,,---,0.20,VWS V14.01,2013-08-26 04:31:00,
2013-08-25 23:32:00,75.6,68.6,30.18,SSW,211,0.0,0.0,79,0.00,,---,0.20,VWS V14.01,2013-08-26 04:32:00,
2013-08-25 23:33:00,75.6,68.6,30.18,SSW,211,0.0,0.0,79,0.00,,---,0.20,VWS V14.01,2013-08-26 04:33:00,
2013-08-25 23:34:00,75.6,68.6,30.18,SSW,211,0.0,0.0,79,0.00,,---,0.20,VWS V14.01,2013-08-26 04:34:00,
2013-08-25 23:35:00,75.6,68.6,30.18,SSW,211,0.0,0.0,79,0.00,,---,0.20,VWS V14.01,2013-08-26 04:35:00,
2013-08-25 23:36:00,75.6,68.6,30.18,SSW,211,0.0,0.0,79,0.00,,---,0.20,VWS V14.01,2013-08-26 04:36:00,
2013-08-25 23:37:00,75.6,68.6,30.18,SSW,211,0.0,0.0,79,0.00,,---,0.20,VWS V14.01,2013-08-26 04:37:00,
2013-08-25 23:38:00,75.4,68.4,30.18,SSW,211,0.0,0.0,79,0.00,,---,0.20,VWS V14.01,2013-08-26 04:38:00,
2013-08-25 23:39:00,75.4,68.4,30.18,SSW,211,0.0,0.0,79,0.00,,---,0.20,VWS V14.01,2013-08-26 04:39:00,
2013-08-25 23:40:00,75.4,68.4,30.18,SSW,211,0.0,0.0,79,0.00,,---,0.20,VWS V14.01,2013-08-26 04:40:00,
2013-08-25 23:41:00,75.4,68.4,30.18,SSW,211,0.0,0.0,79,0.00,,---,0.20,VWS V14.01,2013-08-26 04:41:00,
2013-08-25 23:42:00,75.4,68.4,30.18,SSW,211,0.0,0.0,79,0.00,,---,0.20,VWS V14.01,2013-08-26 04:42:00,
2013-08-25 23:43:00,75.4,68.4,30.18,SSW,211,0.0,0.0,79,0.00,,---,0.20,VWS V14.01,2013-08-26 04:43:00,
2013-08-25 23:44:00,75.4,68.4,30.18,SSW,211,0.0,0.0,79,0.00,,---,0.20,VWS V14.01,2013-08-26 04:44:00,
2013-08-25 23:45:00,75.4,68.4,30.18,SSW,211,0.0,0.0,79,0.00,,---,0.20,VWS V14.01,2013-08-26 04:45:00,
2013-08-25 23:46:00,75.4,68.8,30.18,SSW,211,0.0,0.0,80,0.00,,---,0.20,VWS V14.01,2013-08-26 04:46:00,
2013-08-25 23:47:00,75.4,68.8,30.18,SSW,211,0.0,0.0,80,0.00,,---,0.20,VWS V14.01,2013-08-26 04:47:00,
2013-08-25 23:48:00,75.4,68.8,30.18,SSW,211,0.0,0.0,80,0.00,,---,0.20,VWS V14.01,2013-08-26 04:48:00,
2013-08-25 23:49:00,75.4,68.8,30.18,SSW,211,0.0,0.0,80,0.00,,---,0.20,VWS V14.01,2013-08-26 04:49:00,
2013-08-25 23:50:00,75.2,68.6,30.18,SSW,211,0.0,0.0,80,0.00,,---,0.20,VWS V14.01,2013-08-26 04:50:00,
2013-08-25 23:51:00,75.2,68.6,30.18,SSW,211,0.0,0.0,80,0.00,,---,0.20,VWS V14.01,2013-08-26 04:51:00,
2013-08-25 23:52:00,75.2,68.6,30.18,SSW,211,0.0,0.0,80,0.00,,---,0.20,VWS V14.01,2013-08-26 04:52:00,
2013-08-25 23:53:00,75.2,68.6,30.18,SSW,211,0.0,0.0,80,0.00,,---,0.20,VWS V14.01,2013-08-26 04:53:00,
2013-08-25 23:54:00,75.2,68.6,30.18,SSW,211,0.0,0.0,80,0.00,,---,0.20,VWS V14.01,2013-08-26 04:54:00,
2013-08-25 23:55:00,75.2,68.6,30.18,SSW,211,0.0,0.0,80,0.00,,---,0.20,VWS V14.01,2013-08-26 04:55:00,
2013-08-25 23:56:00,75.2,68.6,30.18,SSW,211,0.0,0.0,80,0.00,,---,0.20,VWS V14.01,2013-08-26 04:56:00,
2013-08-25 23:57:00,75.2,68.6,30.18,SSW,211,0.0,0.0,80,0.00,,---,0.20,VWS V14.01,2013-08-26 04:57:00,
2013-08-25 23:58:00,75.2,68.6,30.18,SSW,211,0.0,0.0,80,0.00,,---,0.20,VWS V14.01,2013-08-26 04:58:00,
2013-08-25 23:59:00,75.2,68.6,30.18,SSW,211,0.0,0.0,80,0.00,,---,0.20,VWS V14.01,2013-08-26 04:59:00,